[[{"header":{"parameterUnit":"m.s-1","parameterCategory":1,"la1":31.0,"la2":29.5877,"lo1":-88.7671,"lo2":-86.6584,"dy":0.0162,"dx":0.0185,"nx":115,"ny":88,"refTime":"2024-04-09T12:00:00:Z","depth":0,"parameterNumber":2,"parameterNumberName":"U-component_of_WINDS"},"data":[0.0,0.0,0.0,0.0,0.0,0.0,0.0,0.0,0.0,0.0,0.0,0.0,0.0,0.0,0.0,0.0,0.0,0.0,0.0,0.0,0.0,0.0,0.0,0.0,0.0,0.0,0.0,0.0,0.0,0.0,0.0,0.0,0.0,0.0,0.0,0.0,0.0,0.0,0.0,0.0,0.0,0.0,0.0,0.0,0.0,0.0,0.0,0.0,0.0,0.0,0.0,0.0,0.0,0.0,0.0,0.0,0.0,0.0,0.0,0.0,0.0,0.0,0.0,0.0,0.0,0.0,0.0,0.0,0.0,0.0,0.0,0.0,0.0,0.0,0.0,0.0,0.0,0.0,0.0,0.0,0.0,0.0,0.0,0.0,0.0,0.0,0.0,0.0,0.0,0.0,0.0,0.0,0.0,0.0,0.0,0.0,0.0,0.0,0.0,0.0,0.0,0.0,0.0,0.0,0.0,0.0,0.0,0.0,0.0,0.0,0.0,0.0,0.0,0.0,0.0,0.0,0.0,0.0,0.0,0.0,0.0,0.0,0.0,0.0,0.0,0.0,0.0,0.0,0.0,0.0,0.0,0.0,0.0,0.0,0.0,0.0,0.0,0.0,0.0,0.0,0.0,0.0,0.0,0.0,0.0,0.0,0.0,0.0,0.0,0.0,0.0,0.0,0.0,0.0,0.0,0.0,0.0,0.0,0.0,0.0,0.0,0.0,0.0,0.0,0.0,0.0,0.0,0.0,0.0,0.0,0.0,0.0,0.0,0.0,0.0,0.0,0.0,0.0,0.0,0.0,0.0,0.0,0.0,0.0,0.0,0.0,0.0,0.0,0.0,0.0,0.0,0.0,0.0,0.0,0.0,0.0,0.0,0.0,0.0,0.0,0.0,0.0,0.0,0.0,0.0,0.0,0.0,0.0,0.0,0.0,0.0,0.0,0.0,0.0,0.0,0.0,0.0,0.0,0.0,0.0,0.0,0.0,0.0,0.0,0.0,0.0,0.0,0.0,0.0,0.0,0.0,0.0,0.0,0.0,0.0,0.0,0.0,0.0,0.0,0.0,0.0,0.0,0.0,0.0,0.0,0.0,0.0,0.0,0.0,0.0,0.0,0.0,0.0,0.0,0.0,0.0,0.0,0.0,0.0,0.0,0.0,0.0,0.0,0.0,0.0,0.0,0.0,0.0,0.0,0.0,0.0,0.0,0.0,0.0,0.0,0.0,0.0,0.0,0.0,0.0,0.0,0.0,0.0,0.0,0.0,0.0,0.0,0.0,0.0,0.0,0.0,0.0,0.0,0.0,0.0,0.0,0.0,0.0,0.0,0.0,0.0,0.0,0.0,0.0,0.0,0.0,0.0,0.0,0.0,0.0,0.0,0.0,0.0,0.0,0.0,0.0,0.0,0.0,0.0,0.0,0.0,0.0,0.0,0.0,0.0,0.0,0.0,0.0,0.0,0.0,0.0,0.0,0.0,0.0,0.0,0.0,0.0,0.0,0.0,0.0,0.0,0.0,0.0,0.0,0.0,0.0,0.0,0.0,0.0,0.0,0.0,0.0,0.0,0.0,0.0,0.0,0.0,0.0,0.0,0.0,0.0,0.0,0.0,0.0,0.0,0.0,0.0,0.0,0.0,0.0,0.0,0.0,0.0,0.0,0.0,0.0,0.0,0.0,0.0,0.0,0.0,0.0,0.0,0.0,0.0,0.0,0.0,0.0,0.0,0.0,0.0,0.0,0.0,0.0,0.0,0.0,0.0,0.0,0.0,0.0,0.0,0.0,0.0,0.0,0.0,0.0,0.0,0.0,0.0,0.0,0.0,0.0,0.0,0.0,0.0,0.0,0.0,0.0,0.0,0.0,0.0,0.0,0.0,0.0,0.0,0.0,0.0,0.0,0.0,0.0,0.0,0.0,0.0,0.0,0.0,0.0,0.0,0.0,0.0,0.0,0.0,0.0,0.0,0.0,0.0,0.0,0.0,0.0,0.0,0.0,0.0,0.0,0.0,0.0,0.0,0.0,0.0,0.0,0.0,0.0,0.0,0.0,0.0,0.0,0.0,0.0,0.0,0.0,0.0,0.0,0.0,0.0,0.0,0.0,0.0,0.0,0.0,0.0,0.0,0.0,0.0,0.0,0.0,0.0,0.0,0.0,0.0,0.0,0.0,0.0,0.0,0.0,0.0,0.0,0.0,0.0,0.0,0.0,0.0,0.0,0.0,0.0,0.0,0.0,0.0,0.0,0.0,0.0,0.0,0.0,0.0,0.0,0.0,0.0,0.0,0.0,0.0,0.0,0.0,0.0,0.0,0.0,0.0,0.0,0.0,0.0,0.0,0.0,0.0,0.0,0.0,0.0,0.0,0.0,0.0,0.0,0.0,0.0,0.0,0.0,0.0,0.0,0.0,0.0,0.0,0.0,0.0,0.0,0.0,0.0,0.0,0.0,0.0,0.0,0.0,0.0,0.0,0.0,0.0,0.0,0.0,0.0,0.0,0.0,0.0,0.0,0.0,0.0,0.0,0.0,0.0,0.0,0.0,0.0,0.0,0.0,0.0,0.0,0.0,0.0,0.0,0.0,0.0,0.0,0.0,0.0,0.0,0.0,0.0,0.0,0.0,0.0,0.0,0.0,0.0,0.0,0.0,0.0,0.0,0.0,0.0,0.0,0.0,0.0,0.0,0.0,0.0,0.0,0.0,0.0,0.0,0.0,0.0,0.0,0.0,0.0,0.0,0.0,0.0,0.0,0.0,0.0,0.0,0.0,0.0,0.0,0.0,0.0,0.0,0.0,0.0,0.0,0.0,0.0,0.0,0.0,0.0,0.0,0.0,0.0,0.0,0.0,0.0,0.0,0.0,0.0,0.0,0.0,0.0,0.0,0.0,0.0,0.0,0.0,0.0,0.0,0.0,0.0,0.0,0.0,0.0,0.0,0.0,0.0,0.0,0.0,0.0,0.0,0.0,0.0,0.0,0.0,0.0,0.0,0.0,0.0,0.0,0.0,0.0,0.0,0.0,0.0,0.0,0.0,0.0,0.0,0.0,0.0,0.0,0.0,0.0,0.0,0.0,0.0,0.0,0.0,0.0,0.0,0.0,0.0,0.0,0.0,0.0,0.0,0.0,0.0,0.0,0.0,0.0,0.0,0.0,0.0,0.0,0.0,0.0,0.0,0.0,0.0,0.0,0.0,0.0,0.0,0.0,0.0,0.0,0.0,0.0,0.0,0.0,0.0,0.0,0.0,0.0,0.0,0.0,0.0,0.0,0.0,0.0,0.0,0.0,0.0,0.0,0.0,0.0,0.0,0.0,0.0,0.0,0.0,0.0,0.0,0.0,0.0,0.0,0.0,0.0,0.0,0.0,0.0,0.0,0.0,0.0,0.0,0.0,0.0,0.0,0.0,0.0,0.0,0.0,0.0,0.0,0.0,0.0,0.0,0.0,0.0,0.0,0.0,0.0,0.0,0.0,0.0,0.0,0.0,0.0,0.0,0.0,0.0,0.0,0.0,0.0,0.0,0.0,0.0,0.0,0.0,0.0,0.0,0.0,0.0,0.0,0.0,0.0,0.0,0.0,0.0,0.0,0.0,0.0,0.0,0.0,0.0,0.0,0.0,0.0,0.0,0.0,0.0,0.0,0.0,0.0,0.0,0.0,0.0,0.0,0.0,0.0,0.0,0.0,0.0,0.0,0.0,0.0,0.0,0.0,0.0,0.0,0.0,0.0,0.0,0.0,0.0,0.0,0.0,0.0,0.0,0.0,0.0,0.0,0.0,0.0,0.0,0.0,0.0,0.0,0.0,0.0,0.0,0.0,0.0,0.0,0.0,0.0,0.0,0.0,0.0,0.0,0.0,0.0,0.0,0.0,0.0,0.0,0.0,0.0,0.0,0.0,0.0,0.0,0.0,0.0,0.0,0.0,0.0,0.0,0.0,0.0,0.0,0.0,0.0,0.0,0.0,0.0,0.0,0.0,0.0,0.0,0.0,0.0,0.0,0.0,0.0,0.0,0.0,0.0,0.0,0.0,0.0,0.0,0.0,0.0,0.0,0.0,0.0,0.0,0.0,0.0,0.0,0.0,0.0,0.0,0.0,0.0,0.0,0.0,0.0,0.0,0.0,0.0,0.0,0.0,0.0,0.0,0.0,0.0,0.0,0.0,0.0,0.0,0.0,0.0,0.0,0.0,0.0,0.0,0.0,0.0,0.0,0.0,0.0,0.0,0.0,0.0,0.0,0.0,0.0,0.0,0.0,0.0,0.0,-11.9254,0.0,0.0,0.0,-11.406,0.0,0.0,0.0,0.0,0.0,0.0,0.0,0.0,0.0,0.0,0.0,0.0,0.0,0.0,0.0,0.0,0.0,0.0,0.0,0.0,0.0,0.0,0.0,0.0,0.0,0.0,0.0,0.0,0.0,0.0,0.0,0.0,0.0,0.0,0.0,0.0,0.0,0.0,0.0,0.0,0.0,0.0,0.0,0.0,0.0,0.0,0.0,0.0,0.0,0.0,0.0,0.0,0.0,0.0,0.0,0.0,0.0,0.0,0.0,0.0,0.0,0.0,0.0,0.0,0.0,0.0,0.0,0.0,0.0,0.0,0.0,0.0,0.0,0.0,0.0,0.0,0.0,0.0,0.0,0.0,0.0,0.0,0.0,0.0,0.0,0.0,0.0,0.0,0.0,0.0,0.0,0.0,0.0,0.0,0.0,0.0,0.0,0.0,0.0,0.0,0.0,0.0,0.0,0.0,0.0,0.0,0.0,0.0,0.0,0.0,-11.9754,-11.8638,-12.0292,-11.9408,-11.5599,0.0,0.0,0.0,0.0,0.0,0.0,0.0,0.0,0.0,0.0,0.0,0.0,0.0,0.0,0.0,0.0,0.0,0.0,0.0,0.0,0.0,0.0,0.0,0.0,0.0,0.0,0.0,0.0,0.0,0.0,0.0,0.0,0.0,0.0,0.0,0.0,0.0,0.0,0.0,0.0,0.0,0.0,0.0,0.0,0.0,0.0,0.0,0.0,0.0,0.0,0.0,0.0,0.0,0.0,0.0,0.0,0.0,0.0,0.0,0.0,0.0,0.0,0.0,0.0,0.0,0.0,0.0,0.0,0.0,0.0,0.0,0.0,0.0,0.0,0.0,0.0,0.0,0.0,0.0,0.0,0.0,0.0,0.0,0.0,0.0,0.0,0.0,0.0,0.0,0.0,0.0,0.0,0.0,0.0,0.0,0.0,0.0,0.0,0.0,0.0,0.0,0.0,0.0,0.0,0.0,0.0,0.0,0.0,0.0,0.0,0.0,0.0,-12.2024,-12.11,-11.7061,0.0,0.0,0.0,0.0,0.0,0.0,0.0,0.0,0.0,0.0,0.0,0.0,0.0,0.0,0.0,0.0,0.0,0.0,0.0,0.0,0.0,0.0,0.0,0.0,0.0,0.0,0.0,0.0,0.0,0.0,0.0,0.0,0.0,0.0,0.0,0.0,0.0,0.0,0.0,0.0,0.0,0.0,0.0,0.0,0.0,0.0,0.0,0.0,0.0,0.0,0.0,0.0,0.0,0.0,0.0,0.0,0.0,0.0,0.0,0.0,0.0,0.0,0.0,0.0,0.0,0.0,0.0,0.0,0.0,0.0,0.0,0.0,0.0,0.0,0.0,0.0,0.0,0.0,0.0,0.0,0.0,0.0,0.0,0.0,0.0,0.0,0.0,0.0,0.0,0.0,0.0,0.0,0.0,0.0,0.0,0.0,0.0,0.0,0.0,0.0,0.0,0.0,0.0,0.0,0.0,0.0,0.0,0.0,0.0,0.0,-11.7907,-12.0216,-11.9831,0.0,-11.4484,0.0,0.0,0.0,0.0,0.0,0.0,0.0,0.0,0.0,0.0,0.0,0.0,0.0,0.0,0.0,0.0,0.0,0.0,0.0,0.0,0.0,0.0,0.0,0.0,0.0,0.0,0.0,0.0,0.0,0.0,0.0,0.0,0.0,0.0,0.0,0.0,0.0,0.0,0.0,0.0,0.0,0.0,0.0,0.0,0.0,0.0,0.0,0.0,0.0,0.0,0.0,0.0,0.0,0.0,0.0,0.0,0.0,0.0,0.0,0.0,0.0,0.0,0.0,0.0,0.0,0.0,0.0,0.0,0.0,0.0,0.0,0.0,0.0,0.0,0.0,0.0,0.0,0.0,0.0,0.0,0.0,0.0,0.0,0.0,0.0,0.0,0.0,0.0,0.0,0.0,0.0,0.0,0.0,0.0,0.0,0.0,0.0,0.0,0.0,0.0,0.0,0.0,0.0,0.0,0.0,0.0,0.0,0.0,0.0,0.0,-11.9254,-12.0292,-11.9523,-11.7946,0.0,0.0,0.0,0.0,0.0,0.0,0.0,0.0,0.0,0.0,0.0,0.0,0.0,0.0,0.0,0.0,0.0,0.0,0.0,0.0,0.0,0.0,0.0,0.0,0.0,0.0,0.0,0.0,0.0,0.0,0.0,0.0,0.0,0.0,0.0,0.0,0.0,0.0,0.0,0.0,0.0,0.0,0.0,0.0,0.0,0.0,0.0,0.0,0.0,0.0,0.0,0.0,0.0,0.0,0.0,0.0,0.0,0.0,0.0,0.0,0.0,0.0,0.0,0.0,0.0,0.0,0.0,0.0,0.0,0.0,0.0,0.0,0.0,0.0,0.0,0.0,0.0,0.0,0.0,0.0,0.0,0.0,0.0,0.0,0.0,0.0,0.0,0.0,0.0,0.0,0.0,0.0,0.0,0.0,0.0,0.0,0.0,0.0,0.0,0.0,0.0,0.0,0.0,0.0,0.0,0.0,0.0,0.0,0.0,0.0,-11.9715,-12.0985,-12.2216,-12.0677,-11.9292,-11.8254,0.0,0.0,0.0,0.0,0.0,0.0,0.0,0.0,0.0,0.0,0.0,0.0,0.0,0.0,0.0,0.0,0.0,0.0,0.0,0.0,0.0,0.0,0.0,0.0,0.0,0.0,0.0,0.0,0.0,0.0,0.0,0.0,0.0,0.0,0.0,0.0,0.0,0.0,0.0,0.0,0.0,0.0,0.0,0.0,0.0,0.0,0.0,0.0,0.0,0.0,0.0,0.0,0.0,0.0,0.0,0.0,0.0,0.0,0.0,0.0,0.0,0.0,0.0,0.0,0.0,0.0,0.0,0.0,0.0,0.0,0.0,0.0,0.0,0.0,0.0,0.0,0.0,0.0,0.0,0.0,0.0,0.0,0.0,0.0,0.0,0.0,0.0,0.0,0.0,0.0,0.0,0.0,0.0,0.0,0.0,0.0,0.0,0.0,0.0,0.0,0.0,0.0,0.0,0.0,0.0,0.0,0.0,0.0,-12.3332,-12.1447,-12.2639,-12.7217,-12.3639,-12.1831,0.0,0.0,0.0,0.0,0.0,0.0,0.0,0.0,0.0,0.0,0.0,0.0,0.0,0.0,0.0,0.0,0.0,0.0,0.0,0.0,0.0,0.0,0.0,0.0,0.0,0.0,0.0,0.0,0.0,0.0,0.0,0.0,0.0,0.0,0.0,0.0,0.0,0.0,0.0,0.0,0.0,0.0,0.0,0.0,0.0,0.0,0.0,0.0,0.0,0.0,0.0,0.0,0.0,0.0,0.0,0.0,0.0,0.0,0.0,0.0,0.0,0.0,0.0,0.0,0.0,0.0,0.0,0.0,0.0,0.0,0.0,0.0,0.0,0.0,0.0,0.0,0.0,0.0,0.0,0.0,0.0,0.0,0.0,0.0,0.0,0.0,0.0,0.0,0.0,0.0,0.0,0.0,0.0,0.0,0.0,0.0,0.0,0.0,0.0,0.0,0.0,0.0,0.0,0.0,0.0,0.0,0.0,0.0,0.0,-11.9177,-11.9908,-12.3024,-12.8294,-12.4639,-12.2331,0.0,0.0,0.0,0.0,0.0,0.0,0.0,0.0,0.0,0.0,0.0,0.0,0.0,0.0,0.0,0.0,0.0,0.0,0.0,0.0,0.0,0.0,0.0,0.0,0.0,0.0,0.0,0.0,0.0,0.0,0.0,0.0,0.0,0.0,0.0,0.0,0.0,0.0,0.0,0.0,0.0,0.0,0.0,0.0,0.0,0.0,0.0,0.0,0.0,0.0,0.0,0.0,0.0,0.0,0.0,0.0,0.0,0.0,0.0,0.0,0.0,0.0,0.0,0.0,0.0,0.0,0.0,0.0,0.0,0.0,0.0,0.0,0.0,0.0,0.0,0.0,0.0,0.0,0.0,0.0,0.0,0.0,0.0,0.0,0.0,0.0,0.0,0.0,0.0,0.0,0.0,0.0,0.0,0.0,0.0,0.0,0.0,0.0,0.0,0.0,0.0,0.0,0.0,0.0,0.0,0.0,0.0,0.0,0.0,-11.8177,-12.0369,-12.387,-12.8371,-12.4947,-12.2639,0.0,0.0,0.0,0.0,0.0,0.0,0.0,0.0,0.0,0.0,0.0,0.0,0.0,0.0,0.0,0.0,0.0,0.0,0.0,0.0,0.0,0.0,0.0,0.0,0.0,0.0,0.0,0.0,0.0,0.0,0.0,0.0,0.0,0.0,0.0,0.0,0.0,0.0,0.0,0.0,0.0,0.0,0.0,0.0,0.0,0.0,0.0,0.0,0.0,0.0,0.0,0.0,0.0,0.0,0.0,0.0,0.0,0.0,0.0,0.0,0.0,0.0,0.0,0.0,0.0,0.0,0.0,0.0,0.0,0.0,0.0,0.0,0.0,0.0,0.0,0.0,0.0,0.0,0.0,0.0,0.0,0.0,0.0,0.0,0.0,0.0,0.0,0.0,0.0,0.0,0.0,0.0,0.0,0.0,0.0,0.0,0.0,0.0,0.0,0.0,0.0,0.0,0.0,0.0,0.0,0.0,0.0,0.0,-11.9138,-12.1562,-12.3062,-12.4986,-12.7755,-12.4716,-12.2908,0.0,0.0,0.0,0.0,0.0,0.0,0.0,0.0,0.0,0.0,0.0,0.0,0.0,0.0,0.0,0.0,0.0,0.0,0.0,0.0,0.0,0.0,0.0,0.0,0.0,0.0,0.0,0.0,0.0,0.0,0.0,0.0,0.0,0.0,0.0,0.0,0.0,0.0,0.0,0.0,0.0,0.0,0.0,0.0,0.0,0.0,0.0,0.0,0.0,0.0,0.0,0.0,0.0,0.0,0.0,0.0,0.0,0.0,0.0,0.0,0.0,0.0,0.0,0.0,0.0,0.0,0.0,0.0,0.0,0.0,0.0,0.0,0.0,0.0,0.0,0.0,0.0,0.0,0.0,0.0,0.0,0.0,0.0,0.0,0.0,0.0,0.0,0.0,0.0,0.0,0.0,0.0,0.0,0.0,0.0,0.0,0.0,0.0,0.0,0.0,0.0,0.0,0.0,0.0,0.0,0.0,0.0,0.0,0.0,-12.4947,-12.1023,-12.2331,-12.914,-12.5293,-12.3447,0.0,0.0,0.0,0.0,0.0,0.0,0.0,0.0,0.0,0.0,0.0,0.0,0.0,0.0,0.0,0.0,0.0,0.0,0.0,0.0,0.0,0.0,0.0,0.0,0.0,0.0,0.0,0.0,0.0,0.0,0.0,0.0,0.0,0.0,0.0,0.0,0.0,0.0,0.0,0.0,0.0,0.0,0.0,0.0,0.0,0.0,0.0,0.0,0.0,0.0,0.0,0.0,0.0,0.0,0.0,0.0,0.0,0.0,0.0,0.0,0.0,0.0,0.0,0.0,0.0,0.0,0.0,0.0,0.0,0.0,0.0,0.0,0.0,0.0,0.0,0.0,0.0,0.0,0.0,0.0,0.0,0.0,0.0,0.0,0.0,0.0,0.0,0.0,0.0,0.0,0.0,0.0,0.0,0.0,0.0,0.0,0.0,0.0,0.0,0.0,0.0,0.0,0.0,0.0,0.0,0.0,0.0,0.0,0.0,-12.8179,-12.2216,-12.1677,-12.7525,-12.5178,-12.387,-12.3947,0.0,0.0,0.0,0.0,0.0,0.0,0.0,0.0,0.0,0.0,0.0,0.0,0.0,0.0,0.0,0.0,0.0,0.0,0.0,0.0,0.0,0.0,0.0,0.0,0.0,0.0,0.0,0.0,0.0,0.0,0.0,0.0,0.0,0.0,0.0,0.0,0.0,0.0,0.0,0.0,0.0,0.0,0.0,0.0,0.0,0.0,0.0,0.0,0.0,0.0,0.0,0.0,0.0,0.0,0.0,0.0,0.0,0.0,0.0,0.0,0.0,0.0,0.0,0.0,0.0,0.0,0.0,0.0,0.0,0.0,0.0,0.0,0.0,0.0,0.0,0.0,0.0,0.0,0.0,0.0,0.0,0.0,0.0,0.0,0.0,0.0,0.0,0.0,0.0,0.0,0.0,0.0,0.0,0.0,0.0,0.0,0.0,0.0,0.0,0.0,0.0,0.0,0.0,0.0,0.0,0.0,0.0,0.0,-13.1525,-12.6255,-12.3524,-12.3832,-12.5063,-12.4524,0.0,0.0,0.0,0.0,0.0,0.0,0.0,0.0,0.0,0.0,0.0,0.0,0.0,0.0,0.0,0.0,0.0,0.0,0.0,0.0,0.0,0.0,0.0,0.0,0.0,0.0,0.0,0.0,0.0,0.0,0.0,0.0,0.0,0.0,0.0,0.0,0.0,0.0,0.0,0.0,0.0,0.0,0.0,0.0,0.0,0.0,0.0,0.0,0.0,0.0,0.0,0.0,0.0,0.0,0.0,0.0,0.0,0.0,0.0,0.0,0.0,0.0,0.0,0.0,0.0,0.0,0.0,0.0,0.0,0.0,0.0,0.0,0.0,0.0,0.0,0.0,0.0,0.0,0.0,0.0,0.0,0.0,0.0,0.0,0.0,0.0,0.0,0.0,0.0,0.0,0.0,0.0,0.0,0.0,0.0,0.0,0.0,0.0,0.0,0.0,0.0,0.0,0.0,0.0,0.0,0.0,0.0,0.0,0.0,-13.0641,-12.9871,-13.0294,-13.2064,-13.0217,-12.8563,0.0,0.0,0.0,0.0,0.0,0.0,0.0,0.0,0.0,0.0,0.0,0.0,0.0,0.0,0.0,0.0,0.0,0.0,0.0,0.0,0.0,0.0,0.0,0.0,0.0,0.0,0.0,0.0,0.0,0.0,0.0,0.0,0.0,0.0,0.0,0.0,0.0,0.0,0.0,0.0,0.0,0.0,0.0,0.0,0.0,0.0,0.0,0.0,0.0,0.0,0.0,0.0,0.0,0.0,0.0,0.0,0.0,0.0,0.0,0.0,0.0,0.0,0.0,0.0,0.0,0.0,0.0,0.0,0.0,0.0,0.0,0.0,0.0,0.0,0.0,0.0,0.0,0.0,0.0,0.0,0.0,0.0,0.0,0.0,0.0,0.0,0.0,0.0,0.0,0.0,0.0,0.0,0.0,0.0,0.0,0.0,0.0,0.0,0.0,0.0,0.0,0.0,0.0,0.0,0.0,0.0,0.0,0.0,-13.0487,-13.1025,-13.391,-13.6488,-13.8642,-13.5795,-13.2603,0.0,0.0,0.0,0.0,0.0,0.0,0.0,0.0,0.0,0.0,0.0,0.0,0.0,0.0,0.0,0.0,0.0,0.0,0.0,0.0,0.0,0.0,0.0,0.0,0.0,0.0,0.0,0.0,0.0,0.0,0.0,0.0,0.0,0.0,0.0,0.0,0.0,0.0,0.0,0.0,0.0,0.0,0.0,0.0,0.0,0.0,0.0,0.0,0.0,0.0,0.0,0.0,0.0,0.0,0.0,0.0,0.0,0.0,0.0,0.0,0.0,0.0,0.0,0.0,0.0,0.0,0.0,0.0,0.0,0.0,0.0,0.0,0.0,0.0,0.0,0.0,0.0,0.0,0.0,0.0,0.0,0.0,0.0,0.0,0.0,0.0,0.0,0.0,0.0,0.0,0.0,0.0,0.0,0.0,0.0,0.0,0.0,0.0,0.0,0.0,0.0,0.0,0.0,0.0,0.0,0.0,0.0,0.0,-13.2102,-13.2141,-13.7911,-14.1874,-14.3566,-14.0796,-13.6154,0.0,0.0,0.0,0.0,0.0,0.0,0.0,0.0,0.0,0.0,0.0,0.0,0.0,0.0,0.0,0.0,0.0,0.0,0.0,0.0,0.0,0.0,0.0,0.0,0.0,0.0,0.0,0.0,0.0,0.0,0.0,0.0,0.0,0.0,0.0,0.0,0.0,0.0,0.0,0.0,0.0,0.0,0.0,0.0,0.0,0.0,0.0,0.0,0.0,0.0,0.0,0.0,0.0,0.0,0.0,0.0,0.0,0.0,0.0,0.0,0.0,0.0,0.0,0.0,0.0,0.0,0.0,0.0,0.0,0.0,0.0,0.0,0.0,0.0,0.0,0.0,0.0,0.0,0.0,0.0,0.0,0.0,0.0,0.0,0.0,0.0,0.0,0.0,0.0,0.0,0.0,0.0,0.0,0.0,0.0,0.0,0.0,0.0,0.0,0.0,0.0,0.0,0.0,0.0,0.0,0.0,0.0,0.0,-13.4718,-13.4795,-14.0527,-14.5028,-14.8029,-14.1758,-13.6332,0.0,0.0,0.0,0.0,0.0,0.0,0.0,0.0,0.0,0.0,0.0,0.0,0.0,0.0,0.0,0.0,0.0,0.0,0.0,0.0,0.0,0.0,0.0,0.0,0.0,0.0,0.0,0.0,0.0,0.0,0.0,0.0,0.0,0.0,0.0,0.0,0.0,0.0,0.0,0.0,0.0,0.0,0.0,0.0,0.0,0.0,0.0,0.0,-11.6617,0.0,0.0,0.0,0.0,0.0,0.0,0.0,0.0,0.0,0.0,0.0,0.0,0.0,0.0,0.0,0.0,0.0,0.0,0.0,0.0,0.0,0.0,0.0,0.0,0.0,0.0,0.0,0.0,0.0,0.0,0.0,0.0,0.0,0.0,0.0,0.0,0.0,0.0,0.0,0.0,0.0,0.0,0.0,0.0,0.0,0.0,0.0,0.0,0.0,0.0,0.0,0.0,0.0,0.0,0.0,0.0,0.0,0.0,0.0,-13.4487,-13.618,-14.1527,-14.5643,-14.7913,-14.2027,-13.7351,0.0,0.0,0.0,0.0,0.0,0.0,0.0,0.0,0.0,0.0,0.0,0.0,0.0,0.0,0.0,0.0,0.0,0.0,0.0,0.0,0.0,0.0,0.0,0.0,0.0,0.0,0.0,0.0,0.0,0.0,0.0,0.0,0.0,0.0,0.0,0.0,0.0,0.0,0.0,0.0,0.0,0.0,0.0,0.0,0.0,0.0,0.0,0.0,0.0,0.0,0.0,0.0,0.0,0.0,0.0,0.0,0.0,0.0,0.0,0.0,0.0,0.0,0.0,0.0,0.0,0.0,0.0,0.0,0.0,0.0,0.0,0.0,0.0,0.0,0.0,0.0,0.0,0.0,0.0,0.0,0.0,0.0,0.0,0.0,0.0,0.0,0.0,0.0,0.0,0.0,0.0,0.0,0.0,0.0,0.0,0.0,0.0,0.0,0.0,0.0,0.0,0.0,0.0,0.0,0.0,0.0,0.0,-12.9563,-13.3987,-13.718,-14.1912,-14.5143,-14.6567,-14.1912,-13.8291,-13.6086,0.0,0.0,0.0,0.0,0.0,0.0,0.0,0.0,0.0,0.0,0.0,0.0,0.0,0.0,0.0,0.0,0.0,0.0,0.0,0.0,0.0,0.0,0.0,0.0,0.0,0.0,0.0,0.0,0.0,0.0,0.0,0.0,0.0,0.0,0.0,0.0,0.0,0.0,-11.2176,-11.0246,0.0,0.0,0.0,0.0,0.0,0.0,0.0,0.0,-11.7571,0.0,0.0,0.0,0.0,0.0,0.0,0.0,0.0,0.0,0.0,0.0,0.0,0.0,0.0,0.0,0.0,0.0,0.0,0.0,0.0,0.0,0.0,0.0,0.0,0.0,0.0,0.0,0.0,0.0,0.0,0.0,0.0,0.0,0.0,0.0,0.0,0.0,0.0,0.0,0.0,0.0,0.0,0.0,0.0,0.0,0.0,0.0,0.0,0.0,0.0,0.0,0.0,0.0,0.0,0.0,0.0,-12.8217,-13.3295,-13.6911,-13.8911,-14.2489,-14.4874,-14.572,-14.1604,-13.7709,-13.4252,0.0,0.0,0.0,0.0,0.0,0.0,0.0,0.0,0.0,0.0,0.0,0.0,0.0,0.0,0.0,0.0,0.0,0.0,0.0,0.0,0.0,0.0,0.0,0.0,0.0,0.0,0.0,0.0,0.0,0.0,0.0,0.0,0.0,0.0,0.0,0.0,0.0,0.0,0.0,-11.4495,-11.4144,0.0,0.0,0.0,0.0,0.0,0.0,0.0,0.0,-11.4341,0.0,0.0,0.0,0.0,0.0,0.0,0.0,0.0,0.0,0.0,0.0,0.0,0.0,0.0,0.0,0.0,0.0,0.0,0.0,0.0,0.0,0.0,0.0,0.0,0.0,0.0,0.0,0.0,0.0,0.0,0.0,0.0,0.0,0.0,0.0,0.0,0.0,0.0,0.0,0.0,0.0,0.0,0.0,0.0,0.0,0.0,0.0,0.0,0.0,0.0,0.0,0.0,0.0,0.0,0.0,-12.9179,-13.1179,-13.4064,-13.7911,-14.0912,-14.2412,-14.2297,-13.784,-13.4413,0.0,0.0,0.0,0.0,0.0,0.0,0.0,0.0,0.0,0.0,0.0,0.0,0.0,0.0,0.0,0.0,0.0,0.0,0.0,0.0,0.0,0.0,0.0,0.0,0.0,0.0,0.0,0.0,0.0,0.0,0.0,0.0,0.0,0.0,0.0,0.0,0.0,0.0,0.0,0.0,-11.2758,-11.2454,-11.1976,0.0,0.0,0.0,0.0,0.0,0.0,-11.6195,-11.3233,0.0,0.0,0.0,0.0,0.0,0.0,0.0,0.0,0.0,0.0,0.0,0.0,0.0,0.0,0.0,0.0,0.0,0.0,0.0,0.0,0.0,0.0,0.0,0.0,0.0,0.0,0.0,0.0,0.0,0.0,0.0,0.0,0.0,0.0,0.0,0.0,0.0,0.0,0.0,0.0,0.0,0.0,0.0,0.0,0.0,0.0,0.0,0.0,0.0,0.0,0.0,0.0,0.0,0.0,0.0,-12.9025,-12.9025,-13.1487,-13.6603,-13.895,-13.9758,-13.8962,-13.408,-13.1278,0.0,0.0,0.0,0.0,0.0,0.0,0.0,0.0,0.0,0.0,0.0,0.0,0.0,0.0,0.0,0.0,0.0,0.0,0.0,0.0,0.0,0.0,0.0,0.0,0.0,0.0,0.0,0.0,0.0,0.0,0.0,0.0,0.0,0.0,0.0,0.0,0.0,0.0,0.0,0.0,0.0,-11.1479,-10.9603,-11.0731,0.0,0.0,0.0,0.0,-11.7868,-11.4477,0.0,0.0,0.0,0.0,0.0,0.0,0.0,0.0,0.0,0.0,0.0,0.0,0.0,0.0,0.0,0.0,0.0,0.0,0.0,0.0,0.0,0.0,0.0,0.0,0.0,0.0,0.0,0.0,0.0,0.0,0.0,0.0,0.0,0.0,0.0,0.0,0.0,0.0,0.0,0.0,0.0,0.0,0.0,0.0,0.0,0.0,0.0,0.0,0.0,0.0,0.0,0.0,0.0,0.0,0.0,0.0,-12.9179,-13.1333,-13.3834,-13.668,-13.7834,-13.8334,-13.8181,-13.3199,-13.037,0.0,0.0,0.0,0.0,0.0,0.0,0.0,0.0,0.0,0.0,0.0,0.0,0.0,0.0,0.0,0.0,0.0,0.0,0.0,0.0,0.0,0.0,0.0,0.0,0.0,0.0,0.0,0.0,0.0,0.0,0.0,0.0,0.0,0.0,0.0,0.0,0.0,0.0,0.0,0.0,0.0,-11.6644,-11.1027,-11.1581,-11.1175,0.0,0.0,-11.1328,-11.3466,-11.2871,0.0,0.0,0.0,0.0,0.0,0.0,0.0,0.0,0.0,0.0,0.0,0.0,0.0,0.0,0.0,0.0,0.0,0.0,0.0,0.0,0.0,0.0,0.0,0.0,0.0,0.0,0.0,0.0,0.0,0.0,0.0,0.0,0.0,0.0,0.0,0.0,0.0,0.0,0.0,0.0,0.0,0.0,0.0,0.0,0.0,0.0,0.0,0.0,0.0,0.0,0.0,0.0,0.0,0.0,0.0,-12.6018,-12.8901,-12.8682,-13.0213,-13.3688,-13.4607,-13.4849,-13.4449,-12.8956,-12.6558,0.0,0.0,0.0,0.0,0.0,0.0,0.0,0.0,0.0,0.0,0.0,0.0,0.0,0.0,0.0,0.0,0.0,0.0,0.0,0.0,0.0,0.0,0.0,0.0,0.0,0.0,0.0,0.0,0.0,0.0,0.0,0.0,0.0,0.0,0.0,0.0,0.0,0.0,0.0,0.0,0.0,0.0,-10.999,-11.1837,0.0,0.0,0.0,-11.0836,-11.0861,0.0,0.0,0.0,0.0,0.0,0.0,0.0,0.0,0.0,0.0,0.0,0.0,0.0,0.0,0.0,0.0,0.0,0.0,0.0,0.0,0.0,0.0,0.0,0.0,0.0,0.0,0.0,0.0,0.0,0.0,0.0,0.0,0.0,0.0,0.0,0.0,0.0,0.0,0.0,0.0,0.0,0.0,0.0,0.0,0.0,0.0,0.0,0.0,0.0,0.0,0.0,0.0,0.0,0.0,0.0,0.0,0.0,-12.8749,-12.6621,-12.7289,-13.0974,-13.1741,-13.1728,-13.0931,-12.5398,0.0,0.0,0.0,0.0,0.0,0.0,0.0,0.0,0.0,0.0,0.0,0.0,0.0,0.0,0.0,0.0,0.0,0.0,0.0,0.0,0.0,0.0,0.0,0.0,0.0,0.0,0.0,-11.5406,0.0,0.0,0.0,0.0,0.0,0.0,0.0,0.0,0.0,0.0,0.0,0.0,0.0,0.0,-11.6065,-10.9493,-11.2013,-11.2327,0.0,0.0,-11.0308,-10.839,-10.8271,-10.804,0.0,0.0,0.0,0.0,0.0,0.0,0.0,0.0,0.0,0.0,0.0,0.0,0.0,0.0,0.0,0.0,0.0,0.0,0.0,0.0,0.0,0.0,0.0,0.0,0.0,0.0,0.0,0.0,-12.7525,-12.8448,0.0,0.0,0.0,0.0,0.0,0.0,0.0,0.0,0.0,0.0,0.0,0.0,0.0,0.0,0.0,0.0,0.0,0.0,0.0,0.0,0.0,0.0,0.0,0.0,-12.5594,-12.8742,-12.7192,-12.7462,-12.9984,-13.027,-12.9962,-12.904,-12.4125,-12.2963,0.0,0.0,0.0,0.0,0.0,0.0,0.0,0.0,0.0,0.0,0.0,0.0,0.0,0.0,0.0,0.0,0.0,0.0,0.0,0.0,0.0,0.0,0.0,0.0,0.0,0.0,0.0,0.0,0.0,0.0,0.0,0.0,0.0,0.0,0.0,0.0,0.0,0.0,0.0,0.0,0.0,-11.6415,-11.0972,-11.2269,-11.1422,0.0,-10.7512,-10.9058,-10.5567,-10.9576,-11.1475,-10.6661,0.0,0.0,0.0,0.0,0.0,0.0,0.0,0.0,0.0,0.0,0.0,0.0,0.0,0.0,0.0,0.0,0.0,0.0,0.0,0.0,0.0,0.0,0.0,0.0,0.0,-12.4678,-12.6524,-12.7832,-12.7717,0.0,0.0,0.0,0.0,0.0,0.0,0.0,0.0,0.0,0.0,0.0,0.0,0.0,0.0,0.0,0.0,0.0,0.0,0.0,0.0,0.0,0.0,0.0,0.0,-12.4804,-12.792,-12.4779,-12.4289,-12.6635,-12.6396,-12.6023,-12.5721,-12.1846,-12.0342,0.0,0.0,0.0,0.0,0.0,0.0,0.0,0.0,0.0,0.0,0.0,0.0,0.0,0.0,0.0,0.0,0.0,0.0,0.0,0.0,0.0,0.0,0.0,0.0,0.0,0.0,0.0,0.0,-11.2616,-11.1845,-11.2836,0.0,0.0,0.0,0.0,0.0,0.0,0.0,0.0,0.0,0.0,-11.6405,-11.2961,-11.3622,0.0,0.0,-11.0016,-11.0629,-10.7885,-10.8995,-10.9475,-10.7527,-10.7221,0.0,0.0,0.0,0.0,0.0,0.0,0.0,0.0,0.0,0.0,0.0,0.0,0.0,0.0,0.0,0.0,0.0,0.0,0.0,0.0,0.0,0.0,0.0,0.0,0.0,0.0,-12.8948,-12.8448,0.0,0.0,0.0,0.0,0.0,0.0,0.0,0.0,0.0,0.0,0.0,0.0,0.0,0.0,0.0,0.0,0.0,0.0,0.0,0.0,0.0,0.0,0.0,0.0,-12.44,-12.7,-12.2829,-12.1685,-12.3913,-12.3259,-12.2757,-12.2525,-11.9584,-11.8178,0.0,0.0,0.0,0.0,0.0,0.0,0.0,0.0,0.0,0.0,0.0,0.0,0.0,0.0,0.0,0.0,0.0,0.0,0.0,0.0,0.0,0.0,0.0,0.0,0.0,0.0,0.0,0.0,-11.3167,-11.2469,-11.3607,0.0,0.0,0.0,0.0,0.0,0.0,0.0,0.0,0.0,0.0,-11.5782,-11.314,-11.4362,-11.4546,-11.1592,-11.294,-11.3528,-11.1307,-11.0058,-10.9354,-10.9095,0.0,0.0,0.0,0.0,0.0,0.0,0.0,0.0,0.0,0.0,0.0,0.0,0.0,0.0,0.0,0.0,0.0,0.0,0.0,0.0,0.0,0.0,0.0,0.0,0.0,0.0,0.0,-13.1602,0.0,0.0,-13.0525,0.0,0.0,0.0,0.0,0.0,0.0,0.0,0.0,0.0,0.0,0.0,0.0,0.0,0.0,0.0,0.0,0.0,0.0,0.0,0.0,0.0,0.0,-12.463,-12.5932,-12.1892,-12.0554,-12.2047,-12.1488,-12.0705,-11.9848,-11.7578,-11.7057,-11.8503,0.0,0.0,0.0,0.0,0.0,0.0,0.0,0.0,0.0,0.0,0.0,0.0,0.0,0.0,0.0,0.0,0.0,0.0,0.0,0.0,0.0,0.0,0.0,0.0,0.0,0.0,-11.4635,-11.2689,-11.1405,0.0,0.0,0.0,0.0,0.0,0.0,0.0,0.0,0.0,0.0,-11.4525,-11.4575,-11.0884,-11.4158,-11.5918,-11.3075,-11.5776,-11.7453,-11.4955,-11.347,-11.2297,0.0,0.0,0.0,0.0,0.0,0.0,0.0,0.0,0.0,0.0,0.0,0.0,0.0,0.0,0.0,0.0,0.0,0.0,0.0,0.0,0.0,0.0,0.0,0.0,0.0,0.0,0.0,-13.1679,-13.0987,0.0,0.0,0.0,0.0,0.0,0.0,0.0,0.0,0.0,0.0,0.0,-13.1641,-13.0564,0.0,0.0,0.0,0.0,0.0,0.0,0.0,0.0,0.0,0.0,0.0,0.0,-12.3499,-12.418,-12.0237,-11.8575,-11.9564,-11.8391,-11.7584,-11.7244,-11.548,-11.5,-11.6027,0.0,0.0,0.0,0.0,0.0,0.0,0.0,0.0,0.0,0.0,0.0,0.0,0.0,0.0,0.0,0.0,0.0,0.0,0.0,0.0,0.0,0.0,0.0,0.0,0.0,-11.5369,0.0,0.0,0.0,0.0,0.0,0.0,0.0,0.0,0.0,0.0,0.0,-11.4598,-11.4048,-11.3754,-11.3325,-11.2545,-11.3773,-11.4652,0.0,0.0,0.0,0.0,0.0,0.0,0.0,0.0,0.0,0.0,0.0,0.0,0.0,0.0,-11.1174,-10.8208,-10.7267,-10.6934,-10.6934,0.0,0.0,0.0,0.0,0.0,0.0,0.0,0.0,0.0,0.0,0.0,0.0,0.0,0.0,-13.191,-13.0948,-13.0871,0.0,0.0,0.0,0.0,0.0,0.0,0.0,0.0,-12.9525,-12.9794,-13.1602,-13.0602,-13.0641,0.0,-13.1679,-13.1679,0.0,0.0,0.0,0.0,0.0,0.0,0.0,0.0,-12.2938,-12.2572,-11.8802,-11.7058,-11.7461,-11.625,-11.5442,-11.5149,-11.3864,-11.3167,-11.313,-11.291,-11.4158,0.0,0.0,0.0,0.0,0.0,0.0,0.0,0.0,0.0,0.0,0.0,0.0,0.0,0.0,0.0,0.0,0.0,0.0,0.0,0.0,0.0,0.0,0.0,-11.658,0.0,0.0,0.0,0.0,0.0,0.0,0.0,0.0,0.0,-11.9076,-11.6177,-11.4084,-11.4341,-11.324,-11.2579,-11.3093,0.0,0.0,0.0,0.0,0.0,0.0,0.0,-11.2929,-11.1778,-11.2306,-11.3702,-11.5692,-11.5153,-11.4201,-11.3378,0.0,0.0,-10.8557,-10.7712,-10.7373,-10.7373,-10.7745,-10.7712,-10.6697,-10.5885,-10.5005,0.0,0.0,0.0,0.0,-13.1833,0.0,0.0,0.0,-13.1718,-13.1718,0.0,-12.9987,0.0,0.0,0.0,0.0,0.0,-12.8332,0.0,0.0,-12.8871,-12.9333,-13.1564,-13.1641,-13.1679,-13.1641,-13.1679,-13.1679,-13.1602,-13.0871,0.0,0.0,0.0,0.0,0.0,0.0,-12.2863,-12.0961,-11.7731,-11.5993,-11.5956,-11.5185,-11.4378,-11.3534,-11.2763,-11.1698,-11.0304,-11.2286,-11.3203,-11.2653,-11.6874,0.0,0.0,0.0,0.0,0.0,0.0,0.0,0.0,0.0,0.0,0.0,0.0,0.0,0.0,0.0,0.0,0.0,0.0,0.0,0.0,-11.7278,0.0,0.0,0.0,0.0,0.0,0.0,0.0,0.0,0.0,0.0,-11.8085,-11.625,-11.4488,-11.3791,0.0,0.0,0.0,0.0,-11.5846,-11.581,-11.7828,-11.8962,-11.8117,-11.6351,-11.5196,-11.5705,0.0,0.0,-11.3834,-11.2794,-11.208,-11.2498,-11.1471,-11.079,-11.2076,-11.0925,-11.0012,-10.9911,-10.7779,-10.602,-10.5716,-10.4464,-10.2806,-13.1952,0.0,0.0,0.0,0.0,-13.2603,-13.2179,-13.091,-13.2102,-13.1949,-13.0833,-13.0333,0.0,0.0,0.0,0.0,0.0,0.0,-12.941,-13.0487,-13.0564,-13.0679,-13.0871,-13.141,-13.141,-13.0871,-13.141,-13.141,-13.0833,-13.0602,-13.1102,-13.2218,0.0,0.0,0.0,0.0,-12.1434,-12.0071,-11.7436,-11.5736,-11.5149,-11.4341,-11.3277,-11.1919,-11.1662,-11.1588,-11.1698,-11.1808,-11.2873,-11.4855,-11.5185,0.0,0.0,0.0,0.0,0.0,0.0,0.0,0.0,0.0,0.0,0.0,0.0,0.0,0.0,0.0,0.0,0.0,0.0,0.0,-12.2196,-11.8746,-11.6874,0.0,0.0,0.0,0.0,0.0,0.0,0.0,0.0,0.0,-11.7425,-11.5442,-11.4268,0.0,0.0,-11.2836,-11.3937,-11.3717,-11.3424,-11.3424,-11.4488,0.0,-11.3595,-11.4206,-11.4603,-11.3716,-11.5637,-11.7471,-11.7887,-11.6699,-11.5297,-11.4401,-11.2504,-11.123,-11.1467,-11.0046,-10.8625,-10.7948,-10.7137,-10.6595,-10.6494,-10.5648,-10.4802,-13.2242,-13.1873,-13.2816,-13.3026,-13.2833,-13.3641,-13.3026,-13.1525,-13.2564,-13.2064,-13.0448,-12.9756,-12.9179,-12.8602,-12.7294,0.0,0.0,0.0,-12.8679,-12.9487,-12.9987,-13.0294,-13.0525,-13.0987,-13.0987,-13.0602,-13.2025,-13.2102,-13.0987,-13.1679,-13.2141,-13.2372,0.0,0.0,-12.7936,-12.3884,-12.1205,-11.9888,-11.7324,-11.5589,-11.4818,-11.3717,-11.2506,-11.1258,-11.1221,-11.1441,-11.1919,-11.1772,-11.2432,-11.4011,-11.4378,-11.4929,0.0,0.0,0.0,0.0,0.0,0.0,0.0,0.0,0.0,0.0,0.0,-11.636,-11.7828,0.0,0.0,0.0,-11.7021,-11.8599,-12.0031,-11.7058,0.0,0.0,0.0,0.0,0.0,0.0,0.0,-11.8563,-11.6947,-11.5773,-11.5736,-11.4488,-11.4084,-11.5369,-11.3424,-11.2396,-11.3681,0.0,-11.2506,-11.2836,-11.3534,-11.3893,-11.3322,-11.3841,-11.4278,-11.4093,-11.6794,-11.8753,-11.8261,-11.7416,-11.6044,-11.4021,-11.2606,-11.1636,-11.1095,-10.9843,-10.8828,-10.8321,-10.7745,-10.7373,-10.734,-10.7001,-10.6595,-13.3064,-13.3218,-13.4757,-13.4911,-13.4295,-13.4988,-13.4372,-13.291,-13.2795,-13.1949,-13.0371,-12.8602,-12.7717,-12.7563,-12.6909,0.0,-12.6486,-12.664,-12.7101,-12.7832,-12.7948,-12.8871,-13.0371,-13.0448,-13.0487,-13.0525,-13.2949,-13.3295,-13.1795,-13.3295,-13.3256,-13.1602,-13.0064,-12.8486,-12.6745,-12.3947,-12.1755,-12.0212,-11.7599,-11.5773,-11.4929,-11.3313,-11.2139,-11.1331,-11.1295,-11.1295,-11.1331,-11.1955,-11.1992,-11.1441,-11.4048,-11.4965,-11.3607,0.0,0.0,0.0,0.0,0.0,0.0,0.0,0.0,0.0,0.0,0.0,0.0,0.0,0.0,-11.4929,-11.3901,0.0,-11.3937,-11.3754,0.0,0.0,0.0,-11.6654,-11.7902,-11.6213,-11.5516,-11.6764,0.0,0.0,-11.3497,-11.3497,-11.3791,-11.4598,-11.28,-11.1698,-11.2543,-11.2653,-11.2763,-11.346,-11.4268,-11.5075,-11.5524,-11.4826,-11.4463,-11.5625,-11.7305,-11.7656,-11.6615,-11.579,-11.457,-11.2193,-11.195,-11.1737,-11.035,-10.9911,-11.0012,-10.9708,-10.8727,-10.7881,-10.7813,-10.761,-10.7204,-13.3987,-13.4026,-13.4411,-13.4064,-13.3333,-13.3487,-13.2987,-13.1987,-13.1333,-13.0871,-13.0333,-12.8025,-12.6255,-12.5024,-12.5486,-12.5332,-12.4755,-12.6101,-12.6794,-12.7063,-12.8294,-12.914,-12.9525,-13.0217,-13.0487,-13.0602,-13.1718,-13.2102,-13.1718,-13.2102,-13.1795,-13.0794,-13.0371,-12.9333,-12.7552,-12.3649,-12.142,-12.1005,-11.8892,-11.7168,-11.5699,-11.4121,-11.2946,-11.2139,-11.2102,-11.2102,-11.2102,-11.1698,-11.1698,-11.2065,-11.2286,-11.2176,-11.1845,-11.5993,0.0,0.0,0.0,0.0,0.0,0.0,0.0,0.0,0.0,-11.7058,-11.8893,0.0,-11.7792,0.0,-11.2579,-11.324,-11.6874,-11.5039,0.0,0.0,-11.6507,-11.6984,-11.4965,-11.5846,-11.6103,-11.4598,-11.3937,-11.335,-11.2763,-11.2689,-11.2983,-11.3754,-11.3387,-11.3534,-11.4855,-11.4048,-11.335,-11.357,-11.4231,-11.5075,-11.5644,-11.5724,-11.5288,-11.5295,-11.5943,-11.664,-11.6854,-11.4956,-11.3117,-11.2354,-11.0978,-10.9779,-10.8693,-10.8118,-10.7509,-10.7069,-10.7001,-10.7137,-10.7137,-10.6291,-10.5445,-13.4834,-13.4834,-13.4834,-13.391,-13.2487,-13.3218,-13.2833,-13.1679,-13.1218,-13.041,-12.9179,-12.6678,-12.5216,-12.4639,-12.4409,-12.4447,-12.4755,-12.5678,-12.6524,-12.7294,-12.8217,-12.9063,-12.9794,-13.0294,-13.0487,-13.0525,-13.1295,-13.1679,-13.1679,-13.1679,-13.1295,-13.0525,-13.0487,-12.9833,-12.8398,-12.4448,-12.2587,-12.2965,-11.9602,-11.7278,-11.603,-11.4782,-11.4084,-11.3974,-11.2946,-11.2726,-11.3424,-11.2359,-11.2286,-11.3387,-11.3387,-11.3167,-11.2873,-11.5332,-11.5993,0.0,0.0,0.0,0.0,0.0,0.0,0.0,0.0,0.0,0.0,0.0,-11.6837,-11.5332,-11.2763,-11.2579,-11.5956,-11.4341,-11.3093,-11.3203,-11.5039,-11.5553,-11.3754,-11.4782,-11.5222,-11.4231,-11.3497,-11.302,-11.291,-11.2322,-11.2322,-11.3424,-11.3277,-11.3387,-11.4121,-11.357,-11.3057,-11.3057,-11.3754,-11.3844,-11.3208,-11.3527,-11.339,-11.1892,-11.23,-11.2952,-11.2693,-11.1546,-11.0333,-10.9305,-10.8323,-10.7677,-10.7489,-10.662,-10.5949,-10.623,-10.5802,-10.5613,-10.5817,-10.5242,-10.4701,-13.5603,-13.5488,-13.5411,-13.3949,-13.1833,-13.3333,-13.2987,-13.1372,-13.1256,-12.9833,-12.7448,-12.5332,-12.4793,-12.5293,-12.3985,-12.4178,-12.5524,-12.5678,-12.6524,-12.7871,-12.8025,-12.8909,-13.0487,-13.0487,-13.0564,-13.0679,-13.1372,-13.1679,-13.1679,-13.1679,-13.1333,-13.0679,-13.0641,-13.0256,-12.9398,-12.6059,-12.4469,-12.4668,-12.0035,-11.7388,-11.6764,-11.581,-11.5589,-11.6177,-11.3864,-11.313,-11.4378,-11.3057,-11.2873,-11.4268,-11.5002,-11.5075,-11.4378,-11.4635,-11.4818,0.0,-11.5185,0.0,0.0,0.0,0.0,0.0,0.0,0.0,0.0,-11.4672,-11.5185,-11.6764,-11.3424,-11.1772,-11.313,-11.2726,-11.2139,-11.1515,-11.28,-11.3717,-11.3717,-11.3827,-11.4121,-11.4745,-11.357,-11.2946,-11.324,-11.2212,-11.1919,-11.3093,-11.2726,-11.2359,-11.2432,-11.2469,-11.2388,-11.2225,-11.2966,-11.2832,-11.0462,-11.0737,-11.0753,-10.8045,-10.8557,-10.8676,-10.7741,-10.7705,-10.7216,-10.5612,-10.5766,-10.6195,-10.6656,-10.5652,-10.5134,-10.6049,-10.4573,-10.3548,-10.4329,-10.443,-10.4396,-13.6142,-13.5449,-13.4795,-13.3449,-13.1756,-13.2064,-13.1218,-12.9602,-12.8909,-12.7602,-12.5909,-12.6101,-12.5909,-12.5447,-12.5794,-12.614,-12.6486,-12.714,-12.7602,-12.7948,-12.864,-12.9487,-13.0487,-13.0487,-13.0833,-13.1448,-13.1641,-13.1679,-13.1679,-13.1679,-13.1602,-13.1448,-13.1448,-13.141,-13.1115,0.0,0.0,0.0,-12.107,-12.0435,-12.0838,-11.8819,-11.7792,-11.7865,-11.4965,0.0,-11.2836,-11.1919,-11.1552,-11.1882,-11.2029,0.0,0.0,0.0,0.0,0.0,0.0,0.0,0.0,0.0,0.0,0.0,-11.636,-11.625,-11.5773,-11.3974,-11.3534,-11.5002,-11.28,-11.1331,-11.1625,-11.2102,-11.2359,-11.2249,-11.3607,-11.4598,-11.4598,-11.5112,-11.5406,-11.4855,-11.4525,-11.3864,-11.28,-11.2322,-11.2286,-11.2579,-11.1955,-11.1735,-11.2241,-11.2278,-11.1925,-11.1009,-11.2196,-11.2423,-10.9622,-11.0743,-11.0613,-10.8189,-10.8123,-10.8536,-10.7787,-10.6774,-10.6233,-10.5513,-10.6195,-10.6436,-10.6129,-10.5239,-10.4557,-10.4199,-10.244,-10.1453,-10.3348,-10.3314,-10.2908,-13.568,0.0,-13.3987,-13.2679,0.0,-13.1102,-13.0371,-12.9179,-12.9217,-12.7986,-12.6101,-12.6486,-12.6217,-12.5447,-12.6294,-12.6909,-12.7332,-12.8179,-12.8794,-12.9217,-12.964,-13.0294,-13.1064,-13.1102,-13.1295,-13.1679,-13.1679,-13.1679,-13.1679,-13.1679,-13.1679,-13.1679,-13.1295,-13.1102,-13.1,-12.7552,-12.4625,-12.2306,-12.0573,-11.9847,-12.0178,-11.8269,-11.7608,-11.8306,-11.5663,0.0,0.0,0.0,0.0,0.0,0.0,0.0,0.0,-11.4341,0.0,-11.3717,-11.5149,-11.6213,-11.658,-11.7058,-11.658,-11.4965,-11.4782,-11.4488,-11.3681,-11.2506,-11.2139,-11.291,-11.1882,-11.1221,-11.1258,-11.2286,-11.2836,-11.2543,-11.4194,-11.5259,-11.4929,-11.5149,-11.5075,-11.4378,-11.4194,-11.3864,-11.3093,-11.2616,-11.2579,-11.2836,-11.1955,-11.1072,-11.0872,-11.1376,-11.1248,-10.9933,-11.1144,-11.1342,-10.8823,-10.8784,-10.8932,-10.6599,-10.6394,-10.6339,-10.5421,-10.5288,-10.509,-10.4753,-10.4926,-10.5178,-10.556,-10.4987,-10.4275,-10.3498,-10.2271,-10.1135,-10.1538,-10.1352,-10.1386,-13.5127,-13.4318,-13.3432,-13.2122,-13.0582,-13.0736,-13.0239,-12.9448,0.0,0.0,0.0,-12.6755,-12.6294,-12.5717,-12.6678,-12.7486,-12.8179,-12.9179,-13.0025,-13.0679,-13.0718,-13.1064,-13.1679,-13.1679,-13.1679,-13.1679,-13.1679,-13.1679,-13.1679,-13.1679,-13.1602,-13.141,-13.0794,-13.0282,-12.9537,-12.5828,-12.3239,-12.2046,-11.9798,-11.8709,-11.8783,-11.7241,-11.7131,-11.8563,-11.614,-11.5442,-11.669,-11.4708,-11.4194,-11.5479,-11.5553,-11.5553,-11.5553,-11.4818,-11.3791,-11.2543,-11.2396,-11.2726,-11.3534,-11.3717,-11.3717,-11.3607,-11.3313,-11.2616,-11.1295,-11.1478,-11.1515,-11.1221,-11.1221,-11.1221,-11.1221,-11.2653,-11.335,-11.2689,-11.4635,-11.5699,-11.5112,-11.5039,-11.4855,-11.4158,-11.4121,-11.3974,-11.3827,-11.3277,-11.291,-11.3093,-11.2212,-11.0945,-10.9822,-11.0259,-11.0481,-10.9894,-11.0451,-10.9942,-10.7958,-10.7097,-10.626,-10.5063,-10.4733,-10.4039,-10.2932,-10.3371,-10.3815,-10.3402,-10.337,-10.4174,-10.5082,-10.4724,-10.3973,-10.3369,-10.2124,-10.0804,-9.9239,-9.8831,-9.9119,-13.5506,-13.4635,-13.3804,-13.247,-13.0999,-13.1696,-13.1327,-13.0217,-12.8871,-12.8063,-12.7717,-12.6986,-12.6601,-12.6601,-12.814,-12.8909,-12.914,-13.0641,-13.141,-13.1525,-13.1525,-13.1602,-13.1679,-13.1679,-13.1679,-13.1679,-13.1679,-13.1679,-13.1679,-13.1679,-13.1333,-13.0718,-13.0564,-12.9357,-12.707,-12.4887,-12.2976,-12.1305,-12.0057,-11.9774,-12.0471,-11.893,-11.8489,-11.9223,-11.6434,-11.4892,-11.5112,-11.4158,-11.3681,-11.3901,-11.3937,-11.3901,-11.3901,-11.3203,-11.2616,-11.2432,-11.2396,-11.2763,-11.3534,-11.4231,-11.4341,-11.3607,-11.2322,-11.1441,-11.1295,-11.2469,-11.2689,-11.1405,-11.1258,-11.1221,-11.1295,-11.2653,-11.3497,-11.3497,-11.4929,-11.592,-11.5773,-11.5736,-11.5663,-11.5516,-11.5663,-11.5296,-11.4672,-11.4406,-11.3737,-11.291,-11.2286,-11.1829,-11.0892,-10.9916,-10.9869,-11.0444,-10.9916,-10.9185,-10.8215,-10.7558,-10.6371,-10.4841,-10.4723,-10.4253,-10.2131,-10.2597,-10.2974,-10.2499,-10.3302,-10.4313,-10.5056,-10.4227,-10.3317,-10.2742,-10.0338,-9.791,-9.7124,-9.5911,-9.5526,-13.5433,-13.4912,-13.3631,-13.2637,-13.1883,-13.167,-13.0872,-12.9665,-12.7986,-12.7486,-12.7871,-12.7486,-12.7101,-12.6871,-12.8448,-12.9179,-12.9294,-13.091,-13.1679,-13.1679,-13.1679,-13.1679,-13.1679,-13.1679,-13.1679,-13.1679,-13.1679,-13.1679,-13.1679,-13.1679,-13.1295,-13.0487,-12.9563,-12.7962,-12.5739,-12.3971,-12.2181,-12.0326,-11.9394,-11.893,-11.8893,-11.7718,-11.7278,-11.7608,-11.614,-11.5442,-11.5442,-11.5075,-11.4488,-11.3607,-11.357,-11.3387,-11.2946,-11.2176,-11.1955,-11.2359,-11.2396,-11.2579,-11.291,-11.3277,-11.335,-11.2946,-11.2286,-11.1662,-11.1258,-11.2249,-11.2469,-11.1405,-11.1955,-11.2139,-11.1331,-11.2653,-11.357,-11.357,-11.4268,-11.5039,-11.5773,-11.5589,-11.5332,-11.5406,-11.5736,-11.5663,-11.4929,-11.4068,-11.3572,-11.2986,-11.2396,-11.1625,-11.1258,-11.0663,-10.9774,-10.8989,-10.8215,-10.7505,-10.6864,-10.6864,-10.6481,-10.5868,-10.6481,-10.5664,-10.3383,-10.3376,-10.3499,-10.2483,-10.2792,-10.3101,-10.3348,-10.3147,-10.2273,-10.0489,-9.9611,-9.7723,-9.5922,-9.3759,-9.3316,-13.5413,-13.5257,-13.3543,-13.2691,-13.2359,-13.1426,-13.01,-12.8549,-12.7255,-12.6832,-12.7063,-12.7255,-12.7101,-12.6871,-12.8448,-12.9102,-12.9179,-13.0871,-13.1602,-13.1448,-13.1602,-13.1679,-13.1679,-13.1679,-13.1679,-13.1679,-13.1679,-13.1679,-13.1679,-13.1679,-13.1295,-13.0371,-12.8756,-12.6998,-12.5303,-12.3984,-12.2207,-12.0036,-11.926,-11.8416,-11.7241,-11.6397,-11.5993,-11.5993,-11.5993,-11.5993,-11.5993,-11.581,-11.5222,-11.4194,-11.3791,-11.3387,-11.2946,-11.1992,-11.1735,-11.2286,-11.2212,-11.2212,-11.2396,-11.2579,-11.2579,-11.2396,-11.2396,-11.2139,-11.1625,-11.2029,-11.2065,-11.1515,-11.2432,-11.2689,-11.1662,-11.2432,-11.3313,-11.3313,-11.3497,-11.4084,-11.5149,-11.5039,-11.4818,-11.4892,-11.5516,-11.5736,-11.5001,-11.4049,-11.3467,-11.3389,-11.2359,-11.1478,-11.1258,-11.097,-10.9643,-10.8061,-10.7026,-10.6501,-10.5274,-10.5308,-10.5789,-10.6148,-10.6848,-10.5591,-10.3626,-10.3786,-10.4044,-10.2264,-10.1839,-10.1851,-10.1642,-10.1784,-10.1085,-9.9309,-9.8451,-9.7312,-9.413,-9.2138,-9.1396,-13.5749,-13.5508,-13.3869,-13.2546,-13.162,-13.1155,-12.9425,-12.7073,-12.6717,-12.5794,-12.4678,-12.5293,-12.6024,-12.6871,-12.8409,-12.8717,-12.8294,-13.0564,-13.1256,-13.0756,-13.1372,-13.1679,-13.1641,-13.1679,-13.1679,-13.1679,-13.1679,-13.1679,-13.1602,-13.1564,-13.1256,-13.0371,-12.8756,-12.7266,-12.6128,-12.5872,-12.4154,-12.0897,-12.0691,-11.9554,-11.7314,-11.6434,-11.5993,-11.5993,-11.6039,-11.5993,-11.6048,-11.5296,-11.5185,-11.5589,-11.4341,-11.3901,-11.4305,-11.3093,-11.2322,-11.2359,-11.1735,-11.1625,-11.2359,-11.3057,-11.3093,-11.2506,-11.2359,-11.2322,-11.2212,-11.2322,-11.2065,-11.1588,-11.2029,-11.2212,-11.1405,-11.2029,-11.2579,-11.2616,-11.3093,-11.3681,-11.3901,-11.4415,-11.4818,-11.4818,-11.5553,-11.5956,-11.5744,-11.5364,-11.4872,-11.36,-11.2755,-11.1955,-11.1353,-11.0352,-10.9499,-10.8655,-10.7715,-10.6864,-10.6204,-10.435,-10.4229,-10.4748,-10.4449,-10.3684,-10.2638,-10.2271,-10.2266,-10.1574,-10.1019,-10.1067,-10.0965,-10.1017,-10.0133,-9.8818,-9.7343,-9.5396,-9.2209,-9.0501,-9.0323,-13.6112,-13.5953,-13.4276,-13.2757,-13.1475,-13.0254,-12.8286,-12.5933,-12.4832,-12.4062,-12.3485,-12.3755,-12.4678,-12.5986,-12.7178,-12.7755,-12.8025,-12.9525,-13.0064,-12.9833,-13.0602,-13.0987,-13.1025,-13.1487,-13.1679,-13.1679,-13.1679,-13.1448,-13.0871,-12.9987,-12.9794,-13.0179,-12.8294,-12.6616,-12.5601,-12.5495,-12.4191,-12.1717,-12.1698,-12.1244,-12.017,-11.8423,-11.7837,-11.8221,-11.7396,-11.6836,-11.6751,-11.5997,-11.5442,-11.5296,-11.4672,-11.4231,-11.4084,-11.346,-11.2873,-11.2396,-11.1662,-11.1552,-11.2322,-11.2286,-11.2249,-11.2359,-11.1955,-11.1698,-11.1772,-11.2543,-11.2763,-11.2176,-11.2653,-11.28,-11.2065,-11.2212,-11.2396,-11.2359,-11.2286,-11.2543,-11.3497,-11.3864,-11.4231,-11.4782,-11.592,-11.629,-11.5518,-11.4921,-11.4194,-11.3164,-11.2581,-11.2286,-11.1874,-11.0956,-11.0,-10.9136,-10.8418,-10.7346,-10.5924,-10.4664,-10.446,-10.5422,-10.5974,-10.534,-10.4204,-10.3429,-10.2904,-10.0752,-10.0315,-9.9741,-9.8803,-9.9005,-9.8631,-9.7737,-9.6541,-9.4607,-9.2537,-9.1091,-9.0486,-13.5937,-13.5703,-13.414,-13.2429,-13.0658,-12.9218,-12.7065,-12.4773,-12.3408,-12.2793,-12.2562,-12.2524,-12.3332,-12.4716,-12.5832,-12.6563,-12.6986,-12.7986,-12.8525,-12.8602,-12.941,-12.991,-13.0179,-13.0718,-13.1141,-13.1333,-13.1333,-13.1064,-13.0371,-12.9025,-12.9025,-12.9987,-12.8371,-12.7074,-12.6479,-12.6205,-12.5108,-12.3424,-12.3061,-12.3004,-12.2779,-12.1133,-12.0081,-11.9991,-11.8844,-11.7932,-11.7389,-11.6788,-11.6026,-11.5185,-11.4708,-11.4305,-11.3937,-11.3717,-11.3313,-11.2689,-11.1772,-11.1662,-11.2616,-11.1992,-11.1808,-11.2286,-11.1992,-11.1882,-11.2065,-11.291,-11.3497,-11.3534,-11.3497,-11.324,-11.2543,-11.2212,-11.2065,-11.2029,-11.1515,-11.1808,-11.302,-11.3387,-11.4011,-11.5039,-11.6323,-11.6839,-11.5793,-11.5171,-11.4568,-11.3552,-11.2993,-11.2579,-11.2359,-11.1654,-11.0754,-10.9738,-10.9318,-10.7922,-10.5754,-10.5274,-10.5776,-10.6132,-10.6715,-10.6599,-10.592,-10.4384,-10.3121,-10.0505,-9.9817,-9.9098,-9.8365,-9.7991,-9.775,-9.6785,-9.5745,-9.4749,-9.3628,-9.2175,-9.0711,-13.5078,-13.4804,-13.3242,-13.1179,-12.8958,-12.8077,-12.594,-12.3178,-12.287,-12.2408,-12.1754,-12.1639,-12.2177,-12.3139,-12.4639,-12.5024,-12.4639,-12.6101,-12.6832,-12.6948,-12.7678,-12.8486,-12.9217,-12.9294,-12.9756,-13.0487,-13.0525,-13.0525,-13.0448,-12.9563,-12.9602,-13.0371,-12.9448,-12.9315,-12.9379,-12.8648,-12.7646,-12.5835,-12.5015,-12.4738,-12.4866,-12.4097,-12.242,-12.0606,-12.0061,-11.9254,-11.7815,-11.7463,-11.7006,-11.6011,-11.468,-11.4084,-11.4598,-11.4048,-11.3607,-11.3424,-11.2102,-11.1919,-11.3167,-11.2763,-11.2359,-11.2506,-11.2983,-11.3387,-11.324,-11.3534,-11.4194,-11.5553,-11.4341,-11.335,-11.2653,-11.2102,-11.1588,-11.1515,-11.1368,-11.1735,-11.2432,-11.3313,-11.4305,-11.5626,-11.6624,-11.708,-11.7043,-11.7074,-11.6044,-11.4799,-11.3966,-11.324,-11.2469,-11.1735,-11.1169,-11.0754,-10.9869,-10.8504,-10.708,-10.6371,-10.6164,-10.6387,-10.6522,-10.604,-10.4015,-10.2359,-10.1365,-10.0371,-9.9731,-9.9019,-9.8237,-9.7784,-9.7603,-9.6929,-9.6081,-9.5151,-9.4667,-9.2572,-9.102,-13.4375,-13.3281,-13.193,-13.0116,-12.805,-12.6413,-12.4613,-12.2855,-12.1677,-12.137,-12.1447,-12.1023,-12.1254,-12.21,-12.2678,-12.3408,-12.4139,-12.4793,-12.5332,-12.5909,-12.6755,-12.7563,-12.8371,-12.8909,-12.9333,-12.9602,-12.9679,-12.9948,-13.0371,-12.964,-12.964,-13.0217,-12.964,-12.9035,-12.8689,-12.8767,-12.7951,-12.6435,-12.6394,-12.6426,-12.5972,-12.5246,-12.4387,-12.3528,-12.2344,-12.1444,-12.0813,-11.9706,-11.8603,-11.7779,-11.6557,-11.581,-11.5516,-11.4782,-11.4378,-11.4268,-11.335,-11.2983,-11.346,-11.3313,-11.3167,-11.3167,-11.3424,-11.3607,-11.3681,-11.4048,-11.4635,-11.5002,-11.4818,-11.4194,-11.3901,-11.3203,-11.2726,-11.2726,-11.2726,-11.28,-11.3203,-11.3864,-11.4818,-11.5864,-11.677,-11.7411,-11.7607,-11.7147,-11.6077,-11.4965,-11.4084,-11.3313,-11.2506,-11.1735,-11.1221,-11.1177,-11.0754,-11.0269,-10.9822,-10.7767,-10.6742,-10.687,-10.6868,-10.6492,-10.5095,-10.3783,-10.2783,-10.0541,-9.9651,-9.8857,-9.8094,-9.7652,-9.7515,-9.8,-9.7078,-9.6126,-9.5693,-9.3719,-9.188,-13.3632,-13.1992,-13.0763,-12.8769,-12.6392,-12.4848,-12.3358,-12.2047,-12.11,-12.1062,-12.137,-12.0677,-12.0793,-12.1408,-12.1293,-12.21,-12.3601,-12.3716,-12.4178,-12.5063,-12.6178,-12.714,-12.7909,-12.8525,-12.8909,-12.9217,-12.9525,-12.9948,-13.0371,-12.991,-12.9948,-13.041,-12.9871,-12.9436,-12.9084,-12.9246,-12.8641,-12.7865,-12.7937,-12.7811,-12.7304,-12.6888,-12.6486,-12.6066,-12.5016,-12.3787,-12.2791,-12.1743,-12.0645,-11.9623,-11.89,-11.8145,-11.7329,-11.6291,-11.5846,-11.5915,-11.4804,-11.4293,-11.4618,-11.4052,-11.3681,-11.3937,-11.4011,-11.4048,-11.4341,-11.5112,-11.5626,-11.5846,-11.5663,-11.5589,-11.5406,-11.4855,-11.4158,-11.3717,-11.357,-11.3827,-11.4305,-11.4855,-11.5663,-11.6671,-11.7354,-11.7804,-11.7827,-11.7086,-11.6041,-11.4947,-11.4121,-11.3313,-11.2506,-11.1735,-11.1221,-11.1221,-11.1177,-11.1051,-11.0754,-10.9451,-10.8417,-10.8401,-10.7745,-10.7207,-10.6203,-10.5039,-10.3421,-10.112,-9.9566,-9.8714,-9.8103,-9.7625,-9.8047,-9.8879,-9.8256,-9.7133,-9.6224,-9.4979,-9.2905,-13.2773,-13.1093,-12.9861,-12.7231,-12.4213,-12.348,-12.2159,-12.0762,-12.1139,-12.1408,-12.1447,-12.0677,-12.0793,-12.1331,-12.0908,-12.137,-12.2793,-12.3216,-12.3755,-12.4601,-12.6063,-12.7217,-12.8025,-12.814,-12.8563,-12.9217,-13.0064,-13.0448,-13.0487,-13.0487,-13.0564,-13.0564,-13.0564,-13.0731,-13.1538,-13.0605,-13.0279,-12.9978,-12.9323,-12.894,-12.9117,-12.8885,-12.8486,-12.7909,-12.7668,-12.6234,-12.3222,-12.357,-12.2989,-12.1523,-12.1198,-12.0891,-11.981,-11.8455,-11.792,-11.8123,-11.6405,-11.5936,-11.6743,-11.5111,-11.4341,-11.4818,-11.4892,-11.5332,-11.5993,-11.669,-11.7351,-11.7718,-11.7498,-11.7131,-11.7021,-11.636,-11.5332,-11.3974,-11.3901,-11.4451,-11.5442,-11.5956,-11.6544,-11.7792,-11.819,-11.8002,-11.7461,-11.7127,-11.6404,-11.4837,-11.4011,-11.324,-11.2359,-11.1588,-11.1295,-11.1221,-11.1221,-11.1221,-11.1221,-11.1104,-11.0582,-11.0069,-10.9013,-10.8118,-10.6646,-10.5348,-10.3953,-10.1853,-10.0112,-9.9224,-9.8924,-9.8518,-9.85,-9.8965,-9.8317,-9.8078,-9.7232,-9.5978,-9.3577,-13.1875,-13.0117,-12.8151,-12.5648,-12.2997,-12.2371,-12.1375,-12.0369,-12.06,-12.1062,-12.137,-12.0677,-12.0793,-12.1408,-12.1293,-12.1793,-12.2947,-12.4062,-12.5063,-12.5986,-12.7025,-12.7986,-12.8679,-12.8794,-12.8948,-12.9294,-13.0064,-13.0487,-13.0602,-13.1064,-13.1333,-13.1333,-13.1295,-13.1448,-13.1679,-13.1356,-13.1037,-13.0513,-13.0166,-12.9782,-12.9231,-12.9217,-12.9063,-12.8871,-12.8794,-12.8169,-12.7219,-12.5717,-12.431,-12.3225,-12.2483,-12.1757,-12.0962,-11.9908,-11.9492,-11.9463,-11.7792,-11.6793,-11.7193,-11.6638,-11.6112,-11.647,-11.6911,-11.7351,-11.7608,-11.7865,-11.8159,-11.8416,-11.8159,-11.8049,-11.7902,-11.7314,-11.636,-11.5369,-11.5259,-11.5332,-11.5956,-11.6507,-11.7021,-11.7498,-11.8049,-11.7755,-11.6874,-11.6727,-11.5993,-11.3827,-11.3387,-11.3167,-11.1955,-11.1515,-11.1221,-11.1221,-11.1221,-11.1221,-11.1221,-11.1221,-11.0964,-11.045,-10.9643,-10.8688,-10.722,-10.5972,-10.4504,-10.2866,-10.1095,-10.0062,-9.9728,-9.9317,-9.9177,-9.9358,-9.9283,-9.8958,-9.8513,-9.6777,-9.4366,-13.1289,-12.9258,-12.7385,-12.4841,-12.2192,-12.1829,-12.1227,-12.0392,-12.0292,-12.06,-12.0831,-11.9869,-12.0023,-12.0869,-12.0831,-12.1716,-12.3408,-12.5101,-12.6524,-12.7602,-12.8486,-12.9179,-12.9679,-12.9679,-12.9679,-12.9756,-13.0256,-13.0641,-13.0948,-13.141,-13.1679,-13.1679,-13.1679,-13.1679,-13.1679,-13.1679,-13.141,-13.0987,-13.0948,-13.0679,-13.0256,-13.0141,-12.9987,-12.9679,-12.9371,-12.9217,-12.9038,-12.7239,-12.6137,-12.5736,-12.4752,-12.3934,-12.363,-12.2519,-12.1582,-12.1236,-11.9967,-11.8691,-11.8091,-11.7763,-11.7544,-11.7454,-11.7938,-11.8526,-11.8746,-11.8856,-11.893,-11.926,-11.904,-11.8819,-11.8746,-11.8122,-11.7314,-11.6544,-11.6103,-11.614,-11.6434,-11.6911,-11.7168,-11.7241,-11.7131,-11.6544,-11.603,-11.5479,-11.5039,-11.2983,-11.3057,-11.3203,-11.2065,-11.1698,-11.1625,-11.1478,-11.1331,-11.1331,-11.1221,-11.1221,-11.1221,-11.0707,-11.0083,-10.9092,-10.7881,-10.7,-10.5789,-10.3991,-10.222,-10.1411,-10.096,-9.9679,-9.9157,-9.9625,-9.9879,-9.8885,-9.8002,-9.7106,-9.5016,-13.0937,-12.8554,-12.7323,-12.4666,-12.1667,-12.1868,-12.1406,-12.0467,-12.0408,-12.0485,-12.0177,-11.9254,-11.9177,-12.0062,-12.0177,-12.1485,-12.3947,-12.5986,-12.7525,-12.8909,-12.9948,-13.0525,-13.0564,-13.0564,-13.0564,-13.0564,-13.0602,-13.0987,-13.1525,-13.1641,-13.1679,-13.1679,-13.1679,-13.1679,-13.1679,-13.1679,-13.1679,-13.1602,-13.1602,-13.1564,-13.1525,-13.1448,-13.1218,-13.0525,-12.9679,-12.9256,-12.9231,-12.8527,-12.8335,-12.8808,-12.7375,-12.6901,-12.722,-12.5538,-12.4109,-12.3995,-12.2523,-12.071,-11.9344,-11.8944,-11.8435,-11.7748,-11.8342,-11.8819,-11.9554,-11.97,-11.9921,-12.0471,-12.0067,-11.9664,-11.9517,-11.893,-11.8122,-11.7241,-11.6434,-11.6323,-11.6984,-11.7058,-11.6911,-11.669,-11.5773,-11.4745,-11.4672,-11.4121,-11.3424,-11.2689,-11.2873,-11.28,-11.2322,-11.1919,-11.2176,-11.1919,-11.1441,-11.1331,-11.1221,-11.0817,-11.0781,-11.0487,-10.9973,-10.9166,-10.8285,-10.7477,-10.6523,-10.4833,-10.3314,-10.2621,-10.1696,-10.0282,-9.96,-9.9952,-9.9509,-9.8374,-9.7525,-9.6856,-9.5749,-13.039,-12.8476,-12.6698,-12.4277,-12.1803,-12.198,-12.1592,-12.0788,-12.1089,-12.1147,-12.1062,-12.0831,-12.0639,-12.1254,-12.1677,-12.2754,-12.4447,-12.6524,-12.814,-12.9294,-13.0756,-13.1333,-13.1372,-13.1372,-13.1333,-13.1333,-13.1295,-13.1487,-13.1679,-13.1679,-13.1679,-13.1679,-13.1679,-13.1679,-13.1679,-13.1679,-13.1679,-13.1679,-13.1679,-13.1641,-13.1564,-13.1064,-13.1064,-13.1256,-12.9948,-12.9602,-13.0064,-12.9948,-12.9563,-12.9179,-12.8871,-12.864,-12.8717,-12.7025,-12.5909,-12.5542,-12.3715,-12.1893,-12.0849,-12.0451,-11.9942,-11.9191,-11.959,-12.0324,-12.0508,-12.0545,-12.0691,-12.0875,-12.0655,-12.0545,-12.0398,-11.97,-11.8673,-11.7388,-11.647,-11.6103,-11.6287,-11.6287,-11.6103,-11.5516,-11.5039,-11.4305,-11.3534,-11.3277,-11.2946,-11.2065,-11.2176,-11.2579,-11.2065,-11.1808,-11.1919,-11.1625,-11.1258,-11.1258,-11.1074,-11.0597,-11.0267,-11.012,-10.9606,-10.8982,-10.8175,-10.7404,-10.6376,-10.5039,-10.3678,-10.2812,-10.1733,-10.0433,-10.0422,-10.0056,-9.8958,-9.7787,-9.764,-9.712,-9.6093,-13.0195,-12.8437,-12.6543,-12.443,-12.2371,-12.2423,-12.2019,-12.1413,-12.1231,-12.1172,-12.1016,-12.0677,-12.0946,-12.1639,-12.21,-12.3447,-12.5293,-12.7063,-12.8525,-12.9948,-13.1448,-13.1987,-13.1795,-13.1679,-13.1679,-13.1679,-13.1679,-13.1679,-13.1679,-13.1679,-13.1679,-13.1679,-13.1679,-13.1679,-13.1679,-13.1333,-13.1179,-13.1102,-13.091,-13.0794,-13.1102,-13.0371,-13.0718,-13.1064,-13.0141,-12.9602,-13.0371,-13.0794,-13.0756,-13.0294,-12.9987,-12.9871,-13.0064,-12.8294,-12.7101,-12.6654,-12.4532,-12.263,-12.1176,-12.0946,-12.0663,-11.9975,-12.0398,-12.0802,-12.0875,-12.0912,-12.0912,-12.0912,-12.0912,-12.0912,-12.0691,-11.9847,-11.8563,-11.7388,-11.647,-11.603,-11.5993,-11.5699,-11.5332,-11.4892,-11.4451,-11.3864,-11.2543,-11.2616,-11.2139,-11.1662,-11.1955,-11.2065,-11.1919,-11.1735,-11.1588,-11.1478,-11.1184,-11.1074,-11.0744,-11.0267,-10.9569,-10.9386,-10.8872,-10.8321,-10.7807,-10.711,-10.6302,-10.5185,-10.3934,-10.2797,-10.1666,-10.06,-9.9777,-9.9176,-9.8154,-9.7603,-9.7383,-9.7236,-9.621,-13.0234,-12.8554,-12.6758,-12.4946,-12.3469,-12.3203,-12.2911,-12.2356,-12.18,-12.1289,-12.0923,-12.0062,-12.1139,-12.1985,-12.2831,-12.3947,-12.6794,-12.7909,-12.9294,-13.0871,-13.2256,-13.2833,-13.2295,-13.2064,-13.1987,-13.191,-13.1795,-13.1679,-13.1679,-13.1679,-13.1679,-13.1679,-13.1679,-13.1679,-13.1564,-13.0987,-13.0564,-13.0487,-13.0064,-13.0102,-13.0448,-13.0064,-13.0371,-13.1256,-13.0333,-12.9833,-13.0487,-13.1064,-13.1448,-13.1641,-13.1025,-13.0987,-13.1218,-12.9294,-12.7909,-12.6986,-12.5479,-12.3354,-12.12,-12.1427,-12.1047,-12.026,-12.0508,-12.0912,-12.0912,-12.0912,-12.0912,-12.0912,-12.0912,-12.0912,-12.0728,-11.9517,-11.8452,-11.7498,-11.6617,-11.6066,-11.5846,-11.5296,-11.4782,-11.4525,-11.3864,-11.3167,-11.2396,-11.1772,-11.1331,-11.1441,-11.1808,-11.2029,-11.1882,-11.1662,-11.1698,-11.1808,-11.1405,-11.0854,-11.0414,-10.99,-10.9129,-10.8542,-10.7954,-10.7404,-10.7073,-10.6486,-10.5972,-10.5143,-10.4156,-10.2986,-10.1689,-10.0643,-9.9543,-9.8626,-9.7897,-9.7419,-9.7052,-9.6979,-9.6338,-13.0586,-12.9414,-12.6992,-12.5741,-12.5264,-12.4421,-12.4165,-12.4372,-12.3946,-12.3436,-12.3256,-12.3024,-12.3562,-12.4562,-12.5101,-12.6409,-12.7832,-12.9256,-13.0833,-13.2449,-13.3487,-13.391,-13.3564,-13.3141,-13.2718,-13.2526,-13.1987,-13.1718,-13.1679,-13.1679,-13.1679,-13.1679,-13.1679,-13.1679,-13.1564,-13.091,-13.0487,-13.0448,-13.0256,-13.0217,-13.0371,-13.0256,-13.0525,-13.1448,-13.0718,-13.0371,-13.0448,-13.0641,-13.1064,-13.1448,-13.1525,-13.1448,-13.1218,-12.9871,-12.8717,-12.8025,-12.6846,-12.5083,-12.3459,-12.2819,-12.2439,-12.0878,-12.0739,-12.0912,-12.0912,-12.0912,-12.0912,-12.0912,-12.0912,-12.0912,-12.0691,-11.9921,-11.8856,-11.7902,-11.6801,-11.5993,-11.5846,-11.5259,-11.4378,-11.3424,-11.2983,-11.2396,-11.1735,-11.2176,-11.1845,-11.1515,-11.1625,-11.1992,-11.1845,-11.1588,-11.1625,-11.1735,-11.1258,-11.0597,-10.979,-10.9055,-10.7991,-10.7477,-10.6963,-10.6816,-10.6449,-10.6046,-10.5605,-10.5091,-10.4462,-10.3146,-10.1531,-10.0466,-9.9325,-9.8521,-9.7897,-9.7823,-9.764,-9.7236,-9.6867,-13.0468,-12.914,-12.7343,-12.6367,-12.5937,-12.5334,-12.5216,-12.525,-12.4994,-12.4659,-12.4433,-12.4572,-12.5178,-12.6063,-12.6909,-12.7871,-12.9294,-13.0871,-13.2333,-13.3564,-13.4487,-13.5065,-13.5295,-13.4526,-13.3872,-13.3064,-13.2102,-13.1718,-13.1679,-13.1679,-13.1679,-13.1679,-13.1679,-13.1679,-13.1564,-13.091,-13.0525,-13.0371,-13.0064,-13.0064,-13.041,-13.0102,-13.0294,-13.1064,-13.1064,-13.1064,-13.1102,-13.1102,-13.1295,-13.1564,-13.1679,-13.1487,-13.1025,-12.991,-12.8948,-12.7909,-12.6871,-12.5449,-12.4182,-12.3409,-12.2671,-12.1674,-12.1181,-12.0923,-12.0912,-12.0912,-12.0912,-12.0912,-12.0875,-12.0765,-12.0324,-11.9517,-11.8709,-11.7865,-11.6764,-11.592,-11.5479,-11.5039,-11.4561,-11.3717,-11.3717,-11.3203,-11.2873,-11.28,-11.2469,-11.2139,-11.1992,-11.2249,-11.1588,-11.1368,-11.1331,-11.1258,-11.0854,-11.0193,-10.9239,-10.8138,-10.6633,-10.6192,-10.5935,-10.6119,-10.6229,-10.5789,-10.5275,-10.4614,-10.3806,-10.2632,-10.1164,-10.0136,-9.9438,-9.8924,-9.8557,-9.8557,-9.8484,-9.819,-9.786,-13.0195,-12.8515,-12.7656,-12.6875,-12.625,-12.6211,-12.6267,-12.6234,-12.5669,-12.5568,-12.5306,-12.5649,-12.6371,-12.714,-12.7986,-12.9294,-13.091,-13.2333,-13.3603,-13.4487,-13.5334,-13.5949,-13.6219,-13.5603,-13.4718,-13.3333,-13.2449,-13.1987,-13.1718,-13.1679,-13.1679,-13.1679,-13.1679,-13.1679,-13.1525,-13.0948,-13.0487,-13.041,-12.9987,-12.9871,-13.041,-13.0064,-13.0333,-13.0833,-13.1333,-13.1397,-13.1332,-13.1397,-13.159,-13.1512,-13.1628,-13.1256,-13.0525,-12.964,-12.8563,-12.7063,-12.6294,-12.5375,-12.4379,-12.3384,-12.2713,-12.2353,-12.1431,-12.0971,-12.0912,-12.0912,-12.0912,-12.0802,-12.0691,-12.0324,-11.9627,-11.8746,-11.8012,-11.7278,-11.6507,-11.5699,-11.5039,-11.4855,-11.4892,-11.4415,-11.4011,-11.357,-11.357,-11.3497,-11.313,-11.2836,-11.2726,-11.2396,-11.1735,-11.1331,-11.1405,-11.1038,-11.0634,-10.9312,-10.8248,-10.7294,-10.5789,-10.5275,-10.5018,-10.5348,-10.5605,-10.4834,-10.4173,-10.3733,-10.2889,-10.1898,-10.1127,-10.0356,-9.9769,-9.9365,-9.9181,-9.9108,-9.9108,-9.9145,-9.8704,-13.0195,-12.8515,-12.7656,-12.7226,-12.7109,-12.7109,-12.7678,-12.8459,-12.7549,-12.7437,-12.7687,-12.7577,-12.7986,-12.8794,-12.9679,-13.0987,-13.2333,-13.3564,-13.4487,-13.5257,-13.6065,-13.668,-13.6565,-13.6065,-13.5334,-13.4757,-13.3641,-13.2564,-13.1987,-13.1679,-13.2025,-13.1795,-13.1756,-13.1756,-13.1564,-13.0948,-13.0602,-13.0641,-13.0371,-13.0448,-13.0602,-13.091,-13.1102,-13.1372,-13.1602,-13.133,-13.095,-13.1249,-13.1341,-13.0641,-13.1276,-13.1167,-13.0525,-12.9679,-12.8717,-12.7717,-12.6794,-12.5876,-12.4919,-12.4058,-12.3164,-12.239,-12.1431,-12.0923,-12.0912,-12.0838,-12.0691,-12.0545,-12.0178,-11.9737,-11.959,-11.8342,-11.7535,-11.7021,-11.6507,-11.5699,-11.5185,-11.5222,-11.5222,-11.4525,-11.4158,-11.4121,-11.4378,-11.4488,-11.4158,-11.3937,-11.3791,-11.3093,-11.2139,-11.1882,-11.1845,-11.1258,-11.0524,-10.8799,-10.711,-10.6192,-10.5128,-10.4614,-10.443,-10.4541,-10.4467,-10.3586,-10.2999,-10.3439,-10.2925,-10.1934,-10.12,-10.0613,-10.0503,-10.0429,-10.0026,-9.9659,-9.9916,-10.0099,-9.9035,-13.0429,-12.9218,-12.8359,-12.7968,-12.7968,-12.7968,-12.8629,-12.9448,-12.8689,-12.8676,-12.9176,-12.9297,-12.9448,-13.0025,-13.0756,-13.1872,-13.3026,-13.4372,-13.5103,-13.568,-13.6372,-13.6796,-13.6796,-13.6296,-13.5911,-13.5411,-13.4603,-13.3834,-13.3103,-13.3103,-13.2987,-13.2949,-13.2641,-13.2372,-13.2179,-13.1602,-13.1179,-13.1141,-13.1102,-13.1102,-13.1102,-13.1564,-13.1641,-13.1679,-13.1679,-13.146,-13.1249,-13.1303,-13.1512,-13.1183,-13.1421,-13.1192,-13.0525,-12.9679,-12.8794,-12.7986,-12.714,-12.6286,-12.5262,-12.4323,-12.3352,-12.239,-12.1431,-12.0971,-12.0765,-12.0508,-12.0104,-11.9737,-11.9884,-11.9407,-11.8966,-11.7828,-11.7314,-11.7094,-11.6507,-11.5883,-11.5589,-11.5773,-11.5296,-11.4708,-11.4929,-11.5185,-11.5699,-11.5589,-11.5259,-11.5039,-11.4855,-11.3864,-11.2653,-11.2286,-11.2102,-11.1001,-11.0047,-10.8321,-10.667,-10.5715,-10.4798,-10.4247,-10.41,-10.421,-10.4284,-10.3843,-10.399,-10.4394,-10.3476,-10.2155,-10.1788,-10.142,-10.142,-10.1494,-10.1347,-10.12,-10.1237,-10.0907,-9.9659,-13.039,-12.9062,-12.875,-12.8398,-12.8164,-12.8476,-12.9179,-12.9843,-12.9233,-12.9454,-13.0373,-13.043,-13.041,-13.0756,-13.1525,-13.2526,-13.3564,-13.5141,-13.5757,-13.6026,-13.6719,-13.7065,-13.6834,-13.6719,-13.6449,-13.5988,-13.6103,-13.5411,-13.4257,-13.4103,-13.4218,-13.3987,-13.3449,-13.3256,-13.3103,-13.241,-13.2102,-13.191,-13.1718,-13.1679,-13.1679,-13.1679,-13.1679,-13.1679,-13.1679,-13.1603,-13.1222,-13.1538,-13.1486,-13.1368,-13.1435,-13.141,-13.0718,-12.9756,-12.8833,-12.7986,-12.7178,-12.6219,-12.53,-12.4323,-12.3389,-12.239,-12.1431,-12.1018,-12.0691,-12.0178,-11.937,-11.8709,-11.8599,-11.8783,-11.8159,-11.7388,-11.6984,-11.6801,-11.636,-11.5846,-11.5442,-11.5332,-11.5332,-11.5222,-11.5663,-11.5883,-11.6066,-11.6103,-11.5626,-11.5332,-11.5149,-11.4268,-11.313,-11.2506,-11.1992,-11.0671,-10.9386,-10.7734,-10.6413,-10.5495,-10.4724,-10.41,-10.4173,-10.4357,-10.4614,-10.4687,-10.4871,-10.4834,-10.377,-10.2632,-10.2375,-10.2301,-10.2338,-10.2448,-10.2632,-10.2375,-10.1751,-10.0796,-9.9585,-12.9336,-12.6601,-12.8008,-12.7734,-12.6758,-12.8008,-12.957,-13.0742,-12.9554,-12.9855,-13.1296,-13.0778,-13.0564,-13.0987,-13.2218,-13.368,-13.5026,-13.6103,-13.6642,-13.6757,-13.7488,-13.7603,-13.6988,-13.6834,-13.7026,-13.6873,-13.7411,-13.6334,-13.5334,-13.4834,-13.4526,-13.4564,-13.4526,-13.4141,-13.4064,-13.3141,-13.2872,-13.2679,-13.2064,-13.1679,-13.1679,-13.1679,-13.1679,-13.1679,-13.1654,-13.1395,-13.095,-13.1303,-13.1395,-13.0729,-13.1341,-13.1615,-13.1295,-13.0025,-12.8909,-12.7948,-12.7104,-12.6286,-12.5186,-12.4285,-12.3352,-12.239,-12.1431,-12.1018,-12.0581,-12.0031,-11.926,-11.8489,-11.8012,-11.7571,-11.7314,-11.6654,-11.6287,-11.6213,-11.614,-11.5259,-11.4635,-11.5075,-11.5039,-11.4892,-11.5075,-11.5553,-11.5883,-11.5956,-11.5956,-11.5699,-11.5296,-11.4378,-11.346,-11.2653,-11.1698,-11.0377,-10.9386,-10.7844,-10.689,-10.5899,-10.5091,-10.432,-10.4651,-10.4834,-10.4798,-10.5018,-10.4944,-10.4651,-10.3843,-10.366,-10.3733,-10.3696,-10.3439,-10.3182,-10.3072,-10.2448,-10.1641,-10.0576,-9.9438,-12.914,-12.8242,-12.8476,-12.8164,-12.7617,-12.832,-12.9609,-13.0742,-13.0138,-13.0582,-13.1823,-13.1469,-13.141,-13.2064,-13.3218,-13.4372,-13.5603,-13.695,-13.7527,-13.7719,-13.8296,-13.8565,-13.8334,-13.8219,-13.8219,-13.8181,-13.8488,-13.8411,-13.7257,-13.7026,-13.6988,-13.6334,-13.5911,-13.5411,-13.4988,-13.368,-13.3141,-13.2718,-13.2179,-13.1718,-13.1679,-13.1679,-13.1679,-13.1679,-13.1679,-13.1421,-13.1276,-13.1368,-13.1538,-13.1128,-13.1564,-13.1679,-13.1295,-13.0217,-12.8986,-12.8679,-12.7371,-12.6042,-12.4652,-12.4058,-12.3239,-12.2348,-12.1448,-12.0703,-12.0251,-11.9774,-11.8966,-11.7828,-11.7461,-11.7058,-11.6654,-11.6213,-11.6103,-11.5993,-11.592,-11.5259,-11.4561,-11.4635,-11.4818,-11.4635,-11.4598,-11.5185,-11.5699,-11.592,-11.592,-11.5663,-11.5039,-11.4084,-11.3093,-11.2102,-11.1111,-11.001,-10.9166,-10.8248,-10.7551,-10.6743,-10.6009,-10.5532,-10.6119,-10.6046,-10.5311,-10.5201,-10.5385,-10.5825,-10.5862,-10.5642,-10.5348,-10.4871,-10.4467,-10.3917,-10.3403,-10.2705,-10.1934,-10.0356,-9.9181,-12.8867,-12.9179,-12.8554,-12.8164,-12.8047,-12.8593,-12.9804,-13.1054,-13.0753,-13.1321,-13.2255,-13.2285,-13.2487,-13.3449,-13.4449,-13.5526,-13.6334,-13.7911,-13.8411,-13.8758,-13.9104,-13.9412,-13.9181,-13.9181,-13.9181,-13.9335,-13.9488,-13.945,-13.9604,-13.9604,-13.9258,-13.8411,-13.7373,-13.6834,-13.5911,-13.468,-13.368,-13.291,-13.2141,-13.1718,-13.1679,-13.1679,-13.1679,-13.1679,-13.1679,-13.1679,-13.1679,-13.1679,-13.1654,-13.1654,-13.1654,-13.1679,-13.1448,-13.0487,-12.9294,-12.8717,-12.7563,-12.6145,-12.4728,-12.3758,-12.3125,-12.2174,-12.1329,-12.0471,-11.9443,-11.926,-11.8636,-11.7058,-11.6874,-11.6507,-11.6177,-11.603,-11.5993,-11.5883,-11.5736,-11.5222,-11.4708,-11.4415,-11.4268,-11.4194,-11.4341,-11.4965,-11.5479,-11.5846,-11.5846,-11.5589,-11.4818,-11.3791,-11.2763,-11.1662,-11.0928,-11.001,-10.9569,-10.8835,-10.8211,-10.7551,-10.6853,-10.6596,-10.7183,-10.7183,-10.6339,-10.6229,-10.6486,-10.6963,-10.7404,-10.711,-10.6523,-10.5972,-10.5348,-10.4394,-10.3549,-10.3109,-10.2191,-10.0503,-9.9255,-12.8164,-12.7461,-12.7461,-12.707,-12.6601,-12.8828,-13.0351,-13.1328,-13.1338,-13.1814,-13.2566,-13.2826,-13.3295,-13.4334,-13.5642,-13.6873,-13.7873,-13.9642,-13.9681,-13.9681,-13.9989,-14.0065,-13.9873,-13.9681,-13.9527,-13.9681,-14.0181,-14.0489,-14.0643,-14.1027,-14.0412,-13.9335,-13.8411,-13.8065,-13.7142,-13.5642,-13.3949,-13.2987,-13.2025,-13.1718,-13.1679,-13.1679,-13.1679,-13.1679,-13.1679,-13.1679,-13.1679,-13.1679,-13.1679,-13.1679,-13.1679,-13.1679,-13.1487,-13.0564,-12.9487,-12.8563,-12.7794,-12.6284,-12.4728,-12.3649,-12.2696,-12.1629,-12.075,-12.0178,-11.9076,-11.8599,-11.7682,-11.6617,-11.658,-11.6213,-11.603,-11.5993,-11.5993,-11.592,-11.5626,-11.5075,-11.4415,-11.3681,-11.357,-11.3644,-11.3993,-11.4542,-11.5092,-11.5484,-11.5461,-11.5204,-11.4194,-11.313,-11.2286,-11.1295,-11.0891,-11.034,-11.0047,-10.9533,-10.8909,-10.8285,-10.7771,-10.7477,-10.7734,-10.7697,-10.7294,-10.7404,-10.7514,-10.7771,-10.8064,-10.7918,-10.7734,-10.7183,-10.6302,-10.4687,-10.366,-10.3109,-10.2191,-10.065,-9.9695,-12.7617,-12.7343,-12.789,-12.8203,-12.8515,-13.0039,-13.1211,-13.1836,-13.1659,-13.1696,-13.2157,-13.2734,-13.3487,-13.4603,-13.5988,-13.7257,-13.8257,-13.9835,-14.0181,-14.0527,-14.0835,-14.1104,-14.0912,-14.0796,-14.0912,-14.0912,-14.1258,-14.1412,-14.145,-14.1681,-14.1143,-14.0181,-13.9219,-13.8565,-13.7642,-13.5949,-13.4026,-13.2679,-13.1949,-13.1679,-13.1679,-13.1679,-13.1679,-13.1679,-13.1679,-13.1679,-13.1679,-13.1679,-13.1679,-13.1679,-13.1679,-13.1679,-13.1525,-13.0525,-12.9563,-12.864,-12.7948,-12.6399,-12.4775,-12.3535,-12.1912,-12.0065,-11.97,-11.9774,-11.893,-11.8306,-11.7902,-11.7204,-11.647,-11.603,-11.5993,-11.5993,-11.5993,-11.592,-11.5553,-11.4965,-11.4378,-11.3681,-11.3644,-11.4048,-11.3797,-11.3807,-11.4449,-11.5056,-11.4904,-11.4708,-11.3553,-11.2543,-11.1735,-11.1221,-11.0928,-11.0671,-11.0414,-11.0193,-10.9606,-10.9129,-10.8688,-10.8505,-10.8358,-10.8138,-10.8028,-10.8248,-10.8358,-10.8615,-10.8725,-10.8615,-10.8468,-10.8285,-10.7147,-10.5201,-10.3917,-10.2999,-10.1898,-10.087,-10.0356,-12.7695,-12.7812,-12.8906,-12.9414,-12.9687,-13.0976,-13.1873,-13.2234,-13.2021,-13.1956,-13.2166,-13.3218,-13.4218,-13.5334,-13.6796,-13.8065,-13.9142,-14.0335,-14.0835,-14.122,-14.1527,-14.1874,-14.1912,-14.1835,-14.1643,-14.1912,-14.1912,-14.1874,-14.1797,-14.1604,-14.1296,-14.0758,-13.9873,-13.8911,-13.768,-13.5603,-13.3564,-13.2449,-13.1795,-13.1679,-13.1679,-13.1679,-13.1679,-13.1679,-13.1679,-13.1679,-13.1679,-13.1679,-13.1679,-13.1679,-13.1679,-13.1679,-13.1295,-13.0679,-12.9794,-12.8986,-12.8065,-12.672,-12.4927,-12.3296,-12.1446,-12.0002,-11.9847,-11.9811,-11.9076,-11.8159,-11.7828,-11.7241,-11.6507,-11.603,-11.603,-11.5993,-11.5993,-11.592,-11.5479,-11.4965,-11.4635,-11.4121,-11.4341,-11.4598,-11.4272,-11.4097,-11.4703,-11.5343,-11.4779,-11.4434,-11.3305,-11.2359,-11.1588,-11.1221,-11.1184,-11.0964,-11.0781,-11.056,-11.034,-10.9716,-10.9239,-10.9533,-10.9312,-10.8799,-10.8725,-10.8945,-10.9166,-10.9312,-10.9349,-10.9276,-10.8982,-10.8578,-10.7183,-10.5532,-10.4394,-10.3329,-10.3036,-10.2155,-10.1531,-12.8515,-12.8789,-13.0351,-13.0195,-12.9336,-13.1445,-13.2367,-13.2269,-13.2503,-13.2753,-13.3025,-13.4487,-13.5719,-13.6757,-13.8065,-13.9258,-14.0181,-14.122,-14.172,-14.1758,-14.1797,-14.1912,-14.1912,-14.1912,-14.1912,-14.1912,-14.1912,-14.1912,-14.1912,-14.1412,-14.1296,-14.1027,-14.0027,-13.8796,-13.7911,-13.5565,-13.391,-13.2949,-13.2102,-13.1756,-13.1679,-13.1679,-13.1679,-13.191,-13.191,-13.1949,-13.1949,-13.1949,-13.191,-13.1718,-13.1679,-13.1679,-13.1564,-13.1256,-13.041,-12.9256,-12.8948,-12.7205,-12.4333,-12.3051,-12.1722,-12.0434,-12.0031,-11.9921,-11.8893,-11.8232,-11.7975,-11.7535,-11.647,-11.6177,-11.6103,-11.6066,-11.614,-11.625,-11.5883,-11.5553,-11.5332,-11.5332,-11.5663,-11.5304,-11.5011,-11.5057,-11.5534,-11.5717,-11.491,-11.4121,-11.302,-11.2176,-11.1441,-11.1221,-11.1221,-11.1148,-11.0964,-11.0707,-11.045,-11.0083,-10.99,-11.023,-11.0047,-10.9312,-10.9349,-10.9753,-10.9936,-11.001,-10.9863,-10.9716,-10.9239,-10.8725,-10.7294,-10.5935,-10.4798,-10.3917,-10.3733,-10.3403,-10.2669,-12.8437,-12.957,-13.0742,-13.1211,-13.1367,-13.2734,-13.3146,-13.2886,-13.307,-13.3165,-13.3369,-13.4757,-13.5988,-13.7103,-13.8488,-13.9796,-14.0681,-14.1489,-14.1912,-14.1912,-14.1912,-14.1912,-14.1912,-14.1912,-14.1912,-14.1912,-14.1912,-14.1912,-14.1912,-14.1489,-14.1143,-14.0796,-14.0142,-13.8604,-13.7103,-13.5257,-13.3872,-13.2987,-13.2218,-13.1679,-13.1679,-13.1756,-13.1987,-13.2449,-13.2487,-13.2487,-13.2449,-13.241,-13.2141,-13.1756,-13.1679,-13.1641,-13.141,-13.1064,-12.991,-12.8948,-12.8423,-12.645,-12.4492,-12.3202,-12.1922,-12.0635,-11.9884,-11.9921,-11.9223,-11.8636,-11.8342,-11.8012,-11.7168,-11.7131,-11.7498,-11.7058,-11.7058,-11.7608,-11.7425,-11.7058,-11.6874,-11.7094,-11.7158,-11.6216,-11.5719,-11.5409,-11.564,-11.5761,-11.5149,-11.4268,-11.324,-11.2249,-11.1478,-11.1258,-11.1184,-11.1221,-11.1074,-11.0817,-11.045,-10.9863,-10.9569,-10.9716,-10.9643,-10.9312,-10.9643,-11.0377,-11.0524,-11.0487,-11.0304,-11.0047,-10.9092,-10.8211,-10.7551,-10.6486,-10.5385,-10.4541,-10.4247,-10.399,-10.3586,-12.8515,-13.0351,-13.0976,-13.1875,-13.2929,-13.3554,-13.3523,-13.32,-13.3525,-13.3646,-13.3872,-13.5218,-13.6642,-13.7757,-13.8796,-14.0065,-14.0989,-14.1604,-14.1912,-14.1912,-14.1912,-14.1912,-14.1912,-14.1912,-14.1912,-14.1912,-14.195,-14.1989,-14.2335,-14.2027,-14.1681,-14.1143,-14.045,-13.9719,-13.8142,-13.6526,-13.468,-13.3718,-13.2756,-13.2256,-13.2218,-13.2256,-13.2449,-13.2795,-13.2949,-13.2949,-13.2872,-13.2679,-13.2333,-13.1872,-13.1679,-13.1525,-13.1025,-13.041,-12.9333,-12.8563,-12.7464,-12.5899,-12.4702,-12.4249,-12.2873,-12.0976,-12.0262,-11.9884,-11.9664,-11.915,-11.893,-11.8636,-11.8122,-11.8122,-11.8232,-11.7755,-11.7938,-11.8452,-11.8379,-11.8012,-11.7902,-11.8085,-11.8002,-11.7095,-11.6574,-11.6269,-11.5825,-11.5554,-11.5369,-11.4451,-11.3534,-11.2506,-11.1478,-11.1111,-11.0891,-11.0854,-11.056,-11.0047,-10.9679,-10.9312,-10.9166,-10.9202,-10.9312,-10.9423,-11.012,-11.0854,-11.0928,-11.0854,-11.0377,-10.9679,-10.8505,-10.7587,-10.7073,-10.667,-10.6119,-10.5422,-10.4834,-10.4651,-10.4541,-12.8828,-13.1015,-13.1211,-13.2187,-13.3593,-13.3828,-13.3434,-13.2852,-13.3826,-13.4244,-13.4411,-13.5949,-13.7373,-13.8834,-13.9219,-13.9989,-14.1104,-14.1489,-14.1643,-14.172,-14.1643,-14.172,-14.1912,-14.1989,-14.2143,-14.2066,-14.2258,-14.2874,-14.3105,-14.2989,-14.2528,-14.2066,-14.1835,-14.095,-13.9604,-13.7988,-13.6103,-13.4795,-13.3603,-13.3141,-13.3026,-13.3064,-13.3218,-13.3449,-13.3526,-13.341,-13.318,-13.2718,-13.2141,-13.1795,-13.1679,-13.1179,-13.0794,-13.0487,-12.9371,-12.8256,-12.7217,-12.63,-12.5528,-12.5294,-12.4424,-12.2778,-12.1669,-12.0776,-12.0141,-11.9957,-11.9811,-11.9297,-11.8746,-11.8673,-11.8599,-11.8563,-11.8526,-11.8746,-11.8819,-11.8636,-11.8526,-11.8563,-11.8526,-11.8138,-11.7881,-11.7497,-11.6926,-11.6497,-11.5185,-11.4231,-11.3277,-11.2469,-11.1478,-11.056,-11.034,-11.0193,-10.979,-10.9055,-10.8762,-10.8725,-10.8982,-10.9092,-10.9643,-10.9936,-11.0671,-11.1074,-11.1038,-11.0781,-11.0193,-10.9423,-10.8505,-10.7551,-10.667,-10.6376,-10.6449,-10.6156,-10.5532,-10.5752,-10.5678,-12.8828,-13.1133,-13.1211,-13.2187,-13.3711,-13.4186,-13.3683,-13.2942,-13.3804,-13.4334,-13.4411,-13.6065,-13.745,-13.8411,-13.845,-13.9181,-13.9719,-14.0142,-14.0527,-14.0758,-14.1066,-14.1412,-14.1874,-14.2374,-14.2643,-14.2951,-14.3335,-14.3874,-14.4682,-14.4528,-14.4066,-14.3759,-14.3028,-14.2027,-14.0681,-13.9258,-13.7603,-13.6065,-13.4641,-13.4064,-13.391,-13.391,-13.4141,-13.4411,-13.4526,-13.4334,-13.3757,-13.3487,-13.2872,-13.1872,-13.1718,-13.1295,-13.0602,-12.9948,-12.8948,-12.814,-12.7643,-12.7343,-12.689,-12.6268,-12.5489,-12.4522,-12.3331,-12.2355,-12.1683,-12.1242,-12.0948,-12.0361,-11.9847,-11.9847,-11.9957,-11.9921,-11.9957,-12.0067,-12.0104,-11.9957,-11.9884,-11.9884,-11.9811,-11.9076,-11.8783,-11.8159,-11.7645,-11.614,-11.4818,-11.3864,-11.302,-11.2249,-11.1368,-11.0414,-10.9863,-10.9679,-10.9019,-10.8321,-10.8358,-10.8395,-10.8725,-10.9092,-10.9643,-11.023,-11.0817,-11.1111,-11.1038,-11.0597,-10.9863,-10.9312,-10.8725,-10.7844,-10.7037,-10.689,-10.6926,-10.6596,-10.6376,-10.6449,-10.6413,-12.914,-13.1133,-13.1562,-13.2539,-13.375,-13.4312,-13.3977,-13.3525,-13.45,-13.4917,-13.4975,-13.6219,-13.7257,-13.8027,-13.8181,-13.8604,-13.9335,-13.9488,-13.9719,-13.9989,-14.0412,-14.1181,-14.1912,-14.272,-14.322,-14.3682,-14.4182,-14.4643,-14.5605,-14.6028,-14.572,-14.4836,-14.4028,-14.2681,-14.1258,-13.9835,-13.8565,-13.7103,-13.5834,-13.5026,-13.4795,-13.4795,-13.5141,-13.5411,-13.5526,-13.5065,-13.4372,-13.4141,-13.3064,-13.191,-13.1718,-13.1333,-13.0525,-12.9679,-12.9179,-12.8563,-12.8885,-12.8597,-12.8208,-12.807,-12.7043,-12.6038,-12.5143,-12.4254,-12.3297,-12.2674,-12.2307,-12.1866,-12.1499,-12.1242,-12.1352,-12.1499,-12.1646,-12.1793,-12.1646,-12.1462,-12.1462,-12.1499,-12.0875,-12.0031,-11.9333,-11.8599,-11.7461,-11.5846,-11.4525,-11.3717,-11.2946,-11.2176,-11.1148,-11.0083,-10.9533,-10.9276,-10.8431,-10.7587,-10.7844,-10.8285,-10.8872,-10.9312,-10.9679,-11.0267,-11.0891,-11.0854,-11.0524,-11.001,-10.9386,-10.8982,-10.8615,-10.8248,-10.7697,-10.7587,-10.7624,-10.7587,-10.722,-10.6706,-10.6633,-12.9726,-13.1406,-13.2226,-13.3047,-13.3828,-13.4442,-13.451,-13.4304,-13.5594,-13.5939,-13.5706,-13.6411,-13.7219,-13.7719,-13.7796,-13.8142,-13.8565,-13.8719,-13.8988,-13.9296,-13.9989,-14.0873,-14.2104,-14.2835,-14.3797,-14.4297,-14.4797,-14.5451,-14.5913,-14.6413,-14.6567,-14.572,-14.472,-14.3297,-14.1412,-14.0027,-13.8719,-13.745,-13.6411,-13.5603,-13.5603,-13.5603,-13.5603,-13.5642,-13.5565,-13.5257,-13.4372,-13.3564,-13.2679,-13.2025,-13.1602,-13.1295,-13.0525,-12.9717,-12.9294,-12.9487,-12.9833,-12.9998,-12.982,-12.9817,-12.907,-12.819,-12.738,-12.642,-12.5429,-12.3922,-12.3298,-12.2857,-12.238,-12.2307,-12.2417,-12.2453,-12.2564,-12.2637,-12.2527,-12.2343,-12.227,-12.227,-12.1976,-12.1022,-11.9847,-11.9113,-11.7938,-11.636,-11.4525,-11.3681,-11.2873,-11.2102,-11.1148,-11.001,-10.9423,-10.9019,-10.8175,-10.7551,-10.7844,-10.8358,-10.9202,-10.9643,-10.9936,-11.0377,-11.1038,-11.0634,-10.99,-10.9826,-10.9753,-10.8945,-10.8505,-10.8321,-10.8321,-10.8395,-10.8468,-10.8652,-10.8248,-10.7514,-10.7037,-13.0625,-13.2265,-13.3125,-13.3632,-13.3984,-13.5269,-13.5469,-13.5135,-13.6687,-13.6575,-13.5834,-13.6372,-13.6834,-13.695,-13.6988,-13.7219,-13.7373,-13.7642,-13.8219,-13.8873,-13.9565,-14.0873,-14.2566,-14.3489,-14.4489,-14.5336,-14.5913,-14.6182,-14.6451,-14.699,-14.7028,-14.572,-14.472,-14.322,-14.1104,-13.9758,-13.8681,-13.7334,-13.6796,-13.6334,-13.6334,-13.6411,-13.6488,-13.6411,-13.6296,-13.5488,-13.468,-13.4064,-13.2987,-13.2064,-13.1756,-13.1256,-13.0525,-12.9717,-12.964,-13.0064,-13.0525,-13.0987,-13.1452,-13.1406,-13.0806,-13.021,-12.9482,-12.8579,-12.7273,-12.5364,-12.4154,-12.3714,-12.3408,-12.3408,-12.3444,-12.3444,-12.3444,-12.3444,-12.3444,-12.3261,-12.3077,-12.3004,-12.2967,-12.1866,-12.0581,-11.937,-11.8232,-11.6654,-11.4892,-11.3717,-11.291,-11.2102,-11.1295,-11.0304,-10.9606,-10.9092,-10.8211,-10.7771,-10.8064,-10.8615,-10.9496,-11.0047,-11.034,-11.0744,-11.1148,-11.0854,-11.045,-11.0487,-11.0267,-10.9569,-10.9092,-10.8909,-10.8945,-10.9129,-10.9202,-10.9349,-10.9129,-10.8505,-10.7954,-13.1015,-13.207,-13.3281,-13.3789,-13.4023,-13.5195,-13.5613,-13.5685,-13.6378,-13.6361,-13.5838,-13.6026,-13.6065,-13.5795,-13.568,-13.6065,-13.618,-13.6219,-13.6988,-13.7911,-13.9296,-14.0681,-14.222,-14.3835,-14.5143,-14.6067,-14.649,-14.6759,-14.6605,-14.6567,-14.6221,-14.5182,-14.4143,-14.2797,-14.0719,-13.9681,-13.8488,-13.6911,-13.6834,-13.6796,-13.6719,-13.6526,-13.6257,-13.6219,-13.5988,-13.5257,-13.4526,-13.391,-13.3218,-13.2218,-13.1718,-13.1564,-13.1102,-13.0718,-13.0641,-13.1025,-13.1487,-13.1987,-13.2627,-13.2826,-13.2391,-13.1857,-13.1532,-13.0588,-12.9005,-12.7283,-12.6532,-12.5995,-12.4853,-12.4705,-12.4656,-12.4656,-12.4656,-12.4656,-12.4656,-12.4582,-12.4289,-12.4105,-12.3665,-12.2747,-12.1316,-11.9774,-11.8379,-11.6323,-11.4708,-11.3681,-11.291,-11.2102,-11.1295,-11.0707,-11.001,-10.9423,-10.8725,-10.8578,-10.9019,-10.9459,-10.9973,-11.0414,-11.0707,-11.0597,-11.0671,-11.1001,-11.1111,-11.0781,-11.056,-11.0377,-10.9973,-10.9716,-10.99,-11.023,-11.012,-11.001,-10.9753,-10.9496,-10.9055,-13.1367,-13.1758,-13.3281,-13.3945,-13.4062,-13.4843,-13.5409,-13.5749,-13.5591,-13.5558,-13.5547,-13.5355,-13.4898,-13.4526,-13.4372,-13.4911,-13.5372,-13.568,-13.6257,-13.7411,-13.8719,-14.0373,-14.195,-14.3451,-14.4874,-14.5951,-14.6528,-14.6259,-14.5874,-14.5759,-14.5259,-14.4259,-14.3297,-14.222,-14.0758,-13.9604,-13.8488,-13.7219,-13.6796,-13.6796,-13.6449,-13.6026,-13.5834,-13.568,-13.5411,-13.468,-13.4026,-13.368,-13.3449,-13.2756,-13.2102,-13.1795,-13.1602,-13.1372,-13.1641,-13.1872,-13.2295,-13.2872,-13.35,-13.4063,-13.367,-13.3325,-13.3147,-13.2264,-13.0698,-12.9599,-12.8846,-12.7925,-12.6806,-12.5857,-12.5807,-12.5573,-12.5537,-12.5537,-12.5537,-12.5537,-12.5243,-12.4913,-12.4179,-12.3371,-12.1793,-12.0178,-11.8306,-11.625,-11.4782,-11.3754,-11.291,-11.2102,-11.1441,-11.1001,-11.045,-11.0157,-10.979,-10.9826,-10.99,-11.0193,-11.0524,-11.0671,-11.0854,-11.045,-11.0304,-11.0854,-11.1038,-11.0707,-11.0524,-11.0634,-11.0707,-11.0524,-11.0854,-11.1001,-11.0817,-11.056,-11.056,-11.034,-11.0083,-13.2031,-13.3398,-13.4375,-13.4726,-13.4843,-13.5625,-13.5958,-13.5873,-13.6109,-13.5581,-13.4464,-13.4448,-13.4411,-13.4295,-13.4334,-13.4641,-13.4988,-13.5257,-13.6488,-13.7911,-13.8488,-14.0104,-14.1797,-14.3143,-14.4374,-14.5297,-14.5913,-14.5797,-14.5105,-14.472,-14.422,-14.3335,-14.3258,-14.1912,-13.9873,-13.9027,-13.8527,-13.7334,-13.6796,-13.6796,-13.6565,-13.6257,-13.6103,-13.5949,-13.5834,-13.5411,-13.5141,-13.518,-13.468,-13.3949,-13.3064,-13.2487,-13.2102,-13.1987,-13.2295,-13.2795,-13.3218,-13.3987,-13.4641,-13.5218,-13.503,-13.5085,-13.4814,-13.4235,-13.278,-13.1486,-13.0727,-12.9998,-12.8677,-12.7035,-12.6591,-12.588,-12.5647,-12.561,-12.5573,-12.5537,-12.5353,-12.5023,-12.4546,-12.3224,-12.1683,-12.0141,-11.8526,-11.6507,-11.4635,-11.3717,-11.291,-11.2139,-11.1405,-11.1111,-11.0854,-11.0744,-11.056,-11.034,-11.012,-11.0634,-11.0964,-11.1074,-11.1074,-11.0817,-11.0744,-11.0964,-11.1001,-11.0817,-11.0854,-11.1001,-11.1074,-11.1001,-11.1074,-11.1111,-11.1148,-11.1111,-11.1148,-11.1001,-11.0634]},{"header":{"parameterUnit":"m.s-1","parameterCategory":1,"la1":31.0,"la2":29.5877,"lo1":-88.7671,"lo2":-86.6584,"dy":0.0162,"dx":0.0185,"nx":115,"ny":88,"refTime":"2024-04-09T12:00:00:Z","depth":0,"parameterNumber":3,"parameterNumberName":"V-component_of_WINDS"},"data":[0.0,0.0,0.0,0.0,0.0,0.0,0.0,0.0,0.0,0.0,0.0,0.0,0.0,0.0,0.0,0.0,0.0,0.0,0.0,0.0,0.0,0.0,0.0,0.0,0.0,0.0,0.0,0.0,0.0,0.0,0.0,0.0,0.0,0.0,0.0,0.0,0.0,0.0,0.0,0.0,0.0,0.0,0.0,0.0,0.0,0.0,0.0,0.0,0.0,0.0,0.0,0.0,0.0,0.0,0.0,0.0,0.0,0.0,0.0,0.0,0.0,0.0,0.0,0.0,0.0,0.0,0.0,0.0,0.0,0.0,0.0,0.0,0.0,0.0,0.0,0.0,0.0,0.0,0.0,0.0,0.0,0.0,0.0,0.0,0.0,0.0,0.0,0.0,0.0,0.0,0.0,0.0,0.0,0.0,0.0,0.0,0.0,0.0,0.0,0.0,0.0,0.0,0.0,0.0,0.0,0.0,0.0,0.0,0.0,0.0,0.0,0.0,0.0,0.0,0.0,0.0,0.0,0.0,0.0,0.0,0.0,0.0,0.0,0.0,0.0,0.0,0.0,0.0,0.0,0.0,0.0,0.0,0.0,0.0,0.0,0.0,0.0,0.0,0.0,0.0,0.0,0.0,0.0,0.0,0.0,0.0,0.0,0.0,0.0,0.0,0.0,0.0,0.0,0.0,0.0,0.0,0.0,0.0,0.0,0.0,0.0,0.0,0.0,0.0,0.0,0.0,0.0,0.0,0.0,0.0,0.0,0.0,0.0,0.0,0.0,0.0,0.0,0.0,0.0,0.0,0.0,0.0,0.0,0.0,0.0,0.0,0.0,0.0,0.0,0.0,0.0,0.0,0.0,0.0,0.0,0.0,0.0,0.0,0.0,0.0,0.0,0.0,0.0,0.0,0.0,0.0,0.0,0.0,0.0,0.0,0.0,0.0,0.0,0.0,0.0,0.0,0.0,0.0,0.0,0.0,0.0,0.0,0.0,0.0,0.0,0.0,0.0,0.0,0.0,0.0,0.0,0.0,0.0,0.0,0.0,0.0,0.0,0.0,0.0,0.0,0.0,0.0,0.0,0.0,0.0,0.0,0.0,0.0,0.0,0.0,0.0,0.0,0.0,0.0,0.0,0.0,0.0,0.0,0.0,0.0,0.0,0.0,0.0,0.0,0.0,0.0,0.0,0.0,0.0,0.0,0.0,0.0,0.0,0.0,0.0,0.0,0.0,0.0,0.0,0.0,0.0,0.0,0.0,0.0,0.0,0.0,0.0,0.0,0.0,0.0,0.0,0.0,0.0,0.0,0.0,0.0,0.0,0.0,0.0,0.0,0.0,0.0,0.0,0.0,0.0,0.0,0.0,0.0,0.0,0.0,0.0,0.0,0.0,0.0,0.0,0.0,0.0,0.0,0.0,0.0,0.0,0.0,0.0,0.0,0.0,0.0,0.0,0.0,0.0,0.0,0.0,0.0,0.0,0.0,0.0,0.0,0.0,0.0,0.0,0.0,0.0,0.0,0.0,0.0,0.0,0.0,0.0,0.0,0.0,0.0,0.0,0.0,0.0,0.0,0.0,0.0,0.0,0.0,0.0,0.0,0.0,0.0,0.0,0.0,0.0,0.0,0.0,0.0,0.0,0.0,0.0,0.0,0.0,0.0,0.0,0.0,0.0,0.0,0.0,0.0,0.0,0.0,0.0,0.0,0.0,0.0,0.0,0.0,0.0,0.0,0.0,0.0,0.0,0.0,0.0,0.0,0.0,0.0,0.0,0.0,0.0,0.0,0.0,0.0,0.0,0.0,0.0,0.0,0.0,0.0,0.0,0.0,0.0,0.0,0.0,0.0,0.0,0.0,0.0,0.0,0.0,0.0,0.0,0.0,0.0,0.0,0.0,0.0,0.0,0.0,0.0,0.0,0.0,0.0,0.0,0.0,0.0,0.0,0.0,0.0,0.0,0.0,0.0,0.0,0.0,0.0,0.0,0.0,0.0,0.0,0.0,0.0,0.0,0.0,0.0,0.0,0.0,0.0,0.0,0.0,0.0,0.0,0.0,0.0,0.0,0.0,0.0,0.0,0.0,0.0,0.0,0.0,0.0,0.0,0.0,0.0,0.0,0.0,0.0,0.0,0.0,0.0,0.0,0.0,0.0,0.0,0.0,0.0,0.0,0.0,0.0,0.0,0.0,0.0,0.0,0.0,0.0,0.0,0.0,0.0,0.0,0.0,0.0,0.0,0.0,0.0,0.0,0.0,0.0,0.0,0.0,0.0,0.0,0.0,0.0,0.0,0.0,0.0,0.0,0.0,0.0,0.0,0.0,0.0,0.0,0.0,0.0,0.0,0.0,0.0,0.0,0.0,0.0,0.0,0.0,0.0,0.0,0.0,0.0,0.0,0.0,0.0,0.0,0.0,0.0,0.0,0.0,0.0,0.0,0.0,0.0,0.0,0.0,0.0,0.0,0.0,0.0,0.0,0.0,0.0,0.0,0.0,0.0,0.0,0.0,0.0,0.0,0.0,0.0,0.0,0.0,0.0,0.0,0.0,0.0,0.0,0.0,0.0,0.0,0.0,0.0,0.0,0.0,0.0,0.0,0.0,0.0,0.0,0.0,0.0,0.0,0.0,0.0,0.0,0.0,0.0,0.0,0.0,0.0,0.0,0.0,0.0,0.0,0.0,0.0,0.0,0.0,0.0,0.0,0.0,0.0,0.0,0.0,0.0,0.0,0.0,0.0,0.0,0.0,0.0,0.0,0.0,0.0,0.0,0.0,0.0,0.0,0.0,0.0,0.0,0.0,0.0,0.0,0.0,0.0,0.0,0.0,0.0,0.0,0.0,0.0,0.0,0.0,0.0,0.0,0.0,0.0,0.0,0.0,0.0,0.0,0.0,0.0,0.0,0.0,0.0,0.0,0.0,0.0,0.0,0.0,0.0,0.0,0.0,0.0,0.0,0.0,0.0,0.0,0.0,0.0,0.0,0.0,0.0,0.0,0.0,0.0,0.0,0.0,0.0,0.0,0.0,0.0,0.0,0.0,0.0,0.0,0.0,0.0,0.0,0.0,0.0,0.0,0.0,0.0,0.0,0.0,0.0,0.0,0.0,0.0,0.0,0.0,0.0,0.0,0.0,0.0,0.0,0.0,0.0,0.0,0.0,0.0,0.0,0.0,0.0,0.0,0.0,0.0,0.0,0.0,0.0,0.0,0.0,0.0,0.0,0.0,0.0,0.0,0.0,0.0,0.0,0.0,0.0,0.0,0.0,0.0,0.0,0.0,0.0,0.0,0.0,0.0,0.0,0.0,0.0,0.0,0.0,0.0,0.0,0.0,0.0,0.0,0.0,0.0,0.0,0.0,0.0,0.0,0.0,0.0,0.0,0.0,0.0,0.0,0.0,0.0,0.0,0.0,0.0,0.0,0.0,0.0,0.0,0.0,0.0,0.0,0.0,0.0,0.0,0.0,0.0,0.0,0.0,0.0,0.0,0.0,0.0,0.0,0.0,0.0,0.0,0.0,0.0,0.0,0.0,0.0,0.0,0.0,0.0,0.0,0.0,0.0,0.0,0.0,0.0,0.0,0.0,0.0,0.0,0.0,0.0,0.0,0.0,0.0,0.0,0.0,0.0,0.0,0.0,0.0,0.0,0.0,0.0,0.0,0.0,0.0,0.0,0.0,0.0,0.0,0.0,0.0,0.0,0.0,0.0,0.0,0.0,0.0,0.0,0.0,0.0,0.0,0.0,0.0,0.0,0.0,0.0,0.0,0.0,0.0,0.0,0.0,0.0,0.0,0.0,0.0,0.0,0.0,0.0,0.0,0.0,0.0,0.0,0.0,0.0,0.0,0.0,0.0,0.0,0.0,0.0,0.0,0.0,0.0,0.0,0.0,0.0,0.0,0.0,0.0,0.0,0.0,0.0,0.0,0.0,0.0,0.0,0.0,0.0,0.0,0.0,0.0,0.0,0.0,0.0,0.0,0.0,0.0,0.0,0.0,0.0,0.0,0.0,0.0,0.0,0.0,0.0,0.0,0.0,0.0,0.0,0.0,0.0,0.0,0.0,0.0,0.0,0.0,0.0,0.0,0.0,0.0,0.0,0.0,0.0,0.0,0.0,0.0,0.0,0.0,0.0,0.0,0.0,0.0,0.0,0.0,0.0,0.0,0.0,0.0,0.0,0.0,0.0,0.0,0.0,0.0,0.0,0.0,0.0,0.0,0.0,0.0,0.0,0.0,0.0,0.0,0.0,0.0,0.0,0.0,0.0,2.1028,0.0,0.0,0.0,2.0112,0.0,0.0,0.0,0.0,0.0,0.0,0.0,0.0,0.0,0.0,0.0,0.0,0.0,0.0,0.0,0.0,0.0,0.0,0.0,0.0,0.0,0.0,0.0,0.0,0.0,0.0,0.0,0.0,0.0,0.0,0.0,0.0,0.0,0.0,0.0,0.0,0.0,0.0,0.0,0.0,0.0,0.0,0.0,0.0,0.0,0.0,0.0,0.0,0.0,0.0,0.0,0.0,0.0,0.0,0.0,0.0,0.0,0.0,0.0,0.0,0.0,0.0,0.0,0.0,0.0,0.0,0.0,0.0,0.0,0.0,0.0,0.0,0.0,0.0,0.0,0.0,0.0,0.0,0.0,0.0,0.0,0.0,0.0,0.0,0.0,0.0,0.0,0.0,0.0,0.0,0.0,0.0,0.0,0.0,0.0,0.0,0.0,0.0,0.0,0.0,0.0,0.0,0.0,0.0,0.0,0.0,0.0,0.0,0.0,0.0,2.1116,2.0919,2.1211,2.1055,2.0383,0.0,0.0,0.0,0.0,0.0,0.0,0.0,0.0,0.0,0.0,0.0,0.0,0.0,0.0,0.0,0.0,0.0,0.0,0.0,0.0,0.0,0.0,0.0,0.0,0.0,0.0,0.0,0.0,0.0,0.0,0.0,0.0,0.0,0.0,0.0,0.0,0.0,0.0,0.0,0.0,0.0,0.0,0.0,0.0,0.0,0.0,0.0,0.0,0.0,0.0,0.0,0.0,0.0,0.0,0.0,0.0,0.0,0.0,0.0,0.0,0.0,0.0,0.0,0.0,0.0,0.0,0.0,0.0,0.0,0.0,0.0,0.0,0.0,0.0,0.0,0.0,0.0,0.0,0.0,0.0,0.0,0.0,0.0,0.0,0.0,0.0,0.0,0.0,0.0,0.0,0.0,0.0,0.0,0.0,0.0,0.0,0.0,0.0,0.0,0.0,0.0,0.0,0.0,0.0,0.0,0.0,0.0,0.0,0.0,0.0,0.0,0.0,2.1516,2.1353,2.0641,0.0,0.0,0.0,0.0,0.0,0.0,0.0,0.0,0.0,0.0,0.0,0.0,0.0,0.0,0.0,0.0,0.0,0.0,0.0,0.0,0.0,0.0,0.0,0.0,0.0,0.0,0.0,0.0,0.0,0.0,0.0,0.0,0.0,0.0,0.0,0.0,0.0,0.0,0.0,0.0,0.0,0.0,0.0,0.0,0.0,0.0,0.0,0.0,0.0,0.0,0.0,0.0,0.0,0.0,0.0,0.0,0.0,0.0,0.0,0.0,0.0,0.0,0.0,0.0,0.0,0.0,0.0,0.0,0.0,0.0,0.0,0.0,0.0,0.0,0.0,0.0,0.0,0.0,0.0,0.0,0.0,0.0,0.0,0.0,0.0,0.0,0.0,0.0,0.0,0.0,0.0,0.0,0.0,0.0,0.0,0.0,0.0,0.0,0.0,0.0,0.0,0.0,0.0,0.0,0.0,0.0,0.0,0.0,0.0,0.0,2.079,2.1197,2.1129,0.0,2.0187,0.0,0.0,0.0,0.0,0.0,0.0,0.0,0.0,0.0,0.0,0.0,0.0,0.0,0.0,0.0,0.0,0.0,0.0,0.0,0.0,0.0,0.0,0.0,0.0,0.0,0.0,0.0,0.0,0.0,0.0,0.0,0.0,0.0,0.0,0.0,0.0,0.0,0.0,0.0,0.0,0.0,0.0,0.0,0.0,0.0,0.0,0.0,0.0,0.0,0.0,0.0,0.0,0.0,0.0,0.0,0.0,0.0,0.0,0.0,0.0,0.0,0.0,0.0,0.0,0.0,0.0,0.0,0.0,0.0,0.0,0.0,0.0,0.0,0.0,0.0,0.0,0.0,0.0,0.0,0.0,0.0,0.0,0.0,0.0,0.0,0.0,0.0,0.0,0.0,0.0,0.0,0.0,0.0,0.0,0.0,0.0,0.0,0.0,0.0,0.0,0.0,0.0,0.0,0.0,0.0,0.0,0.0,0.0,0.0,0.0,2.1028,2.1211,2.1075,2.0797,0.0,0.0,0.0,0.0,0.0,0.0,0.0,0.0,0.0,0.0,0.0,0.0,0.0,0.0,0.0,0.0,0.0,0.0,0.0,0.0,0.0,0.0,0.0,0.0,0.0,0.0,0.0,0.0,0.0,0.0,0.0,0.0,0.0,0.0,0.0,0.0,0.0,0.0,0.0,0.0,0.0,0.0,0.0,0.0,0.0,0.0,0.0,0.0,0.0,0.0,0.0,0.0,0.0,0.0,0.0,0.0,0.0,0.0,0.0,0.0,0.0,0.0,0.0,0.0,0.0,0.0,0.0,0.0,0.0,0.0,0.0,0.0,0.0,0.0,0.0,0.0,0.0,0.0,0.0,0.0,0.0,0.0,0.0,0.0,0.0,0.0,0.0,0.0,0.0,0.0,0.0,0.0,0.0,0.0,0.0,0.0,0.0,0.0,0.0,0.0,0.0,0.0,0.0,0.0,0.0,0.0,0.0,0.0,0.0,0.0,2.1109,2.1333,2.155,2.1279,2.1034,2.0851,0.0,0.0,0.0,0.0,0.0,0.0,0.0,0.0,0.0,0.0,0.0,0.0,0.0,0.0,0.0,0.0,0.0,0.0,0.0,0.0,0.0,0.0,0.0,0.0,0.0,0.0,0.0,0.0,0.0,0.0,0.0,0.0,0.0,0.0,0.0,0.0,0.0,0.0,0.0,0.0,0.0,0.0,0.0,0.0,0.0,0.0,0.0,0.0,0.0,0.0,0.0,0.0,0.0,0.0,0.0,0.0,0.0,0.0,0.0,0.0,0.0,0.0,0.0,0.0,0.0,0.0,0.0,0.0,0.0,0.0,0.0,0.0,0.0,0.0,0.0,0.0,0.0,0.0,0.0,0.0,0.0,0.0,0.0,0.0,0.0,0.0,0.0,0.0,0.0,0.0,0.0,0.0,0.0,0.0,0.0,0.0,0.0,0.0,0.0,0.0,0.0,0.0,0.0,0.0,0.0,0.0,0.0,0.0,2.1747,2.1414,2.1625,2.2432,2.1801,2.1482,0.0,0.0,0.0,0.0,0.0,0.0,0.0,0.0,0.0,0.0,0.0,0.0,0.0,0.0,0.0,0.0,0.0,0.0,0.0,0.0,0.0,0.0,0.0,0.0,0.0,0.0,0.0,0.0,0.0,0.0,0.0,0.0,0.0,0.0,0.0,0.0,0.0,0.0,0.0,0.0,0.0,0.0,0.0,0.0,0.0,0.0,0.0,0.0,0.0,0.0,0.0,0.0,0.0,0.0,0.0,0.0,0.0,0.0,0.0,0.0,0.0,0.0,0.0,0.0,0.0,0.0,0.0,0.0,0.0,0.0,0.0,0.0,0.0,0.0,0.0,0.0,0.0,0.0,0.0,0.0,0.0,0.0,0.0,0.0,0.0,0.0,0.0,0.0,0.0,0.0,0.0,0.0,0.0,0.0,0.0,0.0,0.0,0.0,0.0,0.0,0.0,0.0,0.0,0.0,0.0,0.0,0.0,0.0,0.0,2.1014,2.1143,2.1692,2.2622,2.1977,2.157,0.0,0.0,0.0,0.0,0.0,0.0,0.0,0.0,0.0,0.0,0.0,0.0,0.0,0.0,0.0,0.0,0.0,0.0,0.0,0.0,0.0,0.0,0.0,0.0,0.0,0.0,0.0,0.0,0.0,0.0,0.0,0.0,0.0,0.0,0.0,0.0,0.0,0.0,0.0,0.0,0.0,0.0,0.0,0.0,0.0,0.0,0.0,0.0,0.0,0.0,0.0,0.0,0.0,0.0,0.0,0.0,0.0,0.0,0.0,0.0,0.0,0.0,0.0,0.0,0.0,0.0,0.0,0.0,0.0,0.0,0.0,0.0,0.0,0.0,0.0,0.0,0.0,0.0,0.0,0.0,0.0,0.0,0.0,0.0,0.0,0.0,0.0,0.0,0.0,0.0,0.0,0.0,0.0,0.0,0.0,0.0,0.0,0.0,0.0,0.0,0.0,0.0,0.0,0.0,0.0,0.0,0.0,0.0,0.0,2.0838,2.1224,2.1842,2.2635,2.2032,2.1625,0.0,0.0,0.0,0.0,0.0,0.0,0.0,0.0,0.0,0.0,0.0,0.0,0.0,0.0,0.0,0.0,0.0,0.0,0.0,0.0,0.0,0.0,0.0,0.0,0.0,0.0,0.0,0.0,0.0,0.0,0.0,0.0,0.0,0.0,0.0,0.0,0.0,0.0,0.0,0.0,0.0,0.0,0.0,0.0,0.0,0.0,0.0,0.0,0.0,0.0,0.0,0.0,0.0,0.0,0.0,0.0,0.0,0.0,0.0,0.0,0.0,0.0,0.0,0.0,0.0,0.0,0.0,0.0,0.0,0.0,0.0,0.0,0.0,0.0,0.0,0.0,0.0,0.0,0.0,0.0,0.0,0.0,0.0,0.0,0.0,0.0,0.0,0.0,0.0,0.0,0.0,0.0,0.0,0.0,0.0,0.0,0.0,0.0,0.0,0.0,0.0,0.0,0.0,0.0,0.0,0.0,0.0,0.0,2.1007,2.1435,2.1699,2.2038,2.2527,2.1991,2.1672,0.0,0.0,0.0,0.0,0.0,0.0,0.0,0.0,0.0,0.0,0.0,0.0,0.0,0.0,0.0,0.0,0.0,0.0,0.0,0.0,0.0,0.0,0.0,0.0,0.0,0.0,0.0,0.0,0.0,0.0,0.0,0.0,0.0,0.0,0.0,0.0,0.0,0.0,0.0,0.0,0.0,0.0,0.0,0.0,0.0,0.0,0.0,0.0,0.0,0.0,0.0,0.0,0.0,0.0,0.0,0.0,0.0,0.0,0.0,0.0,0.0,0.0,0.0,0.0,0.0,0.0,0.0,0.0,0.0,0.0,0.0,0.0,0.0,0.0,0.0,0.0,0.0,0.0,0.0,0.0,0.0,0.0,0.0,0.0,0.0,0.0,0.0,0.0,0.0,0.0,0.0,0.0,0.0,0.0,0.0,0.0,0.0,0.0,0.0,0.0,0.0,0.0,0.0,0.0,0.0,0.0,0.0,0.0,0.0,2.2032,2.134,2.157,2.2771,2.2093,2.1767,0.0,0.0,0.0,0.0,0.0,0.0,0.0,0.0,0.0,0.0,0.0,0.0,0.0,0.0,0.0,0.0,0.0,0.0,0.0,0.0,0.0,0.0,0.0,0.0,0.0,0.0,0.0,0.0,0.0,0.0,0.0,0.0,0.0,0.0,0.0,0.0,0.0,0.0,0.0,0.0,0.0,0.0,0.0,0.0,0.0,0.0,0.0,0.0,0.0,0.0,0.0,0.0,0.0,0.0,0.0,0.0,0.0,0.0,0.0,0.0,0.0,0.0,0.0,0.0,0.0,0.0,0.0,0.0,0.0,0.0,0.0,0.0,0.0,0.0,0.0,0.0,0.0,0.0,0.0,0.0,0.0,0.0,0.0,0.0,0.0,0.0,0.0,0.0,0.0,0.0,0.0,0.0,0.0,0.0,0.0,0.0,0.0,0.0,0.0,0.0,0.0,0.0,0.0,0.0,0.0,0.0,0.0,0.0,0.0,2.2601,2.155,2.1455,2.2486,2.2072,2.1842,2.1855,0.0,0.0,0.0,0.0,0.0,0.0,0.0,0.0,0.0,0.0,0.0,0.0,0.0,0.0,0.0,0.0,0.0,0.0,0.0,0.0,0.0,0.0,0.0,0.0,0.0,0.0,0.0,0.0,0.0,0.0,0.0,0.0,0.0,0.0,0.0,0.0,0.0,0.0,0.0,0.0,0.0,0.0,0.0,0.0,0.0,0.0,0.0,0.0,0.0,0.0,0.0,0.0,0.0,0.0,0.0,0.0,0.0,0.0,0.0,0.0,0.0,0.0,0.0,0.0,0.0,0.0,0.0,0.0,0.0,0.0,0.0,0.0,0.0,0.0,0.0,0.0,0.0,0.0,0.0,0.0,0.0,0.0,0.0,0.0,0.0,0.0,0.0,0.0,0.0,0.0,0.0,0.0,0.0,0.0,0.0,0.0,0.0,0.0,0.0,0.0,0.0,0.0,0.0,0.0,0.0,0.0,0.0,0.0,2.3191,2.2262,2.1781,2.1835,2.2052,2.1957,0.0,0.0,0.0,0.0,0.0,0.0,0.0,0.0,0.0,0.0,0.0,0.0,0.0,0.0,0.0,0.0,0.0,0.0,0.0,0.0,0.0,0.0,0.0,0.0,0.0,0.0,0.0,0.0,0.0,0.0,0.0,0.0,0.0,0.0,0.0,0.0,0.0,0.0,0.0,0.0,0.0,0.0,0.0,0.0,0.0,0.0,0.0,0.0,0.0,0.0,0.0,0.0,0.0,0.0,0.0,0.0,0.0,0.0,0.0,0.0,0.0,0.0,0.0,0.0,0.0,0.0,0.0,0.0,0.0,0.0,0.0,0.0,0.0,0.0,0.0,0.0,0.0,0.0,0.0,0.0,0.0,0.0,0.0,0.0,0.0,0.0,0.0,0.0,0.0,0.0,0.0,0.0,0.0,0.0,0.0,0.0,0.0,0.0,0.0,0.0,0.0,0.0,0.0,0.0,0.0,0.0,0.0,0.0,0.0,2.3035,2.29,2.2974,2.3286,2.2961,2.2669,0.0,0.0,0.0,0.0,0.0,0.0,0.0,0.0,0.0,0.0,0.0,0.0,0.0,0.0,0.0,0.0,0.0,0.0,0.0,0.0,0.0,0.0,0.0,0.0,0.0,0.0,0.0,0.0,0.0,0.0,0.0,0.0,0.0,0.0,0.0,0.0,0.0,0.0,0.0,0.0,0.0,0.0,0.0,0.0,0.0,0.0,0.0,0.0,0.0,0.0,0.0,0.0,0.0,0.0,0.0,0.0,0.0,0.0,0.0,0.0,0.0,0.0,0.0,0.0,0.0,0.0,0.0,0.0,0.0,0.0,0.0,0.0,0.0,0.0,0.0,0.0,0.0,0.0,0.0,0.0,0.0,0.0,0.0,0.0,0.0,0.0,0.0,0.0,0.0,0.0,0.0,0.0,0.0,0.0,0.0,0.0,0.0,0.0,0.0,0.0,0.0,0.0,0.0,0.0,0.0,0.0,0.0,0.0,2.3008,2.3103,2.3612,2.4066,2.4446,2.3944,2.3381,0.0,0.0,0.0,0.0,0.0,0.0,0.0,0.0,0.0,0.0,0.0,0.0,0.0,0.0,0.0,0.0,0.0,0.0,0.0,0.0,0.0,0.0,0.0,0.0,0.0,0.0,0.0,0.0,0.0,0.0,0.0,0.0,0.0,0.0,0.0,0.0,0.0,0.0,0.0,0.0,0.0,0.0,0.0,0.0,0.0,0.0,0.0,0.0,0.0,0.0,0.0,0.0,0.0,0.0,0.0,0.0,0.0,0.0,0.0,0.0,0.0,0.0,0.0,0.0,0.0,0.0,0.0,0.0,0.0,0.0,0.0,0.0,0.0,0.0,0.0,0.0,0.0,0.0,0.0,0.0,0.0,0.0,0.0,0.0,0.0,0.0,0.0,0.0,0.0,0.0,0.0,0.0,0.0,0.0,0.0,0.0,0.0,0.0,0.0,0.0,0.0,0.0,0.0,0.0,0.0,0.0,0.0,0.0,2.3293,2.33,2.4317,2.5016,2.5315,2.4826,2.4161,0.0,0.0,0.0,0.0,0.0,0.0,0.0,0.0,0.0,0.0,0.0,0.0,0.0,0.0,0.0,0.0,0.0,0.0,0.0,0.0,0.0,0.0,0.0,0.0,0.0,0.0,0.0,0.0,0.0,0.0,0.0,0.0,0.0,0.0,0.0,0.0,0.0,0.0,0.0,0.0,0.0,0.0,0.0,0.0,0.0,0.0,0.0,0.0,0.0,0.0,0.0,0.0,0.0,0.0,0.0,0.0,0.0,0.0,0.0,0.0,0.0,0.0,0.0,0.0,0.0,0.0,0.0,0.0,0.0,0.0,0.0,0.0,0.0,0.0,0.0,0.0,0.0,0.0,0.0,0.0,0.0,0.0,0.0,0.0,0.0,0.0,0.0,0.0,0.0,0.0,0.0,0.0,0.0,0.0,0.0,0.0,0.0,0.0,0.0,0.0,0.0,0.0,0.0,0.0,0.0,0.0,0.0,0.0,2.3754,2.3768,2.4779,2.5572,2.6101,2.4996,2.5575,0.0,0.0,0.0,0.0,0.0,0.0,0.0,0.0,0.0,0.0,0.0,0.0,0.0,0.0,0.0,0.0,0.0,0.0,0.0,0.0,0.0,0.0,0.0,0.0,0.0,0.0,0.0,0.0,0.0,0.0,0.0,0.0,0.0,0.0,0.0,0.0,0.0,0.0,0.0,0.0,0.0,0.0,0.0,0.0,0.0,0.0,0.0,0.0,4.2445,0.0,0.0,0.0,0.0,0.0,0.0,0.0,0.0,0.0,0.0,0.0,0.0,0.0,0.0,0.0,0.0,0.0,0.0,0.0,0.0,0.0,0.0,0.0,0.0,0.0,0.0,0.0,0.0,0.0,0.0,0.0,0.0,0.0,0.0,0.0,0.0,0.0,0.0,0.0,0.0,0.0,0.0,0.0,0.0,0.0,0.0,0.0,0.0,0.0,0.0,0.0,0.0,0.0,0.0,0.0,0.0,0.0,0.0,0.0,2.3714,2.4012,2.4955,2.5681,2.6081,2.5043,2.6077,0.0,0.0,0.0,0.0,0.0,0.0,0.0,0.0,0.0,0.0,0.0,0.0,0.0,0.0,0.0,0.0,0.0,0.0,0.0,0.0,0.0,0.0,0.0,0.0,0.0,0.0,0.0,0.0,0.0,0.0,0.0,0.0,0.0,0.0,0.0,0.0,0.0,0.0,0.0,0.0,0.0,0.0,0.0,0.0,0.0,0.0,0.0,0.0,0.0,0.0,0.0,0.0,0.0,0.0,0.0,0.0,0.0,0.0,0.0,0.0,0.0,0.0,0.0,0.0,0.0,0.0,0.0,0.0,0.0,0.0,0.0,0.0,0.0,0.0,0.0,0.0,0.0,0.0,0.0,0.0,0.0,0.0,0.0,0.0,0.0,0.0,0.0,0.0,0.0,0.0,0.0,0.0,0.0,0.0,0.0,0.0,0.0,0.0,0.0,0.0,0.0,0.0,0.0,0.0,0.0,0.0,0.0,2.2846,2.3626,2.4189,2.5023,2.5593,2.5844,2.5023,2.6568,3.0637,0.0,0.0,0.0,0.0,0.0,0.0,0.0,0.0,0.0,0.0,0.0,0.0,0.0,0.0,0.0,0.0,0.0,0.0,0.0,0.0,0.0,0.0,0.0,0.0,0.0,0.0,0.0,0.0,0.0,0.0,0.0,0.0,0.0,0.0,0.0,0.0,0.0,0.0,4.0829,4.3705,0.0,0.0,0.0,0.0,0.0,0.0,0.0,0.0,4.2793,0.0,0.0,0.0,0.0,0.0,0.0,0.0,0.0,0.0,0.0,0.0,0.0,0.0,0.0,0.0,0.0,0.0,0.0,0.0,0.0,0.0,0.0,0.0,0.0,0.0,0.0,0.0,0.0,0.0,0.0,0.0,0.0,0.0,0.0,0.0,0.0,0.0,0.0,0.0,0.0,0.0,0.0,0.0,0.0,0.0,0.0,0.0,0.0,0.0,0.0,0.0,0.0,0.0,0.0,0.0,0.0,2.2608,2.3503,2.4141,2.4494,2.5125,2.5545,2.5694,2.4969,2.7705,3.3784,0.0,0.0,0.0,0.0,0.0,0.0,0.0,0.0,0.0,0.0,0.0,0.0,0.0,0.0,0.0,0.0,0.0,0.0,0.0,0.0,0.0,0.0,0.0,0.0,0.0,0.0,0.0,0.0,0.0,0.0,0.0,0.0,0.0,0.0,0.0,0.0,0.0,0.0,0.0,4.7572,5.0373,0.0,0.0,0.0,0.0,0.0,0.0,0.0,0.0,4.1617,0.0,0.0,0.0,0.0,0.0,0.0,0.0,0.0,0.0,0.0,0.0,0.0,0.0,0.0,0.0,0.0,0.0,0.0,0.0,0.0,0.0,0.0,0.0,0.0,0.0,0.0,0.0,0.0,0.0,0.0,0.0,0.0,0.0,0.0,0.0,0.0,0.0,0.0,0.0,0.0,0.0,0.0,0.0,0.0,0.0,0.0,0.0,0.0,0.0,0.0,0.0,0.0,0.0,0.0,0.0,2.2778,2.313,2.3639,2.4317,2.4847,2.5111,2.5091,2.6014,2.9338,0.0,0.0,0.0,0.0,0.0,0.0,0.0,0.0,0.0,0.0,0.0,0.0,0.0,0.0,0.0,0.0,0.0,0.0,0.0,0.0,0.0,0.0,0.0,0.0,0.0,0.0,0.0,0.0,0.0,0.0,0.0,0.0,0.0,0.0,0.0,0.0,0.0,0.0,0.0,0.0,4.7573,5.0805,4.6812,0.0,0.0,0.0,0.0,0.0,0.0,4.3588,4.1914,0.0,0.0,0.0,0.0,0.0,0.0,0.0,0.0,0.0,0.0,0.0,0.0,0.0,0.0,0.0,0.0,0.0,0.0,0.0,0.0,0.0,0.0,0.0,0.0,0.0,0.0,0.0,0.0,0.0,0.0,0.0,0.0,0.0,0.0,0.0,0.0,0.0,0.0,0.0,0.0,0.0,0.0,0.0,0.0,0.0,0.0,0.0,0.0,0.0,0.0,0.0,0.0,0.0,0.0,0.0,2.2751,2.2751,2.3185,2.4087,2.4501,2.4643,2.4659,2.7127,3.0459,0.0,0.0,0.0,0.0,0.0,0.0,0.0,0.0,0.0,0.0,0.0,0.0,0.0,0.0,0.0,0.0,0.0,0.0,0.0,0.0,0.0,0.0,0.0,0.0,0.0,0.0,0.0,0.0,0.0,0.0,0.0,0.0,0.0,0.0,0.0,0.0,0.0,0.0,0.0,0.0,0.0,4.9925,4.6806,4.959,0.0,0.0,0.0,0.0,4.9124,4.5961,0.0,0.0,0.0,0.0,0.0,0.0,0.0,0.0,0.0,0.0,0.0,0.0,0.0,0.0,0.0,0.0,0.0,0.0,0.0,0.0,0.0,0.0,0.0,0.0,0.0,0.0,0.0,0.0,0.0,0.0,0.0,0.0,0.0,0.0,0.0,0.0,0.0,0.0,0.0,0.0,0.0,0.0,0.0,0.0,0.0,0.0,0.0,0.0,0.0,0.0,0.0,0.0,0.0,0.0,0.0,0.0,2.2778,2.3158,2.3598,2.41,2.4304,2.4392,2.4365,2.6948,3.0398,0.0,0.0,0.0,0.0,0.0,0.0,0.0,0.0,0.0,0.0,0.0,0.0,0.0,0.0,0.0,0.0,0.0,0.0,0.0,0.0,0.0,0.0,0.0,0.0,0.0,0.0,0.0,0.0,0.0,0.0,0.0,0.0,0.0,0.0,0.0,0.0,0.0,0.0,0.0,0.0,0.0,4.9813,5.0452,5.1587,5.2731,0.0,0.0,5.0735,5.1411,5.1587,0.0,0.0,0.0,0.0,0.0,0.0,0.0,0.0,0.0,0.0,0.0,0.0,0.0,0.0,0.0,0.0,0.0,0.0,0.0,0.0,0.0,0.0,0.0,0.0,0.0,0.0,0.0,0.0,0.0,0.0,0.0,0.0,0.0,0.0,0.0,0.0,0.0,0.0,0.0,0.0,0.0,0.0,0.0,0.0,0.0,0.0,0.0,0.0,0.0,0.0,0.0,0.0,0.0,0.0,0.0,2.3356,2.5933,2.6034,2.6344,2.6896,2.708,2.6059,2.3707,2.8146,3.1701,0.0,0.0,0.0,0.0,0.0,0.0,0.0,0.0,0.0,0.0,0.0,0.0,0.0,0.0,0.0,0.0,0.0,0.0,0.0,0.0,0.0,0.0,0.0,0.0,0.0,0.0,0.0,0.0,0.0,0.0,0.0,0.0,0.0,0.0,0.0,0.0,0.0,0.0,0.0,0.0,0.0,0.0,5.0561,5.215,0.0,0.0,0.0,5.2718,5.437,0.0,0.0,0.0,0.0,0.0,0.0,0.0,0.0,0.0,0.0,0.0,0.0,0.0,0.0,0.0,0.0,0.0,0.0,0.0,0.0,0.0,0.0,0.0,0.0,0.0,0.0,0.0,0.0,0.0,0.0,0.0,0.0,0.0,0.0,0.0,0.0,0.0,0.0,0.0,0.0,0.0,0.0,0.0,0.0,0.0,0.0,0.0,0.0,0.0,0.0,0.0,0.0,0.0,0.0,0.0,0.0,0.0,2.8543,2.8216,2.8803,3.0388,2.9659,2.7699,2.471,2.9527,0.0,0.0,0.0,0.0,0.0,0.0,0.0,0.0,0.0,0.0,0.0,0.0,0.0,0.0,0.0,0.0,0.0,0.0,0.0,0.0,0.0,0.0,0.0,0.0,0.0,0.0,0.0,4.2004,0.0,0.0,0.0,0.0,0.0,0.0,0.0,0.0,0.0,0.0,0.0,0.0,0.0,0.0,4.8373,5.0332,5.1491,5.3127,0.0,0.0,5.4697,5.7329,5.5614,5.4604,0.0,0.0,0.0,0.0,0.0,0.0,0.0,0.0,0.0,0.0,0.0,0.0,0.0,0.0,0.0,0.0,0.0,0.0,0.0,0.0,0.0,0.0,0.0,0.0,0.0,0.0,0.0,0.0,2.2486,2.2649,0.0,0.0,0.0,0.0,0.0,0.0,0.0,0.0,0.0,0.0,0.0,0.0,0.0,0.0,0.0,0.0,0.0,0.0,0.0,0.0,0.0,0.0,0.0,0.0,2.4129,2.8394,2.8343,3.0307,3.407,3.0824,2.8663,2.8312,3.0804,3.266,0.0,0.0,0.0,0.0,0.0,0.0,0.0,0.0,0.0,0.0,0.0,0.0,0.0,0.0,0.0,0.0,0.0,0.0,0.0,0.0,0.0,0.0,0.0,0.0,0.0,0.0,0.0,0.0,0.0,0.0,0.0,0.0,0.0,0.0,0.0,0.0,0.0,0.0,0.0,0.0,0.0,4.5418,5.0573,4.9107,5.0338,0.0,5.8223,5.7987,5.9879,6.2628,6.3713,6.1116,0.0,0.0,0.0,0.0,0.0,0.0,0.0,0.0,0.0,0.0,0.0,0.0,0.0,0.0,0.0,0.0,0.0,0.0,0.0,0.0,0.0,0.0,0.0,0.0,0.0,2.1984,2.231,2.254,2.252,0.0,0.0,0.0,0.0,0.0,0.0,0.0,0.0,0.0,0.0,0.0,0.0,0.0,0.0,0.0,0.0,0.0,0.0,0.0,0.0,0.0,0.0,0.0,0.0,2.7383,3.1894,3.358,3.5493,3.7361,3.5796,3.3768,3.1346,3.3791,3.5361,0.0,0.0,0.0,0.0,0.0,0.0,0.0,0.0,0.0,0.0,0.0,0.0,0.0,0.0,0.0,0.0,0.0,0.0,0.0,0.0,0.0,0.0,0.0,0.0,0.0,0.0,0.0,0.0,4.0989,4.0708,4.1069,0.0,0.0,0.0,0.0,0.0,0.0,0.0,0.0,0.0,0.0,4.4247,4.8095,4.7937,0.0,0.0,5.6662,5.8359,5.8272,6.1196,6.2412,5.8687,5.7612,0.0,0.0,0.0,0.0,0.0,0.0,0.0,0.0,0.0,0.0,0.0,0.0,0.0,0.0,0.0,0.0,0.0,0.0,0.0,0.0,0.0,0.0,0.0,0.0,0.0,0.0,2.2737,2.2649,0.0,0.0,0.0,0.0,0.0,0.0,0.0,0.0,0.0,0.0,0.0,0.0,0.0,0.0,0.0,0.0,0.0,0.0,0.0,0.0,0.0,0.0,0.0,0.0,3.0009,3.5668,3.7406,3.9098,4.0711,3.9307,3.7238,3.4556,3.5991,3.6978,0.0,0.0,0.0,0.0,0.0,0.0,0.0,0.0,0.0,0.0,0.0,0.0,0.0,0.0,0.0,0.0,0.0,0.0,0.0,0.0,0.0,0.0,0.0,0.0,0.0,0.0,0.0,0.0,4.1189,4.0935,4.135,0.0,0.0,0.0,0.0,0.0,0.0,0.0,0.0,0.0,0.0,4.3577,4.6143,4.6351,4.7447,5.1003,5.4021,5.6294,5.7481,5.9757,6.0149,5.7246,0.0,0.0,0.0,0.0,0.0,0.0,0.0,0.0,0.0,0.0,0.0,0.0,0.0,0.0,0.0,0.0,0.0,0.0,0.0,0.0,0.0,0.0,0.0,0.0,0.0,0.0,0.0,2.3205,0.0,0.0,2.3015,0.0,0.0,0.0,0.0,0.0,0.0,0.0,0.0,0.0,0.0,0.0,0.0,0.0,0.0,0.0,0.0,0.0,0.0,0.0,0.0,0.0,0.0,3.1363,3.9404,3.8579,4.0045,4.397,4.0208,3.8058,3.7788,3.6931,3.6767,3.7506,0.0,0.0,0.0,0.0,0.0,0.0,0.0,0.0,0.0,0.0,0.0,0.0,0.0,0.0,0.0,0.0,0.0,0.0,0.0,0.0,0.0,0.0,0.0,0.0,0.0,0.0,4.1724,4.1016,4.0548,0.0,0.0,0.0,0.0,0.0,0.0,0.0,0.0,0.0,0.0,4.1684,4.3123,4.5364,4.4107,4.5078,5.1234,5.0641,5.168,5.8414,5.8911,5.8458,0.0,0.0,0.0,0.0,0.0,0.0,0.0,0.0,0.0,0.0,0.0,0.0,0.0,0.0,0.0,0.0,0.0,0.0,0.0,0.0,0.0,0.0,0.0,0.0,0.0,0.0,0.0,2.3219,2.3097,0.0,0.0,0.0,0.0,0.0,0.0,0.0,0.0,0.0,0.0,0.0,2.3212,2.3022,0.0,0.0,0.0,0.0,0.0,0.0,0.0,0.0,0.0,0.0,0.0,0.0,3.3525,3.8856,4.0377,4.1844,4.337,4.1779,4.0775,4.08,4.0045,3.9879,4.0376,0.0,0.0,0.0,0.0,0.0,0.0,0.0,0.0,0.0,0.0,0.0,0.0,0.0,0.0,0.0,0.0,0.0,0.0,0.0,0.0,0.0,0.0,0.0,0.0,0.0,4.1991,0.0,0.0,0.0,0.0,0.0,0.0,0.0,0.0,0.0,0.0,0.0,4.171,4.151,4.1403,4.1667,4.2639,4.2255,4.2582,0.0,0.0,0.0,0.0,0.0,0.0,0.0,0.0,0.0,0.0,0.0,0.0,0.0,0.0,6.2101,6.0444,6.0998,6.1738,6.1738,0.0,0.0,0.0,0.0,0.0,0.0,0.0,0.0,0.0,0.0,0.0,0.0,0.0,0.0,2.3259,2.309,2.3076,0.0,0.0,0.0,0.0,0.0,0.0,0.0,0.0,2.2839,2.2886,2.3205,2.3029,2.3035,0.0,2.3219,2.3219,0.0,0.0,0.0,0.0,0.0,0.0,0.0,0.0,3.4528,3.85,4.1197,4.2605,4.2752,4.2312,4.2018,4.1911,4.1443,4.1189,4.1176,4.1096,4.155,0.0,0.0,0.0,0.0,0.0,0.0,0.0,0.0,0.0,0.0,0.0,0.0,0.0,0.0,0.0,0.0,0.0,0.0,0.0,0.0,0.0,0.0,0.0,4.2432,0.0,0.0,0.0,0.0,0.0,0.0,0.0,0.0,0.0,4.334,4.2285,4.1523,4.1617,4.1216,4.0976,4.1163,0.0,0.0,0.0,0.0,0.0,0.0,0.0,5.3864,5.0499,5.3718,5.4691,4.9258,5.2327,5.6783,6.0761,0.0,0.0,6.2676,6.2187,6.1992,6.1992,6.2207,6.2187,6.1601,6.1133,6.0625,0.0,0.0,0.0,0.0,2.3246,0.0,0.0,0.0,2.3225,2.3225,0.0,2.292,0.0,0.0,0.0,0.0,0.0,2.2628,0.0,0.0,2.2723,2.2805,2.3198,2.3212,2.3219,2.3212,2.3219,2.3219,2.3205,2.3076,0.0,0.0,0.0,0.0,0.0,0.0,3.4506,3.8284,4.0826,4.2218,4.2205,4.1924,4.163,4.1323,4.1042,4.0655,4.0147,4.0869,4.1203,4.1002,4.2539,0.0,0.0,0.0,0.0,0.0,0.0,0.0,0.0,0.0,0.0,0.0,0.0,0.0,0.0,0.0,0.0,0.0,0.0,0.0,0.0,4.2686,0.0,0.0,0.0,0.0,0.0,0.0,0.0,0.0,0.0,0.0,4.298,4.2312,4.167,4.1416,0.0,0.0,0.0,0.0,4.2165,4.2151,4.2886,4.4774,4.8624,4.8194,4.7716,4.8222,0.0,0.0,5.7689,5.8093,5.9124,6.3811,6.4034,6.3965,6.4707,6.4043,6.3515,6.3457,6.2226,6.1211,6.1035,6.0312,5.9355,1.5764,0.0,0.0,0.0,0.0,2.3381,2.3307,2.3083,2.3293,2.3266,2.3069,2.2981,0.0,0.0,0.0,0.0,0.0,0.0,2.2818,2.3008,2.3022,2.3042,2.3076,2.3171,2.3171,2.3076,2.3171,2.3171,2.3069,2.3029,2.3117,2.3314,0.0,0.0,0.0,0.0,3.4248,3.7858,4.0723,4.2124,4.1911,4.1617,4.1229,4.0735,4.0642,4.0615,4.0655,4.0695,4.1082,4.1804,4.1924,0.0,0.0,0.0,0.0,0.0,0.0,0.0,0.0,0.0,0.0,0.0,0.0,0.0,0.0,0.0,0.0,0.0,0.0,0.0,4.4476,4.322,4.2539,0.0,0.0,0.0,0.0,0.0,0.0,0.0,0.0,0.0,4.2739,4.2018,4.159,0.0,0.0,4.1069,4.147,4.139,4.1283,4.1283,4.167,0.0,4.6473,4.7452,4.7617,4.7103,4.6427,4.7312,5.1565,5.4108,5.6858,6.0668,6.2844,6.4219,6.4355,6.3535,6.2715,6.2324,6.1855,6.1543,6.1484,6.0996,6.0508,1.9764,1.9856,2.2375,2.3456,2.3422,2.3565,2.3456,2.3191,2.3375,2.3286,2.3002,2.2879,2.2778,2.2676,2.2445,0.0,0.0,0.0,2.269,2.2832,2.292,2.2974,2.3015,2.3097,2.3097,2.3029,2.328,2.3293,2.3097,2.3219,2.33,2.3341,0.0,0.0,2.6174,3.0314,3.3471,3.5655,3.9969,4.2071,4.179,4.139,4.0949,4.0495,4.0481,4.0561,4.0735,4.0682,4.0922,4.1497,4.163,4.1831,0.0,0.0,0.0,0.0,0.0,0.0,0.0,0.0,0.0,0.0,0.0,4.2352,4.2886,0.0,0.0,0.0,4.2592,4.3167,4.3688,4.2605,0.0,0.0,0.0,0.0,0.0,0.0,0.0,4.3153,4.2565,4.2138,4.2124,4.167,4.1523,4.1991,4.1283,4.0909,4.1376,0.0,4.0949,4.1069,4.1323,4.2158,4.4211,4.6284,4.7482,4.7113,4.4979,4.5436,5.0504,5.32,5.6129,6.0467,6.3224,6.4453,6.414,6.3418,6.2832,6.2539,6.2207,6.1992,6.1973,6.1777,6.1543,2.3463,2.349,2.3761,2.3788,2.368,2.3802,2.3693,2.3436,2.3415,2.3266,2.2988,2.2676,2.252,2.2493,2.2378,0.0,2.2303,2.233,2.2411,2.254,2.2561,2.2723,2.2988,2.3002,2.3008,2.3015,2.3442,2.3503,2.3239,2.3503,2.3497,2.3205,2.2934,2.2656,2.2634,2.9043,3.234,3.2211,3.8778,4.2138,4.1831,4.1243,4.0815,4.0521,4.0508,4.0508,4.0521,4.0748,4.0762,4.0561,4.151,4.1844,4.135,0.0,0.0,0.0,0.0,0.0,0.0,0.0,0.0,0.0,0.0,0.0,0.0,0.0,0.0,4.1831,4.1456,0.0,4.147,4.1403,0.0,0.0,0.0,4.2458,4.2913,4.2298,4.2044,4.2499,0.0,0.0,4.131,4.131,4.1416,4.171,4.1056,4.0655,4.0962,4.1002,4.1042,4.1296,4.159,4.1884,4.2476,4.4653,4.6828,4.7598,4.5176,4.5459,5.116,5.384,5.6655,6.1551,6.3985,6.4512,6.3711,6.3457,6.3515,6.334,6.2773,6.2285,6.2246,6.2129,6.1894,2.3626,2.3632,2.37,2.3639,2.351,2.3537,2.3449,2.3273,2.3158,2.3076,2.2981,2.2574,2.2262,2.2045,2.2127,2.2099,2.1998,2.2235,2.2357,2.2405,2.2622,2.2771,2.2839,2.2961,2.3008,2.3029,2.3225,2.3293,2.3225,2.3293,2.3239,2.3063,2.2988,2.2805,2.2778,2.9116,3.2534,3.2423,3.9348,4.2646,4.2111,4.1537,4.1109,4.0815,4.0802,4.0802,4.0802,4.0655,4.0655,4.0788,4.0869,4.0829,4.0708,4.2218,0.0,0.0,0.0,0.0,0.0,0.0,0.0,0.0,0.0,4.2605,4.3273,0.0,4.2873,0.0,4.0976,4.1216,4.2539,4.1871,0.0,0.0,4.2405,4.2579,4.1844,4.2165,4.2258,4.171,4.147,4.1256,4.1042,4.1016,4.1122,4.1403,4.1269,4.1323,4.1804,4.151,4.1256,4.1336,4.1577,4.1884,4.2377,4.2836,4.4544,4.7168,4.4797,4.3175,4.5149,4.9686,5.3651,5.5407,5.9943,6.2744,6.2754,6.2422,6.207,6.1816,6.1777,6.1855,6.1855,6.1367,6.0879,2.3775,2.3775,2.3775,2.3612,2.3361,2.349,2.3422,2.3219,2.3137,2.2995,2.2778,2.2337,2.2079,2.1977,2.1937,2.1943,2.1998,2.216,2.231,2.2445,2.2608,2.2757,2.2886,2.2974,2.3008,2.3015,2.3151,2.3219,2.3219,2.3219,2.3151,2.3015,2.3008,2.2893,2.2929,2.9304,3.2704,3.2805,3.9439,4.2686,4.2231,4.1777,4.1523,4.1483,4.1109,4.1029,4.1283,4.0895,4.0869,4.1269,4.1269,4.1189,4.1082,4.1978,4.2218,0.0,0.0,0.0,0.0,0.0,0.0,0.0,0.0,0.0,0.0,0.0,4.2525,4.1978,4.1042,4.0976,4.2205,4.1617,4.1163,4.1203,4.1871,4.2058,4.1403,4.1777,4.1937,4.1577,4.131,4.1136,4.1096,4.0882,4.0882,4.1283,4.1229,4.1269,4.1537,4.1336,4.1149,4.1149,4.1403,4.2848,4.5452,4.4863,4.5525,4.9671,4.8248,4.6498,4.8126,5.1571,5.456,5.5994,5.9428,6.1542,5.9889,6.0477,6.0708,5.9339,5.986,6.0822,6.1094,6.0762,6.0449,2.391,2.389,2.3877,2.3619,2.3246,2.351,2.3449,2.3164,2.3144,2.2893,2.2472,2.2099,2.2004,2.2093,2.1862,2.1896,2.2133,2.216,2.231,2.2547,2.2574,2.273,2.3008,2.3008,2.3022,2.3042,2.3164,2.3219,2.3219,2.3219,2.3158,2.3042,2.3035,2.2968,2.3108,2.9103,3.277,3.3988,3.9872,4.2726,4.2499,4.2151,4.2071,4.2285,4.1443,4.1176,4.163,4.1149,4.1082,4.159,4.1857,4.1884,4.163,4.1724,4.179,0.0,4.1924,0.0,0.0,0.0,0.0,0.0,0.0,0.0,0.0,4.1737,4.1924,4.2499,4.1283,4.0682,4.1176,4.1029,4.0815,4.0588,4.1056,4.139,4.139,4.143,4.1537,4.1764,4.1336,4.1109,4.1216,4.0842,4.0735,4.1163,4.1029,4.0895,4.0922,4.0935,4.1045,4.1263,4.1396,4.3312,4.8461,4.7433,4.7297,5.3282,5.1779,5.1255,5.3718,5.5175,5.6708,5.8843,5.9687,5.932,5.6263,5.7963,5.8577,5.6239,5.7817,5.9633,6.0234,6.0293,6.0273,2.4005,2.3883,2.3768,2.3531,2.3232,2.3286,2.3137,2.2852,2.273,2.25,2.2201,2.2235,2.2201,2.212,2.2181,2.2242,2.2303,2.2418,2.25,2.2561,2.2683,2.2832,2.3008,2.3008,2.3069,2.3178,2.3212,2.3219,2.3219,2.3219,2.3205,2.3178,2.3178,2.3171,2.3267,0.0,0.0,0.0,4.1688,4.3835,4.3982,4.3247,4.2873,4.2899,4.1844,0.0,4.1069,4.0735,4.0601,4.0722,4.0775,0.0,0.0,0.0,0.0,0.0,0.0,0.0,0.0,0.0,0.0,0.0,4.2352,4.2312,4.2138,4.1483,4.1323,4.1857,4.1056,4.0521,4.0628,4.0802,4.0895,4.0855,4.135,4.171,4.171,4.1897,4.2004,4.1804,4.1684,4.1443,4.1056,4.0882,4.0869,4.0976,4.0748,4.0668,4.0991,4.1005,4.1847,4.4008,4.2787,4.3719,4.9957,4.6013,4.5817,5.2184,5.0132,4.8181,5.1123,5.3818,5.5301,5.625,5.6465,5.6593,5.5247,5.5516,5.5302,5.4387,5.6346,5.8574,5.9668,5.9648,5.9414,2.3924,0.0,2.3626,2.3395,0.0,2.3117,2.2988,2.2778,2.2784,2.2567,2.2235,2.2303,2.2255,2.212,2.2269,2.2378,2.2452,2.2601,2.271,2.2784,2.2859,2.2974,2.311,2.3117,2.3151,2.3219,2.3219,2.3219,2.3219,2.3219,2.3219,2.3219,2.3151,2.3117,2.3246,2.7986,3.3248,3.8563,4.1811,4.3621,4.3741,4.3046,4.2806,4.306,4.2098,0.0,0.0,0.0,0.0,0.0,0.0,0.0,0.0,4.1617,0.0,4.139,4.1911,4.2298,4.2432,4.2605,4.2432,4.1844,4.1777,4.167,4.1376,4.0949,4.0815,4.1096,4.0722,4.0481,4.0495,4.0869,4.1069,4.0962,4.1563,4.1951,4.1831,4.1911,4.1884,4.163,4.1563,4.1443,4.1163,4.0989,4.0976,4.1069,4.0748,4.1114,4.2421,4.1642,4.1871,4.4695,4.2803,4.3159,4.8593,4.8008,4.7083,5.2858,5.2036,5.1435,5.415,5.4664,5.4706,5.4676,5.4767,5.4025,5.035,5.064,5.1564,5.1461,5.3523,5.6204,5.8034,5.8515,5.8535,2.2764,2.2628,2.2479,2.2258,2.1998,2.2024,2.2379,2.2825,0.0,0.0,0.0,2.235,2.2269,2.2167,2.2337,2.2479,2.2601,2.2778,2.2927,2.3042,2.3049,2.311,2.3219,2.3219,2.3219,2.3219,2.3219,2.3219,2.3219,2.3219,2.3205,2.3171,2.3063,2.3265,2.4301,2.9918,3.4757,3.8481,4.1542,4.3207,4.3233,4.2672,4.2632,4.3153,4.2271,4.2018,4.2472,4.175,4.1563,4.2031,4.2058,4.2058,4.2058,4.179,4.1416,4.0962,4.0909,4.1029,4.1323,4.139,4.139,4.135,4.1243,4.0989,4.0508,4.0575,4.0588,4.0481,4.0481,4.0481,4.0481,4.1002,4.1256,4.1016,4.1724,4.2111,4.1897,4.1871,4.1804,4.155,4.1537,4.1483,4.143,4.1229,4.1096,4.1163,4.0842,4.1343,4.3398,4.2601,4.2133,4.3427,4.2537,4.3307,4.7362,4.9372,5.0968,5.3821,5.4376,5.561,5.7792,5.7005,5.5199,5.3971,5.3525,5.0528,4.5555,4.608,4.7657,4.7381,5.0362,5.3457,5.5434,5.663,5.7226,1.8743,1.8772,1.8507,1.8176,1.7974,1.8069,2.0067,2.2961,2.2723,2.2581,2.252,2.2391,2.2323,2.2323,2.2595,2.273,2.2771,2.3035,2.3171,2.3191,2.3191,2.3205,2.3219,2.3219,2.3219,2.3219,2.3219,2.3219,2.3219,2.3219,2.3158,2.3049,2.3022,2.4413,2.7444,3.1138,3.4828,3.8102,4.1632,4.3594,4.3848,4.3287,4.3127,4.3394,4.2378,4.1817,4.1897,4.155,4.1376,4.1456,4.147,4.1456,4.1456,4.1203,4.0989,4.0922,4.0909,4.1042,4.1323,4.1577,4.1617,4.135,4.0882,4.0561,4.0508,4.0935,4.1016,4.0548,4.0495,4.0481,4.0508,4.1002,4.131,4.131,4.1831,4.2191,4.2138,4.2124,4.2098,4.2044,4.2098,4.1964,4.1737,4.1782,4.1678,4.1096,4.0869,4.0979,4.1599,4.3159,4.3279,4.2119,4.3159,4.4669,4.6773,4.8169,5.0736,5.3997,5.4225,5.4705,5.7783,5.7751,5.6347,5.3927,5.1504,4.8227,4.4323,4.3572,4.3722,4.3876,4.7322,5.0562,5.1642,5.3301,5.5013,1.4533,1.4626,1.4487,1.4233,1.4298,1.6459,1.9413,2.2718,2.2567,2.2479,2.2547,2.2479,2.2411,2.2371,2.2649,2.2778,2.2798,2.3083,2.3219,2.3219,2.3219,2.3219,2.3219,2.3219,2.3219,2.3219,2.3219,2.3219,2.3219,2.3219,2.3151,2.3008,2.2846,2.5453,3.0623,3.2205,3.5613,4.0845,4.2573,4.3287,4.3273,4.2846,4.2686,4.2806,4.2271,4.2018,4.2018,4.1884,4.167,4.135,4.1336,4.1269,4.1109,4.0829,4.0748,4.0895,4.0909,4.0976,4.1096,4.1229,4.1256,4.1109,4.0869,4.0642,4.0495,4.0855,4.0935,4.0548,4.0748,4.0815,4.0521,4.1002,4.1336,4.1336,4.159,4.1871,4.2138,4.2071,4.1978,4.2004,4.2124,4.2098,4.1831,4.3359,4.3454,4.1683,4.0909,4.0628,4.0495,4.1651,4.3518,4.5145,4.6773,4.8287,4.969,4.969,5.0504,5.1778,5.0504,5.1393,5.4681,5.5111,5.302,5.0957,4.9167,4.6173,4.1493,3.9982,4.0286,4.1881,4.3441,4.6089,4.8875,5.1704,5.3605,1.0509,1.0497,1.0364,1.0734,1.1871,1.5555,1.9298,2.2522,2.2439,2.2364,2.2405,2.2439,2.2411,2.2371,2.2649,2.2764,2.2778,2.3076,2.3205,2.3178,2.3205,2.3219,2.3219,2.3219,2.3219,2.3219,2.3219,2.3219,2.3219,2.3219,2.3151,2.2988,2.2703,2.6271,3.3282,3.3076,3.649,4.3097,4.3407,4.31,4.2672,4.2365,4.2218,4.2218,4.2218,4.2218,4.2218,4.2151,4.1937,4.1563,4.1416,4.1269,4.1109,4.0762,4.0668,4.0869,4.0842,4.0842,4.0909,4.0976,4.0976,4.0909,4.0909,4.0815,4.0628,4.0775,4.0788,4.0588,4.0922,4.1016,4.0642,4.0922,4.1243,4.1243,4.131,4.1523,4.1911,4.1871,4.179,4.1817,4.2044,4.2124,4.2426,4.4065,4.4268,4.1831,4.0895,4.0575,4.0495,4.0939,4.3743,4.7127,4.934,5.0371,5.3062,5.308,5.2026,5.12,4.9258,5.0647,5.3371,5.2455,4.9626,4.864,4.7894,4.4948,3.889,3.7172,3.8046,3.9495,4.078,4.2945,4.7832,5.0679,5.2635,0.6372,0.6509,0.643,0.8397,1.1805,1.5523,1.9054,2.2121,2.2344,2.2181,2.1984,2.2093,2.2221,2.2371,2.2642,2.2696,2.2622,2.3022,2.3144,2.3056,2.3164,2.3219,2.3212,2.3219,2.3219,2.3219,2.3219,2.3219,2.3205,2.3198,2.3144,2.2988,2.2703,2.6327,3.2913,3.3727,3.7071,4.3705,4.3928,4.3514,4.2699,4.2378,4.2218,4.2218,4.2091,4.2218,4.1952,4.1964,4.1924,4.2071,4.1617,4.1456,4.1603,4.1163,4.0882,4.0895,4.0668,4.0628,4.0895,4.1149,4.1163,4.0949,4.0895,4.0882,4.0842,4.0882,4.0788,4.0615,4.0775,4.0842,4.0548,4.0775,4.0976,4.0989,4.1163,4.1376,4.1456,4.1644,4.179,4.179,4.2058,4.2205,4.2557,4.3133,4.2663,4.205,4.1179,4.0748,4.0804,4.236,4.4102,4.5842,4.7817,4.969,5.1084,5.5192,5.542,5.4093,5.322,5.3258,5.4,5.3523,5.1826,4.7906,4.6972,4.4208,3.9771,3.6767,3.6569,3.7193,3.8836,4.1479,4.6351,4.9522,5.1363,0.2376,0.2521,0.2344,0.5941,1.1214,1.2972,1.6747,2.2064,2.2011,2.1876,2.1774,2.1821,2.1984,2.2215,2.2425,2.2527,2.2574,2.2839,2.2934,2.2893,2.3029,2.3097,2.3103,2.3185,2.3219,2.3219,2.3219,2.3178,2.3076,2.292,2.2886,2.2954,2.2622,2.6192,3.2921,3.3626,3.7082,4.3851,4.1904,4.0568,4.0208,3.9767,3.843,3.6709,3.8144,3.9093,3.9348,4.0934,4.2018,4.1964,4.1737,4.1577,4.1523,4.1296,4.1082,4.0909,4.0642,4.0601,4.0882,4.0869,4.0855,4.0895,4.0748,4.0655,4.0682,4.0962,4.1042,4.0829,4.1002,4.1056,4.0788,4.0842,4.0909,4.0895,4.0869,4.0962,4.131,4.1443,4.1577,4.1777,4.2191,4.3334,4.4922,4.5269,4.4982,4.4292,4.2653,4.0869,4.0857,4.1761,4.3053,4.4788,4.63,4.8638,5.1663,5.434,5.4814,5.2418,4.984,4.9261,4.9563,4.8643,4.6896,4.6714,4.5321,4.324,3.9919,3.714,3.5899,3.6178,3.7785,4.0646,4.4262,4.7167,4.9386,0.0,0.0,0.0,0.4335,1.1144,1.1021,1.518,2.144,2.176,2.1652,2.1611,2.1604,2.1747,2.1991,2.2188,2.2316,2.2391,2.2567,2.2662,2.2676,2.2818,2.2907,2.2954,2.3049,2.3124,2.3158,2.3158,2.311,2.2988,2.2751,2.2751,2.292,2.2635,2.5709,3.1535,3.308,3.6318,4.0699,3.954,3.79,3.5932,3.502,3.3866,3.2432,3.4359,3.6055,3.7013,3.936,4.1087,4.1924,4.175,4.1603,4.147,4.139,4.1243,4.1016,4.0682,4.0642,4.0989,4.0762,4.0695,4.0869,4.0762,4.0722,4.0788,4.1096,4.131,4.1323,4.131,4.1216,4.0962,4.0842,4.0788,4.0775,4.0588,4.0695,4.1136,4.1269,4.1497,4.1871,4.2338,4.3539,4.5612,4.5803,4.5418,4.4586,4.2668,4.0976,4.0895,4.0777,4.1409,4.3504,4.4445,4.7347,5.2009,5.3062,5.1876,5.0055,4.7373,4.5386,4.4688,4.4308,4.2978,4.4223,4.237,4.0542,3.8376,3.6394,3.5578,3.5826,3.7353,3.961,4.1808,4.4832,4.7725,0.0,0.0,0.0,0.4294,1.0857,1.1065,1.5045,2.172,2.1665,2.1584,2.1469,2.1448,2.1543,2.1713,2.1977,2.2045,2.1977,2.2235,2.2364,2.2384,2.2513,2.2656,2.2784,2.2798,2.2879,2.3008,2.3015,2.3015,2.3002,2.2846,2.2852,2.2988,2.2825,2.4844,2.9127,3.2523,3.4352,3.5193,3.7328,3.5768,2.9402,2.8223,2.939,3.1331,3.217,3.3633,3.6301,3.7036,3.8583,4.1938,4.1599,4.1523,4.171,4.151,4.135,4.1283,4.0802,4.0735,4.1189,4.1042,4.0895,4.0949,4.1122,4.1269,4.1216,4.1323,4.1563,4.2058,4.1617,4.1256,4.1002,4.0802,4.0615,4.0588,4.0535,4.0668,4.0922,4.1243,4.1603,4.2084,4.288,4.3338,4.3325,4.2901,4.3099,4.2636,4.1621,4.1216,4.0935,4.0668,4.0737,4.1409,4.3279,4.6197,4.9223,5.0736,5.0353,4.8483,4.6455,4.4602,4.5362,4.544,4.3419,4.196,4.1055,3.9379,3.6852,3.5711,3.5525,3.5999,3.7243,3.9048,4.0306,4.4279,4.6878,0.0,0.0,0.2447,0.6392,1.0922,1.3287,1.7098,2.1524,2.1455,2.1401,2.1414,2.134,2.138,2.153,2.1631,2.176,2.1889,2.2004,2.2099,2.2201,2.235,2.2493,2.2635,2.273,2.2805,2.2852,2.2866,2.2913,2.2988,2.2859,2.2859,2.2961,2.2859,2.4644,2.8088,2.9876,3.1605,3.3435,3.3129,3.0936,2.8072,2.5482,2.4601,2.5694,2.7824,2.9437,3.0683,3.4891,3.7965,3.898,4.0989,4.2151,4.2044,4.1777,4.163,4.159,4.1256,4.1122,4.1296,4.1243,4.1189,4.1189,4.1283,4.135,4.1376,4.151,4.1724,4.1857,4.179,4.1563,4.1456,4.1203,4.1029,4.1029,4.1029,4.1056,4.1203,4.1443,4.179,4.2458,4.4386,4.5659,4.3825,4.4822,4.4994,4.2413,4.1523,4.1243,4.0949,4.0668,4.0481,4.0602,4.1409,4.2466,4.3398,4.7699,4.9209,4.7024,4.4951,4.289,4.2594,4.1668,3.9841,4.0621,4.0009,3.8941,3.6676,3.6632,3.6217,3.6033,3.7265,3.7986,3.9271,4.2464,4.4813,0.0,0.0,0.3852,0.7453,1.1058,1.4639,1.8161,2.1383,2.1353,2.1346,2.1401,2.1279,2.1299,2.1408,2.1387,2.153,2.1794,2.1815,2.1896,2.2052,2.2249,2.2418,2.2554,2.2662,2.273,2.2784,2.2839,2.2913,2.2988,2.2907,2.2913,2.2995,2.29,2.399,2.6409,2.7914,2.9551,2.9961,2.8949,2.7897,2.6335,2.3804,2.2303,2.2655,2.4442,2.6171,2.7082,3.1768,3.4879,3.586,3.806,3.9244,3.8973,3.8629,3.8481,3.8644,3.925,3.9773,4.0026,4.0808,4.1376,4.147,4.1497,4.151,4.1617,4.1897,4.2084,4.2165,4.2098,4.2071,4.2004,4.1804,4.155,4.139,4.1336,4.143,4.1603,4.1804,4.2098,4.2753,4.4608,4.5073,4.3907,4.5092,4.4544,4.2122,4.1537,4.1243,4.0949,4.0668,4.0481,4.0481,4.0602,4.0831,4.1409,4.4221,4.5602,4.3797,4.3122,4.1287,3.9972,3.8621,3.8154,3.8943,3.8844,3.8016,3.7536,3.7475,3.7024,3.6356,3.6127,3.6679,3.8268,4.0072,4.2462,0.0,0.0,0.3968,0.7643,1.0867,1.4888,1.8257,2.1022,2.136,2.1408,2.1414,2.1279,2.1299,2.1394,2.1319,2.1401,2.1652,2.1726,2.1821,2.1971,2.2228,2.2432,2.2574,2.2595,2.2669,2.2784,2.2934,2.3002,2.3008,2.3008,2.3022,2.3022,2.3022,2.3198,2.3342,2.6572,2.6802,2.5118,2.6605,2.6526,2.3348,2.2871,2.2656,2.2554,2.2799,2.4109,2.6754,2.7536,2.9527,3.1994,3.2758,3.2393,3.2945,3.2572,3.201,3.3036,3.4896,3.6554,3.737,3.9917,4.1617,4.179,4.1817,4.1978,4.2218,4.2472,4.2712,4.2846,4.2766,4.2632,4.2592,4.2352,4.1978,4.1483,4.1456,4.1657,4.2018,4.2205,4.2418,4.2873,4.3603,4.3095,4.2752,4.321,4.28,4.2081,4.1497,4.1216,4.0895,4.0615,4.0508,4.0481,4.0481,4.0481,4.0481,4.0576,4.0522,4.0334,4.0487,3.9753,3.9344,3.8344,3.7836,3.8335,3.9057,3.8213,3.7356,3.7325,3.7811,3.7248,3.6637,3.5819,3.7081,3.8778,4.0567,0.0,0.0,0.6576,0.9613,1.1302,1.7062,2.0447,2.1224,2.1265,2.1346,2.1401,2.1279,2.1299,2.1408,2.1387,2.1475,2.1679,2.1876,2.2052,2.2215,2.2398,2.2567,2.269,2.271,2.2737,2.2798,2.2934,2.3008,2.3029,2.311,2.3158,2.3158,2.3151,2.3178,2.3219,2.4345,2.4138,2.3307,2.4125,2.4054,2.2932,2.2784,2.2757,2.2723,2.271,2.3321,2.4153,2.6292,2.7986,2.8874,3.1249,3.2482,3.2129,3.1989,3.1878,3.2289,3.5031,3.6825,3.7373,4.0162,4.2118,4.2392,4.2552,4.2712,4.2806,4.2899,4.3006,4.31,4.3006,4.2966,4.2913,4.2699,4.2352,4.1991,4.1951,4.1978,4.2205,4.2405,4.2592,4.2766,4.2966,4.2859,4.2539,4.2485,4.2218,4.143,4.1269,4.1189,4.0748,4.0588,4.0481,4.0481,4.0481,4.0481,4.0481,4.0481,4.0388,4.0201,3.9907,3.9559,3.9025,3.8571,3.8036,3.8077,3.868,3.8536,3.7659,3.7752,3.8443,3.7643,3.6504,3.614,3.6221,3.7392,3.9208,0.0,0.0,0.6258,0.9414,1.1094,1.6986,2.0151,2.1093,2.1211,2.1265,2.1306,2.1136,2.1163,2.1313,2.1306,2.1462,2.176,2.2059,2.231,2.25,2.2656,2.2778,2.2866,2.2866,2.2866,2.2879,2.2968,2.3035,2.309,2.3171,2.3219,2.3219,2.3219,2.3219,2.3219,2.3219,2.3171,2.3097,2.309,2.3042,2.2968,2.2947,2.292,2.2866,2.2812,2.2784,2.2898,2.4877,2.5806,2.601,2.78,2.8755,2.8684,2.8286,2.8349,2.8966,3.1305,3.3614,3.512,3.8405,4.148,4.2315,4.2926,4.314,4.322,4.326,4.3287,4.3407,4.3327,4.3247,4.322,4.2993,4.2699,4.2418,4.2258,4.2271,4.2378,4.2552,4.2646,4.2672,4.2632,4.2418,4.2231,4.2031,4.1871,4.1122,4.1149,4.1203,4.0788,4.0655,4.0628,4.0575,4.0521,4.0521,4.0481,4.0481,4.0481,4.0294,4.0067,3.9706,3.9265,3.8945,3.8504,3.8751,3.9238,3.9055,3.8376,3.9516,4.0188,3.8367,3.6353,3.6113,3.5912,3.6307,3.8028,0.0,0.0,0.389,0.7352,1.0377,1.4559,1.8009,2.043,2.1231,2.1245,2.119,2.1028,2.1014,2.117,2.119,2.1421,2.1855,2.2215,2.2486,2.273,2.2913,2.3015,2.3022,2.3022,2.3022,2.3022,2.3029,2.3097,2.3191,2.3212,2.3219,2.3219,2.3219,2.3219,2.3219,2.3219,2.3219,2.3205,2.3205,2.3198,2.3191,2.3178,2.3137,2.3015,2.2866,2.2791,2.2932,2.3097,2.3062,2.2857,2.332,2.352,2.2862,2.2277,2.2722,2.3121,2.5345,2.898,3.1978,3.6081,3.9484,4.2421,4.3073,4.3247,4.3514,4.3567,4.3648,4.3848,4.3701,4.3554,4.3501,4.3287,4.2993,4.2672,4.2378,4.2338,4.2579,4.2605,4.2552,4.2472,4.2138,4.1764,4.1737,4.1537,4.1283,4.1016,4.1082,4.1056,4.0882,4.0735,4.0829,4.0735,4.0561,4.0521,4.0481,4.0334,4.0321,4.0214,4.0027,3.9733,3.9412,3.9118,3.8771,3.9065,3.9658,3.9392,3.9292,4.0009,3.961,3.7619,3.6341,3.5805,3.5737,3.5972,3.7235,0.0,0.0,0.3871,0.5834,0.745,1.3224,1.6413,1.7648,2.0263,2.1089,2.1346,2.1306,2.1272,2.138,2.1455,2.1645,2.1943,2.231,2.2595,2.2798,2.3056,2.3158,2.3164,2.3164,2.3158,2.3158,2.3151,2.3185,2.3219,2.3219,2.3219,2.3219,2.3219,2.3219,2.3219,2.3219,2.3219,2.3219,2.3219,2.3212,2.3198,2.311,2.311,2.3144,2.2913,2.2852,2.2934,2.2913,2.2846,2.2778,2.2723,2.2683,2.2696,2.2398,2.2201,2.2702,2.517,2.8562,3.2099,3.5679,3.9406,4.2794,4.3527,4.3795,4.3861,4.3875,4.3928,4.3995,4.3915,4.3875,4.3821,4.3567,4.3193,4.2726,4.2392,4.2258,4.2325,4.2325,4.2258,4.2044,4.1871,4.1603,4.1323,4.1229,4.1109,4.0788,4.0829,4.0976,4.0788,4.0695,4.0735,4.0628,4.0495,4.0495,4.0428,4.0254,4.0134,4.008,3.9893,3.9666,3.9372,3.9092,3.8718,3.8621,3.9798,3.9981,3.9306,3.9309,3.7921,3.6665,3.614,3.5591,3.5538,3.5709,3.6887,0.0,0.0,0.2209,0.3938,0.561,0.9769,1.3229,1.5984,1.8118,2.0006,2.093,2.1279,2.1326,2.1448,2.153,2.1767,2.2093,2.2405,2.2662,2.2913,2.3178,2.3273,2.3239,2.3219,2.3219,2.3219,2.3219,2.3219,2.3219,2.3219,2.3219,2.3219,2.3219,2.3219,2.3219,2.3158,2.313,2.3117,2.3083,2.3063,2.3117,2.2988,2.3049,2.311,2.2947,2.2852,2.2988,2.3063,2.3056,2.2974,2.292,2.29,2.2934,2.2622,2.2411,2.2475,2.4066,2.6906,3.1621,3.4681,3.819,4.2338,4.3821,4.3968,4.3995,4.4008,4.4008,4.4008,4.4008,4.4008,4.3928,4.3621,4.3153,4.2726,4.2392,4.2231,4.2218,4.2111,4.1978,4.1817,4.1657,4.1443,4.0962,4.0989,4.0815,4.0642,4.0748,4.0788,4.0735,4.0668,4.0615,4.0575,4.0468,4.0428,4.0308,4.0134,3.988,3.9813,3.9626,3.9426,3.9239,3.8985,3.8691,3.8675,3.9896,4.0234,3.9153,3.8114,3.7305,3.6342,3.5725,3.5525,3.5444,3.5391,3.6691,0.0,0.0,0.0,0.1908,0.4581,0.5379,0.9538,1.4753,1.6035,1.8262,2.0778,2.117,2.136,2.1509,2.1658,2.1855,2.2357,2.2554,2.2798,2.3076,2.332,2.3422,2.3327,2.3286,2.3273,2.3259,2.3239,2.3219,2.3219,2.3219,2.3219,2.3219,2.3219,2.3219,2.3198,2.3097,2.3022,2.3008,2.2934,2.294,2.3002,2.2934,2.2988,2.3144,2.2981,2.2893,2.3008,2.311,2.3178,2.3212,2.3103,2.3097,2.3137,2.2798,2.2554,2.2391,2.2832,2.5377,3.1062,3.3105,3.6143,4.1997,4.3861,4.4008,4.4008,4.4008,4.4008,4.4008,4.4008,4.4008,4.3941,4.3501,4.3113,4.2766,4.2445,4.2245,4.2165,4.1964,4.1777,4.1684,4.1443,4.1189,4.0909,4.0682,4.0521,4.0561,4.0695,4.0775,4.0722,4.0642,4.0655,4.0695,4.0548,4.0348,4.0187,4.0,3.972,3.9506,3.9292,3.9092,3.8972,3.8758,3.8571,3.8789,3.9201,3.8761,3.7767,3.688,3.6477,3.6141,3.5631,3.5458,3.5324,3.5297,3.6019,0.0,0.0,0.0,0.0411,0.1503,0.4209,0.7866,1.2113,1.4944,1.7897,2.1041,2.1692,2.1787,2.1964,2.2059,2.2289,2.254,2.2791,2.3069,2.3354,2.3537,2.3612,2.3551,2.3476,2.3402,2.3368,2.3273,2.3225,2.3219,2.3219,2.3219,2.3219,2.3219,2.3219,2.3198,2.3083,2.3008,2.3002,2.2968,2.2961,2.2988,2.2968,2.3015,2.3178,2.3049,2.2988,2.3002,2.3035,2.311,2.3178,2.3191,2.3178,2.3137,2.29,2.2696,2.2574,2.2509,2.5306,3.1211,3.3197,3.6123,4.2361,4.3796,4.4008,4.4008,4.4008,4.4008,4.4008,4.4008,4.4008,4.3928,4.3648,4.326,4.2913,4.2512,4.2218,4.2165,4.1951,4.163,4.1283,4.1122,4.0909,4.0668,4.0829,4.0708,4.0588,4.0628,4.0762,4.0708,4.0615,4.0628,4.0668,4.0495,4.0254,3.996,3.9693,3.9306,3.9118,3.8931,3.8878,3.8744,3.8597,3.8437,3.825,3.815,3.7542,3.6954,3.6567,3.6274,3.5859,3.5631,3.5605,3.5538,3.5391,3.5376,0.0,0.0,0.0,0.0,0.0,0.2051,0.492,0.8621,1.2173,1.5859,1.9152,2.0986,2.2072,2.2228,2.2378,2.2547,2.2798,2.3076,2.3334,2.3551,2.3714,2.3816,2.3856,2.3721,2.3605,2.3463,2.3293,2.3225,2.3219,2.3219,2.3219,2.3219,2.3219,2.3219,2.3198,2.3083,2.3015,2.2988,2.2934,2.2934,2.2995,2.294,2.2974,2.311,2.311,2.311,2.3117,2.3117,2.3151,2.3198,2.3219,2.3185,2.3103,2.2907,2.2737,2.2554,2.2371,2.4669,2.9241,3.2347,3.5465,4.1007,4.2912,4.3863,4.4008,4.4008,4.4008,4.4008,4.3995,4.3955,4.3795,4.3501,4.3207,4.2899,4.2499,4.2191,4.2031,4.1871,4.1697,4.139,4.139,4.1203,4.1082,4.1056,4.0935,4.0815,4.0762,4.0855,4.0615,4.0535,4.0521,4.0495,4.0348,4.0107,3.976,3.9359,3.8811,3.8651,3.8557,3.8624,3.8664,3.8504,3.8317,3.8076,3.7782,3.7355,3.6821,3.6446,3.6193,3.6006,3.5872,3.5872,3.5845,3.5738,3.5618,0.0,0.0,0.0,0.0,0.0,0.0,0.2342,0.5787,0.9339,1.3475,1.6636,2.0463,2.2283,2.2418,2.2567,2.2798,2.3083,2.3334,2.3558,2.3714,2.3863,2.3972,2.4019,2.391,2.3754,2.351,2.3354,2.3273,2.3225,2.3219,2.3219,2.3219,2.3219,2.3219,2.3191,2.309,2.3008,2.2995,2.292,2.29,2.2995,2.2934,2.2981,2.3069,2.3158,2.3908,2.4045,2.3908,2.3499,2.3929,2.3506,2.3144,2.3015,2.2859,2.2669,2.2405,2.2269,2.4229,2.7859,3.1192,3.4753,3.8284,4.196,4.3731,4.4008,4.4008,4.4008,4.3968,4.3928,4.3795,4.3541,4.322,4.2953,4.2686,4.2405,4.2111,4.1871,4.1804,4.1817,4.1644,4.1497,4.1336,4.1336,4.131,4.1176,4.1069,4.1029,4.0909,4.0668,4.0521,4.0548,4.0414,4.0267,3.9786,3.9399,3.9052,3.8504,3.8317,3.8223,3.8344,3.8437,3.8157,3.7916,3.7756,3.7448,3.7088,3.6807,3.6527,3.6313,3.6166,3.6099,3.6072,3.6072,3.6086,3.5925,0.0,0.0,0.0,0.0,0.0,0.0,0.2089,0.5889,0.9339,1.3254,1.681,2.0777,2.2567,2.271,2.2866,2.3097,2.3334,2.3551,2.3714,2.3849,2.3992,2.41,2.408,2.3992,2.3863,2.3761,2.3565,2.3375,2.3273,2.3219,2.328,2.3239,2.3232,2.3232,2.3198,2.309,2.3029,2.3035,2.2988,2.3002,2.3029,2.3083,2.3117,2.3164,2.3205,2.4489,2.6048,2.4918,2.4639,2.7173,2.4775,2.3423,2.3015,2.2866,2.2696,2.252,2.2357,2.3898,2.7408,3.1075,3.4736,3.8296,4.196,4.3863,4.4008,4.3982,4.3928,4.3875,4.3741,4.3581,4.3527,4.3073,4.2779,4.2592,4.2405,4.2111,4.1924,4.1937,4.1937,4.1684,4.155,4.1537,4.163,4.167,4.155,4.147,4.1416,4.1163,4.0815,4.0722,4.0708,4.0495,4.0227,3.9599,3.8985,3.8651,3.8263,3.8076,3.801,3.805,3.8023,3.7702,3.7489,3.7649,3.7462,3.7101,3.6834,3.662,3.658,3.6553,3.6406,3.6273,3.6366,3.6433,3.6046,0.0,0.0,0.0,0.0,0.0,0.0,0.0982,0.339,0.8717,1.2248,1.5289,1.9901,2.2825,2.2927,2.3056,2.3253,2.3456,2.3693,2.3822,2.3924,2.4046,2.4121,2.4121,2.4033,2.3965,2.3877,2.3734,2.3598,2.347,2.347,2.3449,2.3442,2.3388,2.3341,2.3307,2.3205,2.313,2.3124,2.3117,2.3117,2.3117,2.3198,2.3212,2.3219,2.3219,2.4216,2.4918,2.4632,2.3929,2.5054,2.4209,2.328,2.3015,2.2866,2.271,2.2567,2.2418,2.3833,2.7483,3.1141,3.4789,3.8296,4.196,4.3731,4.3955,4.3861,4.3714,4.3581,4.3634,4.3461,4.33,4.2886,4.2699,4.2619,4.2405,4.2178,4.2071,4.2138,4.1964,4.175,4.1831,4.1924,4.2111,4.2071,4.1951,4.1871,4.1804,4.1443,4.1002,4.0869,4.0802,4.0401,4.0054,3.9426,3.8825,3.8477,3.8143,3.7943,3.7889,3.7929,3.7956,3.7796,3.7849,3.7996,3.7662,3.7181,3.7048,3.6914,3.6914,3.6941,3.6887,3.6834,3.6847,3.6727,3.6273,0.0,0.0,0.0,0.0,0.0,0.0,0.0,0.0,0.8187,1.1468,1.2554,1.9202,2.2995,2.3056,2.3191,2.3368,2.3551,2.3829,2.3938,2.3985,2.4107,2.4168,2.4128,2.4107,2.406,2.3978,2.3999,2.3877,2.3673,2.3646,2.3666,2.3626,2.3531,2.3497,2.347,2.3347,2.3293,2.3259,2.3225,2.3219,2.3219,2.3219,2.3219,2.3219,2.3219,2.3649,2.5062,2.3786,2.4073,2.4496,2.3915,2.3171,2.3049,2.2879,2.2717,2.2567,2.2425,2.4392,2.7492,3.1141,3.4799,3.8296,4.196,4.3599,4.3928,4.3741,4.3447,4.3207,4.3167,4.3233,4.3006,4.2726,4.2579,4.2512,4.2352,4.2165,4.2018,4.1978,4.1978,4.1937,4.2098,4.2178,4.2245,4.2258,4.2084,4.1978,4.1911,4.159,4.1176,4.0949,4.0762,4.0281,3.9813,3.9212,3.8731,3.8397,3.8116,3.7889,3.7916,3.7983,3.8076,3.8103,3.817,3.8157,3.7769,3.7355,3.7261,3.7235,3.7248,3.7288,3.7355,3.7261,3.7034,3.6687,3.6246,0.0,0.0,0.0,0.0,0.0,0.0,0.0,0.0,0.8066,1.1361,1.192,1.9253,2.3022,2.3097,2.3314,2.3571,2.3809,2.3999,2.4094,2.4114,2.4243,2.4263,2.4155,2.4128,2.4161,2.4134,2.4229,2.4039,2.3863,2.3775,2.3721,2.3727,2.3721,2.3653,2.3639,2.3476,2.3429,2.3395,2.3286,2.3219,2.3219,2.3219,2.3219,2.3219,2.3362,2.4353,2.6048,2.4632,2.4353,2.6746,2.4639,2.3355,2.3151,2.2927,2.273,2.2561,2.2841,2.3833,2.7467,3.1132,3.4789,3.8296,4.196,4.3599,4.3888,4.3688,4.3407,4.3127,4.2953,4.2793,4.2699,4.2458,4.2325,4.2298,4.2271,4.1951,4.1724,4.1884,4.1871,4.1817,4.1884,4.2058,4.2178,4.2205,4.2205,4.2111,4.1964,4.163,4.1296,4.1002,4.0655,4.0174,3.9813,3.9252,3.8905,3.8544,3.825,3.7969,3.809,3.8157,3.8143,3.8223,3.8197,3.809,3.7796,3.7729,3.7756,3.7742,3.7649,3.7555,3.7515,3.7288,3.6994,3.6607,3.6193,0.0,0.0,0.0,0.0,0.0,0.0,0.0,0.0,0.8102,1.1568,1.2983,1.9648,2.3171,2.3286,2.349,2.3693,2.391,2.4148,2.425,2.4284,2.4385,2.4433,2.4392,2.4372,2.4372,2.4365,2.4419,2.4406,2.4202,2.4161,2.4155,2.4039,2.3965,2.3877,2.3802,2.3571,2.3476,2.3402,2.3307,2.3225,2.3219,2.3219,2.3219,2.3219,2.3219,2.4209,2.4775,2.4496,2.3786,2.534,2.3642,2.3219,2.3151,2.2961,2.2744,2.269,2.2459,2.4072,2.7349,3.1075,3.4902,3.843,4.167,4.3783,4.3768,4.3594,4.33,4.2886,4.2752,4.2605,4.2458,4.2298,4.2258,4.2218,4.2191,4.1951,4.1697,4.1724,4.179,4.1724,4.171,4.1924,4.2111,4.2191,4.2191,4.2098,4.1871,4.1523,4.1163,4.0802,4.0441,4.004,3.9733,3.9399,3.9145,3.8851,3.8584,3.841,3.8624,3.8597,3.833,3.829,3.8357,3.8517,3.8531,3.845,3.8344,3.817,3.8023,3.7823,3.7635,3.7382,3.7101,3.6527,3.6099,0.0,0.0,0.0,0.0,0.0,0.0,0.0,0.0,0.8284,1.1633,1.3755,1.9475,2.3361,2.3531,2.3707,2.3897,2.4039,2.4317,2.4406,2.4467,2.4528,2.4582,2.4541,2.4541,2.4541,2.4568,2.4596,2.4589,2.4616,2.4616,2.4555,2.4406,2.4223,2.4128,2.3965,2.3748,2.3571,2.3436,2.33,2.3225,2.3219,2.3219,2.3219,2.3219,2.3219,2.3219,2.3219,2.3219,2.3362,2.3362,2.3362,2.3219,2.3178,2.3008,2.2798,2.2696,2.2493,2.3949,2.7366,3.1143,3.516,3.9108,4.1777,4.3848,4.3474,4.3407,4.318,4.2605,4.2539,4.2405,4.2285,4.2231,4.2218,4.2178,4.2124,4.1937,4.175,4.1644,4.159,4.1563,4.1617,4.1844,4.2031,4.2165,4.2165,4.2071,4.179,4.1416,4.1042,4.0642,4.0374,4.004,3.988,3.9613,3.9386,3.9145,3.8891,3.8798,3.9012,3.9012,3.8704,3.8664,3.8758,3.8931,3.9092,3.8985,3.8771,3.8571,3.8344,3.7996,3.7689,3.7529,3.7195,3.658,3.6126,0.0,0.0,0.0,0.0,0.0,0.0,0.0,0.0,0.8321,1.1822,1.3787,1.9555,2.3503,2.3687,2.3917,2.4134,2.4311,2.4623,2.4629,2.4629,2.4684,2.4697,2.4663,2.4629,2.4602,2.4629,2.4718,2.4772,2.4799,2.4867,2.4758,2.4568,2.4406,2.4345,2.4182,2.3917,2.3619,2.3449,2.328,2.3225,2.3219,2.3219,2.3219,2.3219,2.3219,2.3219,2.3219,2.3219,2.3219,2.3219,2.3219,2.3219,2.3185,2.3022,2.2832,2.2669,2.2534,2.4261,2.7366,3.1259,3.649,4.114,4.3651,4.3741,4.334,4.3167,4.2833,4.2445,4.2432,4.2298,4.2231,4.2218,4.2218,4.2191,4.2084,4.1884,4.1644,4.1376,4.1336,4.1363,4.1772,4.2541,4.2745,4.3034,4.231,4.2216,4.1563,4.1176,4.0869,4.0508,4.0361,4.0161,4.0054,3.9867,3.964,3.9412,3.9225,3.9118,3.9212,3.9199,3.9052,3.9092,3.9132,3.9225,3.9332,3.9279,3.9212,3.9012,3.8691,3.8103,3.7729,3.7529,3.7195,3.6633,3.6286,0.0,0.0,0.0,0.0,0.0,0.0,0.0,0.0,0.8197,1.4568,1.872,2.1914,2.3537,2.3734,2.3978,2.4202,2.4379,2.4657,2.4718,2.4779,2.4833,2.488,2.4847,2.4826,2.4847,2.4847,2.4908,2.4935,2.4942,2.4982,2.4887,2.4718,2.4548,2.4433,2.427,2.3972,2.3632,2.3395,2.3266,2.3219,2.3219,2.3219,2.3219,2.3219,2.3219,2.3219,2.3219,2.3219,2.3219,2.3219,2.3219,2.3219,2.3191,2.3015,2.2846,2.2683,2.2561,2.4283,2.7519,3.1231,3.6112,4.1488,4.3567,4.3594,4.3287,4.306,4.2913,4.2659,4.2392,4.2231,4.2218,4.2218,4.2218,4.2191,4.2058,4.1844,4.163,4.1376,4.1363,4.151,4.2972,4.4257,4.422,4.4166,4.3247,4.2318,4.1611,4.0962,4.0668,4.0481,4.0374,4.0281,4.0187,4.0107,3.9893,3.972,3.9559,3.9493,3.9439,3.9359,3.9319,3.9399,3.9439,3.9533,3.9573,3.9533,3.9479,3.9412,3.8998,3.829,3.7823,3.7489,3.7088,3.6714,3.6527,0.0,0.0,0.0,0.0,0.0,0.0,0.0719,0.2885,0.8653,1.6056,2.3156,2.349,2.3666,2.3863,2.4121,2.4345,2.4535,2.4745,2.4833,2.4901,2.4955,2.5016,2.5023,2.5009,2.4975,2.5023,2.5023,2.5016,2.5003,2.4969,2.4914,2.4819,2.4663,2.4494,2.4277,2.391,2.3551,2.3354,2.3239,2.3219,2.3219,2.3219,2.3219,2.3219,2.3219,2.3219,2.3219,2.3219,2.3219,2.3219,2.3219,2.3219,2.3151,2.3042,2.2886,2.2744,2.3014,2.4059,2.7553,3.2317,3.6985,4.2495,4.3621,4.3607,4.334,4.3006,4.2886,4.2672,4.2405,4.2231,4.2231,4.2218,4.2218,4.2191,4.2031,4.1844,4.1724,4.1537,4.1617,4.171,4.3151,4.394,4.3887,4.3412,4.2914,4.1933,4.138,4.0895,4.0615,4.0481,4.0468,4.0388,4.0321,4.0241,4.0161,3.9933,3.976,3.9867,3.9786,3.9599,3.9573,3.9653,3.9733,3.9786,3.98,3.9773,3.9666,3.9519,3.9012,3.841,3.7996,3.7609,3.7502,3.7181,3.6954,0.0,0.0,0.0,0.0,0.0,0.0,0.2022,0.5486,1.0137,1.63,2.3007,2.3714,2.3931,2.4114,2.4345,2.4555,2.4718,2.4901,2.4989,2.4996,2.5003,2.5023,2.5023,2.5023,2.5023,2.5023,2.5023,2.5023,2.5023,2.4935,2.4914,2.4867,2.4691,2.4473,2.4317,2.3904,2.3612,2.3442,2.3293,2.3232,2.3219,2.3219,2.3219,2.3259,2.3259,2.3266,2.3266,2.3266,2.3259,2.3225,2.3219,2.3219,2.3198,2.3144,2.2995,2.2791,2.2737,2.4438,2.7706,3.4414,3.911,4.2796,4.3688,4.3648,4.3273,4.3033,4.2939,4.2779,4.2392,4.2285,4.2258,4.2245,4.2271,4.2312,4.2178,4.2058,4.1978,4.1978,4.2098,4.2395,4.2287,4.2162,4.2337,4.2404,4.2108,4.1537,4.1136,4.0829,4.0561,4.0481,4.0481,4.0454,4.0388,4.0294,4.0201,4.0067,4.0,4.012,4.0054,3.9786,3.98,3.9947,4.0014,4.004,3.9987,3.9933,3.976,3.9573,3.9052,3.8557,3.8143,3.7823,3.7756,3.7635,3.7368,0.0,0.0,0.0,0.0,0.0,0.0,0.2179,0.6528,1.2667,1.8567,2.2618,2.3761,2.3978,2.4175,2.4419,2.465,2.4806,2.4948,2.5023,2.5023,2.5023,2.5023,2.5023,2.5023,2.5023,2.5023,2.5023,2.5023,2.5023,2.4948,2.4887,2.4826,2.4711,2.444,2.4175,2.3849,2.3605,2.3449,2.3314,2.3219,2.3219,2.3232,2.3273,2.3354,2.3361,2.3361,2.3354,2.3347,2.33,2.3232,2.3219,2.3212,2.3171,2.311,2.2907,2.2737,2.2789,2.5439,2.9457,3.4601,3.7566,4.1391,4.3634,4.3648,4.3394,4.318,4.3073,4.2953,4.2646,4.2632,4.2766,4.2605,4.2605,4.2806,4.2739,4.2605,4.2539,4.2619,4.2787,4.3307,4.341,4.4446,4.4825,4.285,4.1911,4.159,4.1216,4.0855,4.0575,4.0495,4.0468,4.0481,4.0428,4.0334,4.0201,3.9987,3.988,3.9933,3.9907,3.9786,3.9907,4.0174,4.0227,4.0214,4.0147,4.0054,3.9706,3.9386,3.9145,3.8758,3.8357,3.805,3.7943,3.7849,3.7702,0.0,0.0,0.0,0.0,0.0,0.0,0.2913,0.8584,1.6099,2.1167,2.3154,2.3843,2.4094,2.429,2.4473,2.4697,2.486,2.4969,2.5023,2.5023,2.5023,2.5023,2.5023,2.5023,2.5023,2.5023,2.503,2.5036,2.5098,2.5043,2.4982,2.4887,2.4765,2.4636,2.4358,2.4073,2.3748,2.3578,2.3409,2.332,2.3314,2.332,2.3354,2.3415,2.3442,2.3442,2.3429,2.3395,2.3334,2.3253,2.3219,2.3191,2.3103,2.2995,2.2805,2.2669,2.3049,2.6187,3.1236,3.3293,3.7127,4.3137,4.3623,4.3634,4.3554,4.3367,4.3287,4.318,4.2993,4.2993,4.3033,4.2859,4.2926,4.3113,4.3086,4.2953,4.2913,4.298,4.3095,4.3634,4.4021,4.5361,4.6063,4.4068,4.1991,4.1657,4.1323,4.0949,4.0575,4.0441,4.0361,4.0348,4.0241,4.0054,3.992,3.9786,3.9733,3.9746,3.9786,3.9827,4.008,4.0348,4.0374,4.0348,4.0174,3.992,3.9493,3.9159,3.8972,3.8825,3.8624,3.837,3.8157,3.809,3.805,0.0,0.0,0.0,0.0,0.0,0.0,0.466,1.2061,2.0,2.352,2.37,2.3972,2.4223,2.448,2.4548,2.4684,2.488,2.4948,2.4975,2.4989,2.4975,2.4989,2.5023,2.5036,2.5064,2.505,2.5084,2.5192,2.5233,2.5213,2.5131,2.505,2.5009,2.4853,2.4616,2.4331,2.3999,2.3768,2.3558,2.3476,2.3456,2.3463,2.349,2.3531,2.3544,2.3524,2.3483,2.3402,2.33,2.3239,2.3219,2.313,2.3063,2.3008,2.2812,2.2615,2.2432,2.6558,3.1152,3.2549,3.6709,4.2126,4.3983,4.381,4.3728,4.3661,4.3607,4.342,4.322,4.3193,4.3167,4.3153,4.314,4.322,4.3247,4.318,4.314,4.3153,4.314,4.3291,4.3197,4.3784,4.3862,4.2546,4.1924,4.1577,4.1229,4.0935,4.0575,4.0241,4.0161,4.0107,3.996,3.9693,3.9586,3.9573,3.9666,3.9706,3.9907,4.0014,4.0281,4.0428,4.0414,4.0321,4.0107,3.9827,3.9493,3.9145,3.8825,3.8718,3.8744,3.8638,3.841,3.8491,3.8464,0.0,0.0,0.0,0.0,0.0,0.2928,0.7006,1.2362,2.0146,2.3687,2.37,2.3992,2.4236,2.4406,2.4412,2.4541,2.4636,2.4711,2.4779,2.4819,2.4874,2.4935,2.5016,2.5104,2.5152,2.5206,2.5274,2.5369,2.5511,2.5484,2.5403,2.5349,2.522,2.5043,2.4806,2.4555,2.4263,2.3992,2.3741,2.3639,2.3612,2.3612,2.3653,2.37,2.3721,2.3687,2.3585,2.3537,2.3429,2.3253,2.3225,2.3151,2.3029,2.2913,2.2737,2.2595,2.2938,2.4753,2.9149,3.2215,3.5984,4.061,4.2918,4.4383,4.4289,4.4129,4.4022,4.3808,4.3621,4.3621,4.3661,4.3648,4.3661,4.3701,4.3714,4.3661,4.3634,4.3634,4.3607,4.334,4.3233,4.3006,4.2819,4.2271,4.179,4.1443,4.1136,4.0855,4.0535,4.0187,3.9987,3.992,3.968,3.9426,3.9439,3.9452,3.9573,3.9706,3.9907,4.012,4.0334,4.0441,4.0414,4.0254,3.9987,3.9786,3.9573,3.9252,3.8958,3.8905,3.8918,3.8798,3.8718,3.8744,3.8731,0.0,0.0,0.0,0.0,0.0,0.4104,0.8048,1.2416,1.8604,2.2124,2.3648,2.4019,2.4202,2.4338,2.4365,2.444,2.4568,2.4596,2.4636,2.4684,2.4758,2.4894,2.5023,2.5165,2.5254,2.5335,2.5423,2.5505,2.5674,2.5749,2.5694,2.5538,2.5396,2.5159,2.4908,2.4657,2.4433,2.4175,2.3951,2.3809,2.3768,2.3768,2.3829,2.3877,2.3897,2.3816,2.3693,2.3653,2.3463,2.3259,2.3225,2.3158,2.3015,2.2866,2.2778,2.2669,2.2871,2.4851,2.8276,3.0451,3.4487,3.8534,4.172,4.3239,4.442,4.465,4.4516,4.4356,4.4222,4.4129,4.4169,4.4222,4.4275,4.4329,4.4275,4.4209,4.4209,4.4222,4.3995,4.3688,4.3434,4.3167,4.2752,4.2165,4.1684,4.139,4.1109,4.0829,4.0454,4.0067,3.9867,3.9773,3.9466,3.9159,3.9252,3.9412,3.9626,3.9786,3.992,4.0134,4.0361,4.0348,4.0227,4.004,3.9813,3.9666,3.9533,3.9399,3.9199,3.9159,3.9172,3.9159,3.9025,3.8838,3.8811,0.0,0.0,0.0,0.0,0.0,0.3667,0.7638,1.2045,1.5899,1.9862,2.3319,2.4053,2.4195,2.4284,2.4297,2.4358,2.4433,2.446,2.4507,2.4562,2.4684,2.484,2.5057,2.5186,2.5355,2.5443,2.5532,2.5647,2.5728,2.5817,2.5844,2.5694,2.5518,2.5267,2.4935,2.4691,2.446,2.4236,2.4053,2.391,2.391,2.391,2.391,2.3917,2.3904,2.3849,2.3693,2.3551,2.3395,2.328,2.3205,2.3151,2.3015,2.2873,2.2798,2.2832,2.2893,2.4387,2.6707,2.878,3.308,3.6909,4.001,4.184,4.3189,4.4645,4.4877,4.4716,4.4543,4.4516,4.4556,4.4569,4.4609,4.4636,4.4596,4.4529,4.4503,4.4503,4.4396,4.4048,4.3621,4.3354,4.2926,4.2352,4.1684,4.1376,4.1082,4.0802,4.0454,4.004,3.9827,3.968,3.9372,3.9145,3.9252,3.9439,3.9746,3.9907,4.0014,4.0174,4.0414,4.0267,4.0,3.9974,3.9947,3.9653,3.9493,3.9426,3.9426,3.9452,3.9479,3.9546,3.9399,3.9132,3.8958,0.0,0.0,0.0,0.0,0.0,0.1033,0.5619,1.1971,1.3011,1.7526,2.3036,2.4046,2.4128,2.4148,2.4155,2.4195,2.4223,2.427,2.4372,2.4487,2.4609,2.484,2.5138,2.5301,2.5477,2.5627,2.5728,2.5776,2.5823,2.5918,2.5925,2.5694,2.5518,2.5254,2.488,2.4643,2.4453,2.4216,2.4121,2.4039,2.4039,2.4053,2.4066,2.4053,2.4033,2.389,2.3748,2.3639,2.3449,2.3286,2.3232,2.3144,2.3015,2.2873,2.2859,2.2934,2.3015,2.3981,2.5106,2.7332,3.1102,3.5194,3.8201,4.0233,4.2122,4.4086,4.5035,4.4875,4.4917,4.4917,4.493,4.493,4.493,4.493,4.493,4.4863,4.4797,4.477,4.4756,4.4356,4.3888,4.3447,4.3033,4.2458,4.1817,4.139,4.1096,4.0802,4.0508,4.0147,3.9893,3.9706,3.9386,3.9225,3.9332,3.9533,3.9853,4.0054,4.0161,4.0308,4.0454,4.0348,4.0201,4.0214,4.0134,3.988,3.9706,3.964,3.9653,3.972,3.9746,3.98,3.972,3.9493,3.9292,0.0,0.0,0.0,0.0,0.0,0.0,0.3699,0.8893,1.1182,1.5386,2.1059,2.3068,2.3992,2.3944,2.3924,2.3992,2.4012,2.4019,2.4155,2.4317,2.4562,2.4806,2.5077,2.5362,2.5593,2.5755,2.583,2.5878,2.585,2.5844,2.5783,2.5599,2.5416,2.5179,2.4813,2.4629,2.4419,2.4141,2.4128,2.4121,2.4107,2.4073,2.4026,2.4019,2.3978,2.3849,2.3721,2.3612,2.349,2.3314,2.3225,2.3198,2.3117,2.3049,2.3035,2.3103,2.3185,2.3273,2.4132,2.5819,2.8896,3.257,3.4016,3.5144,4.083,4.2588,4.2491,4.2616,4.4827,4.5235,4.5371,4.5371,4.5371,4.5371,4.5371,4.5344,4.5237,4.5171,4.501,4.4676,4.4155,4.3594,4.3086,4.2338,4.175,4.1376,4.1096,4.0802,4.0508,4.0294,4.004,3.9827,3.9573,3.9519,3.968,3.984,4.0027,4.0187,4.0294,4.0254,4.0281,4.0401,4.0441,4.0321,4.0241,4.0174,4.0027,3.9933,4.0,4.012,4.008,4.004,3.9947,3.9853,3.9693,0.0,0.0,0.0,0.0,0.0,0.0,0.2364,0.6372,1.0225,1.4098,1.8447,2.2347,2.3634,2.3721,2.3693,2.3788,2.387,2.3924,2.4026,2.4229,2.446,2.4752,2.503,2.5294,2.5545,2.5735,2.5837,2.5789,2.5722,2.5701,2.5613,2.5437,2.5267,2.5077,2.4819,2.4616,2.4419,2.4195,2.4121,2.4121,2.406,2.3985,2.3951,2.3924,2.3877,2.3748,2.3632,2.3571,2.3531,2.3409,2.3293,2.3239,2.3205,2.3164,2.3212,2.3253,2.3327,2.3429,2.369,2.4092,2.6589,2.8643,2.8909,3.2059,3.794,4.0242,4.0162,4.1257,4.3508,4.5497,4.5635,4.5705,4.5692,4.5692,4.5692,4.5692,4.5585,4.5465,4.5197,4.4903,4.4329,4.3741,4.306,4.2312,4.1777,4.1403,4.1096,4.0802,4.0561,4.0401,4.0201,4.0094,3.996,3.9974,4.0,4.0107,4.0227,4.0281,4.0348,4.0201,4.0147,4.0348,4.0414,4.0294,4.0227,4.0267,4.0294,4.0227,4.0348,4.0401,4.0334,4.0241,4.0241,4.0161,4.0067,0.0,0.0,0.0,0.0,0.0,0.0,0.2225,0.6229,1.0115,1.425,1.7703,2.1595,2.37,2.368,2.3687,2.3741,2.3802,2.3849,2.4066,2.4317,2.4419,2.4704,2.5003,2.524,2.5457,2.562,2.5728,2.5708,2.5586,2.5518,2.543,2.5274,2.526,2.5023,2.4663,2.4514,2.4426,2.4216,2.4121,2.4121,2.408,2.4026,2.3999,2.3972,2.3951,2.3877,2.3829,2.3836,2.3748,2.3619,2.3463,2.3361,2.3293,2.3273,2.3327,2.3415,2.349,2.3626,2.3741,2.3843,2.5942,2.8251,2.8963,2.9606,3.4494,3.8169,3.8258,3.8661,4.1345,4.4986,4.5763,4.5661,4.5732,4.5718,4.5705,4.5692,4.5625,4.5505,4.5331,4.485,4.4289,4.3728,4.314,4.2405,4.1724,4.139,4.1096,4.0815,4.0548,4.0441,4.0348,4.0308,4.0241,4.0161,4.008,4.0267,4.0388,4.0428,4.0428,4.0334,4.0308,4.0388,4.0401,4.0334,4.0348,4.0401,4.0428,4.0401,4.0428,4.0441,4.0454,4.0441,4.0454,4.0401,4.0267]}]]